[[{"header":{"parameterUnit":"m.s-1","parameterCategory":1,"la1":31.0,"la2":29.5877,"lo1":-88.7671,"lo2":-86.6584,"dy":0.0162,"dx":0.0185,"nx":115,"ny":88,"refTime":"2024-05-10T18:00:00:Z","depth":0,"parameterNumber":2,"parameterNumberName":"U-component_of_WINDS"},"data":[0.0,0.0,0.0,0.0,0.0,0.0,0.0,0.0,0.0,0.0,0.0,0.0,0.0,0.0,0.0,0.0,0.0,0.0,0.0,0.0,0.0,0.0,0.0,0.0,0.0,0.0,0.0,0.0,0.0,0.0,0.0,0.0,0.0,0.0,0.0,0.0,0.0,0.0,0.0,0.0,0.0,0.0,0.0,0.0,0.0,0.0,0.0,0.0,0.0,0.0,0.0,0.0,0.0,0.0,0.0,0.0,0.0,0.0,0.0,0.0,0.0,0.0,0.0,0.0,0.0,0.0,0.0,0.0,0.0,0.0,0.0,0.0,0.0,0.0,0.0,0.0,0.0,0.0,0.0,0.0,0.0,0.0,0.0,0.0,0.0,0.0,0.0,0.0,0.0,0.0,0.0,0.0,0.0,0.0,0.0,0.0,0.0,0.0,0.0,0.0,0.0,0.0,0.0,0.0,0.0,0.0,0.0,0.0,0.0,0.0,0.0,0.0,0.0,0.0,0.0,0.0,0.0,0.0,0.0,0.0,0.0,0.0,0.0,0.0,0.0,0.0,0.0,0.0,0.0,0.0,0.0,0.0,0.0,0.0,0.0,0.0,0.0,0.0,0.0,0.0,0.0,0.0,0.0,0.0,0.0,0.0,0.0,0.0,0.0,0.0,0.0,0.0,0.0,0.0,0.0,0.0,0.0,0.0,0.0,0.0,0.0,0.0,0.0,0.0,0.0,0.0,0.0,0.0,0.0,0.0,0.0,0.0,0.0,0.0,0.0,0.0,0.0,0.0,0.0,0.0,0.0,0.0,0.0,0.0,0.0,0.0,0.0,0.0,0.0,0.0,0.0,0.0,0.0,0.0,0.0,0.0,0.0,0.0,0.0,0.0,0.0,0.0,0.0,0.0,0.0,0.0,0.0,0.0,0.0,0.0,0.0,0.0,0.0,0.0,0.0,0.0,0.0,0.0,0.0,0.0,0.0,0.0,0.0,0.0,0.0,0.0,0.0,0.0,0.0,0.0,0.0,0.0,0.0,0.0,0.0,0.0,0.0,0.0,0.0,0.0,0.0,0.0,0.0,0.0,0.0,0.0,0.0,0.0,0.0,0.0,0.0,0.0,0.0,0.0,0.0,0.0,0.0,0.0,0.0,0.0,0.0,0.0,0.0,0.0,0.0,0.0,0.0,0.0,0.0,0.0,0.0,0.0,0.0,0.0,0.0,0.0,0.0,0.0,0.0,0.0,0.0,0.0,0.0,0.0,0.0,0.0,0.0,0.0,0.0,0.0,0.0,0.0,0.0,0.0,0.0,0.0,0.0,0.0,0.0,0.0,0.0,0.0,0.0,0.0,0.0,0.0,0.0,0.0,0.0,0.0,0.0,0.0,0.0,0.0,0.0,0.0,0.0,0.0,0.0,0.0,0.0,0.0,0.0,0.0,0.0,0.0,0.0,0.0,0.0,0.0,0.0,0.0,0.0,0.0,0.0,0.0,0.0,0.0,0.0,0.0,0.0,0.0,0.0,0.0,0.0,0.0,0.0,0.0,0.0,0.0,0.0,0.0,0.0,0.0,0.0,0.0,0.0,0.0,0.0,0.0,0.0,0.0,0.0,0.0,0.0,0.0,0.0,0.0,0.0,0.0,0.0,0.0,0.0,0.0,0.0,0.0,0.0,0.0,0.0,0.0,0.0,0.0,0.0,0.0,0.0,0.0,0.0,0.0,0.0,0.0,0.0,0.0,0.0,0.0,0.0,0.0,0.0,0.0,0.0,0.0,0.0,0.0,0.0,0.0,0.0,0.0,0.0,0.0,0.0,0.0,0.0,0.0,0.0,0.0,0.0,0.0,0.0,0.0,0.0,0.0,0.0,0.0,0.0,0.0,0.0,0.0,0.0,0.0,0.0,0.0,0.0,0.0,0.0,0.0,0.0,0.0,0.0,0.0,0.0,0.0,0.0,0.0,0.0,0.0,0.0,0.0,0.0,0.0,0.0,0.0,0.0,0.0,0.0,0.0,0.0,0.0,0.0,0.0,0.0,0.0,0.0,0.0,0.0,0.0,0.0,0.0,0.0,0.0,0.0,0.0,0.0,0.0,0.0,0.0,0.0,0.0,0.0,0.0,0.0,0.0,0.0,0.0,0.0,0.0,0.0,0.0,0.0,0.0,0.0,0.0,0.0,0.0,0.0,0.0,0.0,0.0,0.0,0.0,0.0,0.0,0.0,0.0,0.0,0.0,0.0,0.0,0.0,0.0,0.0,0.0,0.0,0.0,0.0,0.0,0.0,0.0,0.0,0.0,0.0,0.0,0.0,0.0,0.0,0.0,0.0,0.0,0.0,0.0,0.0,0.0,0.0,0.0,0.0,0.0,0.0,0.0,0.0,0.0,0.0,0.0,0.0,0.0,0.0,0.0,0.0,0.0,0.0,0.0,0.0,0.0,0.0,0.0,0.0,0.0,0.0,0.0,0.0,0.0,0.0,0.0,0.0,0.0,0.0,0.0,0.0,0.0,0.0,0.0,0.0,0.0,0.0,0.0,0.0,0.0,0.0,0.0,0.0,0.0,0.0,0.0,0.0,0.0,0.0,0.0,0.0,0.0,0.0,0.0,0.0,0.0,0.0,0.0,0.0,0.0,0.0,0.0,0.0,0.0,0.0,0.0,0.0,0.0,0.0,0.0,0.0,0.0,0.0,0.0,0.0,0.0,0.0,0.0,0.0,0.0,0.0,0.0,0.0,0.0,0.0,0.0,0.0,0.0,0.0,0.0,0.0,0.0,0.0,0.0,0.0,0.0,0.0,0.0,0.0,0.0,0.0,0.0,0.0,0.0,0.0,0.0,0.0,0.0,0.0,0.0,0.0,0.0,0.0,0.0,0.0,0.0,0.0,0.0,0.0,0.0,0.0,0.0,0.0,0.0,0.0,0.0,0.0,0.0,0.0,0.0,0.0,0.0,0.0,0.0,0.0,0.0,0.0,0.0,0.0,0.0,0.0,0.0,0.0,0.0,0.0,0.0,0.0,0.0,0.0,0.0,0.0,0.0,0.0,0.0,0.0,0.0,0.0,0.0,0.0,0.0,0.0,0.0,0.0,0.0,0.0,0.0,0.0,0.0,0.0,0.0,0.0,0.0,0.0,0.0,0.0,0.0,0.0,0.0,0.0,0.0,0.0,0.0,0.0,0.0,0.0,0.0,0.0,0.0,0.0,0.0,0.0,0.0,0.0,0.0,0.0,0.0,0.0,0.0,0.0,0.0,0.0,0.0,0.0,0.0,0.0,0.0,0.0,0.0,0.0,0.0,0.0,0.0,0.0,0.0,0.0,0.0,0.0,0.0,0.0,0.0,0.0,0.0,0.0,0.0,0.0,0.0,0.0,0.0,0.0,0.0,0.0,0.0,0.0,0.0,0.0,0.0,0.0,0.0,0.0,0.0,0.0,0.0,0.0,0.0,0.0,0.0,0.0,0.0,0.0,0.0,0.0,0.0,0.0,0.0,0.0,0.0,0.0,0.0,0.0,0.0,0.0,0.0,0.0,0.0,0.0,0.0,0.0,0.0,0.0,0.0,0.0,0.0,0.0,0.0,0.0,0.0,0.0,0.0,0.0,0.0,0.0,0.0,0.0,0.0,0.0,0.0,0.0,0.0,0.0,0.0,0.0,0.0,0.0,0.0,0.0,0.0,0.0,0.0,0.0,0.0,0.0,0.0,0.0,0.0,0.0,0.0,0.0,0.0,0.0,0.0,0.0,0.0,0.0,0.0,0.0,0.0,0.0,0.0,0.0,0.0,0.0,0.0,0.0,0.0,0.0,0.0,0.0,0.0,0.0,0.0,0.0,0.0,0.0,0.0,0.0,0.0,0.0,0.0,0.0,0.0,0.0,0.0,0.0,0.0,0.0,0.0,0.0,0.0,0.0,0.0,0.0,0.0,0.0,0.0,0.0,0.0,0.0,0.0,0.0,0.0,0.0,0.0,0.0,0.0,0.0,0.0,0.0,0.0,0.0,0.0,0.0,0.0,0.0,0.0,0.0,0.0,0.0,0.0,0.0,0.0,0.0,0.0,0.0,0.0,0.0,0.0,0.0,0.0,0.0,0.0,0.0,0.0,0.0,0.0,0.0,0.0,0.0,0.0,0.0,0.0,0.0,0.0,0.0,0.0,0.0,0.0,0.0,0.0,0.0,0.0,0.0,0.0,0.0,0.0,0.0,0.0,0.0,0.0,0.0,0.0,0.0,0.0,0.0,0.0,0.0,0.0,0.0,0.0,0.0,0.0,0.0,0.0,-1.6621,0.0,0.0,0.0,0.0,0.0,0.0,0.0,0.0,0.0,0.0,0.0,0.0,0.0,0.0,0.0,0.0,0.0,0.0,0.0,0.0,0.0,0.0,0.0,0.0,0.0,0.0,0.0,0.0,0.0,0.0,0.0,0.0,0.0,0.0,0.0,0.0,0.0,0.0,0.0,0.0,0.0,0.0,0.0,0.0,0.0,0.0,0.0,0.0,0.0,0.0,0.0,0.0,0.0,0.0,0.0,0.0,0.0,0.0,0.0,0.0,0.0,0.0,0.0,0.0,0.0,0.0,0.0,0.0,0.0,0.0,0.0,0.0,0.0,0.0,0.0,0.0,0.0,0.0,0.0,0.0,0.0,0.0,0.0,0.0,0.0,0.0,0.0,0.0,0.0,0.0,0.0,0.0,0.0,0.0,0.0,0.0,0.0,0.0,0.0,0.0,0.0,0.0,0.0,0.0,0.0,0.0,0.0,0.0,0.0,0.0,-1.9582,-1.8652,-1.908,-1.8566,-1.693,0.0,0.0,0.0,0.0,0.0,0.0,0.0,0.0,0.0,0.0,0.0,0.0,0.0,0.0,0.0,0.0,0.0,0.0,0.0,0.0,0.0,0.0,0.0,0.0,0.0,0.0,0.0,0.0,0.0,0.0,0.0,0.0,0.0,0.0,0.0,0.0,0.0,0.0,0.0,0.0,0.0,0.0,0.0,0.0,0.0,0.0,0.0,0.0,0.0,0.0,0.0,0.0,0.0,0.0,0.0,0.0,0.0,0.0,0.0,0.0,0.0,0.0,0.0,0.0,0.0,0.0,0.0,0.0,0.0,0.0,0.0,0.0,0.0,0.0,0.0,0.0,0.0,0.0,0.0,0.0,0.0,0.0,0.0,0.0,0.0,0.0,0.0,0.0,0.0,0.0,0.0,0.0,0.0,0.0,0.0,0.0,0.0,0.0,0.0,0.0,0.0,0.0,0.0,0.0,0.0,0.0,0.0,0.0,0.0,0.0,0.0,0.0,-1.9545,-1.9379,-1.7289,0.0,0.0,0.0,0.0,0.0,0.0,0.0,0.0,0.0,0.0,0.0,0.0,0.0,0.0,0.0,0.0,0.0,0.0,0.0,0.0,0.0,0.0,0.0,0.0,0.0,0.0,0.0,0.0,0.0,0.0,0.0,0.0,0.0,0.0,0.0,0.0,0.0,0.0,0.0,0.0,0.0,0.0,0.0,0.0,0.0,0.0,0.0,0.0,0.0,0.0,0.0,0.0,0.0,0.0,0.0,0.0,0.0,0.0,0.0,0.0,0.0,0.0,0.0,0.0,0.0,0.0,0.0,0.0,0.0,0.0,0.0,0.0,0.0,0.0,0.0,0.0,0.0,0.0,0.0,0.0,0.0,0.0,0.0,0.0,0.0,0.0,0.0,0.0,0.0,0.0,0.0,0.0,0.0,0.0,0.0,0.0,0.0,0.0,0.0,0.0,0.0,0.0,0.0,0.0,0.0,0.0,0.0,0.0,0.0,0.0,-1.828,-1.936,-1.8964,0.0,-1.6994,0.0,0.0,0.0,0.0,0.0,0.0,0.0,0.0,0.0,0.0,0.0,0.0,0.0,0.0,0.0,0.0,0.0,0.0,0.0,0.0,0.0,0.0,0.0,0.0,0.0,0.0,0.0,0.0,0.0,0.0,0.0,0.0,0.0,0.0,0.0,0.0,0.0,0.0,0.0,0.0,0.0,0.0,0.0,0.0,0.0,0.0,0.0,0.0,0.0,0.0,0.0,0.0,0.0,0.0,0.0,0.0,0.0,0.0,0.0,0.0,0.0,0.0,0.0,0.0,0.0,0.0,0.0,0.0,0.0,0.0,0.0,0.0,0.0,0.0,0.0,0.0,0.0,0.0,0.0,0.0,0.0,0.0,0.0,0.0,0.0,0.0,0.0,0.0,0.0,0.0,0.0,0.0,0.0,0.0,0.0,0.0,0.0,0.0,0.0,0.0,0.0,0.0,0.0,0.0,0.0,0.0,0.0,0.0,0.0,0.0,-1.8237,-1.9265,-1.828,-1.7308,0.0,0.0,0.0,0.0,0.0,0.0,0.0,0.0,0.0,0.0,0.0,0.0,0.0,0.0,0.0,0.0,0.0,0.0,0.0,0.0,0.0,0.0,0.0,0.0,0.0,0.0,0.0,0.0,0.0,0.0,0.0,0.0,0.0,0.0,0.0,0.0,0.0,0.0,0.0,0.0,0.0,0.0,0.0,0.0,0.0,0.0,0.0,0.0,0.0,0.0,0.0,0.0,0.0,0.0,0.0,0.0,0.0,0.0,0.0,0.0,0.0,0.0,0.0,0.0,0.0,0.0,0.0,0.0,0.0,0.0,0.0,0.0,0.0,0.0,0.0,0.0,0.0,0.0,0.0,0.0,0.0,0.0,0.0,0.0,0.0,0.0,0.0,0.0,0.0,0.0,0.0,0.0,0.0,0.0,0.0,0.0,0.0,0.0,0.0,0.0,0.0,0.0,0.0,0.0,0.0,0.0,0.0,0.0,0.0,0.0,-1.8453,-1.8571,-1.9349,-1.8039,-1.6835,-1.5966,0.0,0.0,0.0,0.0,0.0,0.0,0.0,0.0,0.0,0.0,0.0,0.0,0.0,0.0,0.0,0.0,0.0,0.0,0.0,0.0,0.0,0.0,0.0,0.0,0.0,0.0,0.0,0.0,0.0,0.0,0.0,0.0,0.0,0.0,0.0,0.0,0.0,0.0,0.0,0.0,0.0,0.0,0.0,0.0,0.0,0.0,0.0,0.0,0.0,0.0,0.0,0.0,0.0,0.0,0.0,0.0,0.0,0.0,0.0,0.0,0.0,0.0,0.0,0.0,0.0,0.0,0.0,0.0,0.0,0.0,0.0,0.0,0.0,0.0,0.0,0.0,0.0,0.0,0.0,0.0,0.0,0.0,0.0,0.0,0.0,0.0,0.0,0.0,0.0,0.0,0.0,0.0,0.0,0.0,0.0,0.0,0.0,0.0,0.0,0.0,0.0,0.0,0.0,0.0,0.0,0.0,0.0,0.0,-2.2557,-2.0347,-1.943,-2.0224,-1.8442,-1.6968,0.0,0.0,0.0,0.0,0.0,0.0,0.0,0.0,0.0,0.0,0.0,0.0,0.0,0.0,0.0,0.0,0.0,0.0,0.0,0.0,0.0,0.0,0.0,0.0,0.0,0.0,0.0,0.0,0.0,0.0,0.0,0.0,0.0,0.0,0.0,0.0,0.0,0.0,0.0,0.0,0.0,0.0,0.0,0.0,0.0,0.0,0.0,0.0,0.0,0.0,0.0,0.0,0.0,0.0,0.0,0.0,0.0,0.0,0.0,0.0,0.0,0.0,0.0,0.0,0.0,0.0,0.0,0.0,0.0,0.0,0.0,0.0,0.0,0.0,0.0,0.0,0.0,0.0,0.0,0.0,0.0,0.0,0.0,0.0,0.0,0.0,0.0,0.0,0.0,0.0,0.0,0.0,0.0,0.0,0.0,0.0,0.0,0.0,0.0,0.0,0.0,0.0,0.0,0.0,0.0,0.0,0.0,0.0,0.0,-2.1363,-2.0546,-1.9774,-1.9233,-1.775,-1.668,0.0,0.0,0.0,0.0,0.0,0.0,0.0,0.0,0.0,0.0,0.0,0.0,0.0,0.0,0.0,0.0,0.0,0.0,0.0,0.0,0.0,0.0,0.0,0.0,0.0,0.0,0.0,0.0,0.0,0.0,0.0,0.0,0.0,0.0,0.0,0.0,0.0,0.0,0.0,0.0,0.0,0.0,0.0,0.0,0.0,0.0,0.0,0.0,0.0,0.0,0.0,0.0,0.0,0.0,0.0,0.0,0.0,0.0,0.0,0.0,0.0,0.0,0.0,0.0,0.0,0.0,0.0,0.0,0.0,0.0,0.0,0.0,0.0,0.0,0.0,0.0,0.0,0.0,0.0,0.0,0.0,0.0,0.0,0.0,0.0,0.0,0.0,0.0,0.0,0.0,0.0,0.0,0.0,0.0,0.0,0.0,0.0,0.0,0.0,0.0,0.0,0.0,0.0,0.0,0.0,0.0,0.0,0.0,0.0,-2.0368,0.0,-1.9954,-1.8633,-1.7642,-1.659,0.0,0.0,0.0,0.0,0.0,0.0,0.0,0.0,0.0,0.0,0.0,0.0,0.0,0.0,0.0,0.0,0.0,0.0,0.0,0.0,0.0,0.0,0.0,0.0,0.0,0.0,0.0,0.0,0.0,0.0,0.0,0.0,0.0,0.0,0.0,0.0,0.0,0.0,0.0,0.0,0.0,0.0,0.0,0.0,0.0,0.0,0.0,0.0,0.0,0.0,0.0,0.0,0.0,0.0,0.0,0.0,0.0,0.0,0.0,0.0,0.0,0.0,0.0,0.0,0.0,0.0,0.0,0.0,0.0,0.0,0.0,0.0,0.0,0.0,0.0,0.0,0.0,0.0,0.0,0.0,0.0,0.0,0.0,0.0,0.0,0.0,0.0,0.0,0.0,0.0,0.0,0.0,0.0,0.0,0.0,0.0,0.0,0.0,0.0,0.0,0.0,0.0,0.0,0.0,0.0,0.0,0.0,0.0,-2.0381,-1.9954,-2.034,-1.9995,-1.8666,-1.8184,-1.6755,0.0,0.0,0.0,0.0,0.0,0.0,0.0,0.0,0.0,0.0,0.0,0.0,0.0,0.0,0.0,0.0,0.0,0.0,0.0,0.0,0.0,0.0,0.0,0.0,0.0,0.0,0.0,0.0,0.0,0.0,0.0,0.0,0.0,0.0,0.0,0.0,0.0,0.0,0.0,0.0,0.0,0.0,0.0,0.0,0.0,0.0,0.0,0.0,0.0,0.0,0.0,0.0,0.0,0.0,0.0,0.0,0.0,0.0,0.0,0.0,0.0,0.0,0.0,0.0,0.0,0.0,0.0,0.0,0.0,0.0,0.0,0.0,0.0,0.0,0.0,0.0,0.0,0.0,0.0,0.0,0.0,0.0,0.0,0.0,0.0,0.0,0.0,0.0,0.0,0.0,0.0,0.0,0.0,0.0,0.0,0.0,0.0,0.0,0.0,0.0,0.0,0.0,0.0,0.0,0.0,0.0,0.0,0.0,0.0,-1.9558,-2.0216,-2.0236,-1.9473,-1.7925,-1.6999,0.0,0.0,0.0,0.0,0.0,0.0,0.0,0.0,0.0,0.0,0.0,0.0,0.0,0.0,0.0,0.0,0.0,0.0,0.0,0.0,0.0,0.0,0.0,0.0,0.0,0.0,0.0,0.0,0.0,0.0,0.0,0.0,0.0,0.0,0.0,0.0,0.0,0.0,0.0,0.0,0.0,0.0,0.0,0.0,0.0,0.0,0.0,0.0,0.0,0.0,0.0,0.0,0.0,0.0,0.0,0.0,0.0,0.0,0.0,0.0,0.0,0.0,0.0,0.0,0.0,0.0,0.0,0.0,0.0,0.0,0.0,0.0,0.0,0.0,0.0,0.0,0.0,0.0,0.0,0.0,0.0,0.0,0.0,0.0,0.0,0.0,0.0,0.0,0.0,0.0,0.0,0.0,0.0,0.0,0.0,0.0,0.0,0.0,0.0,0.0,0.0,0.0,0.0,0.0,0.0,0.0,0.0,0.0,0.0,-1.9954,-2.0334,-2.0484,-2.0223,-1.8271,-1.7227,-1.7236,0.0,0.0,0.0,0.0,0.0,0.0,0.0,0.0,0.0,0.0,0.0,0.0,0.0,0.0,0.0,0.0,0.0,0.0,0.0,0.0,0.0,0.0,0.0,0.0,0.0,0.0,0.0,0.0,0.0,0.0,0.0,0.0,0.0,0.0,0.0,0.0,0.0,0.0,0.0,0.0,0.0,0.0,0.0,0.0,0.0,0.0,0.0,0.0,0.0,0.0,0.0,0.0,0.0,0.0,0.0,0.0,0.0,0.0,0.0,0.0,0.0,0.0,0.0,0.0,0.0,0.0,0.0,0.0,0.0,0.0,0.0,0.0,0.0,0.0,0.0,0.0,0.0,0.0,0.0,0.0,0.0,0.0,0.0,0.0,0.0,0.0,0.0,0.0,0.0,0.0,0.0,0.0,0.0,0.0,0.0,0.0,0.0,0.0,0.0,0.0,0.0,0.0,0.0,0.0,0.0,0.0,0.0,0.0,-2.1122,-2.0845,-2.0725,-2.0845,-1.9008,-1.7461,0.0,0.0,0.0,0.0,0.0,0.0,0.0,0.0,0.0,0.0,0.0,0.0,0.0,0.0,0.0,0.0,0.0,0.0,0.0,0.0,0.0,0.0,0.0,0.0,0.0,0.0,0.0,0.0,0.0,0.0,0.0,0.0,0.0,0.0,0.0,0.0,0.0,0.0,0.0,0.0,0.0,0.0,0.0,0.0,0.0,0.0,0.0,0.0,0.0,0.0,0.0,0.0,0.0,0.0,0.0,0.0,0.0,0.0,0.0,0.0,0.0,0.0,0.0,0.0,0.0,0.0,0.0,0.0,0.0,0.0,0.0,0.0,0.0,0.0,0.0,0.0,0.0,0.0,0.0,0.0,0.0,0.0,0.0,0.0,0.0,0.0,0.0,0.0,0.0,0.0,0.0,0.0,0.0,0.0,0.0,0.0,0.0,0.0,0.0,0.0,0.0,0.0,0.0,0.0,0.0,0.0,0.0,0.0,0.0,-2.4902,-2.2794,-2.1659,-2.1623,-1.9574,-1.8276,0.0,0.0,0.0,0.0,0.0,0.0,0.0,0.0,0.0,0.0,0.0,0.0,0.0,0.0,0.0,0.0,0.0,0.0,0.0,0.0,0.0,0.0,0.0,0.0,0.0,0.0,0.0,0.0,0.0,0.0,0.0,0.0,0.0,0.0,0.0,0.0,0.0,0.0,0.0,0.0,0.0,0.0,0.0,0.0,0.0,0.0,0.0,0.0,0.0,0.0,0.0,0.0,0.0,0.0,0.0,0.0,0.0,0.0,0.0,0.0,0.0,0.0,0.0,0.0,0.0,0.0,0.0,0.0,0.0,0.0,0.0,0.0,0.0,0.0,0.0,0.0,0.0,0.0,0.0,0.0,0.0,0.0,0.0,0.0,0.0,0.0,0.0,0.0,0.0,0.0,0.0,0.0,0.0,0.0,0.0,0.0,0.0,0.0,0.0,0.0,0.0,0.0,0.0,0.0,0.0,0.0,0.0,0.0,-2.4952,-2.5826,-2.377,-2.2616,-2.2627,-2.0366,-1.888,0.0,0.0,0.0,0.0,0.0,0.0,0.0,0.0,0.0,0.0,0.0,0.0,0.0,0.0,0.0,0.0,0.0,0.0,0.0,0.0,0.0,0.0,0.0,0.0,0.0,0.0,0.0,0.0,0.0,0.0,0.0,0.0,0.0,0.0,0.0,0.0,0.0,0.0,0.0,0.0,0.0,0.0,0.0,0.0,0.0,0.0,0.0,0.0,0.0,0.0,0.0,0.0,0.0,0.0,0.0,0.0,0.0,0.0,0.0,0.0,0.0,0.0,0.0,0.0,0.0,0.0,0.0,0.0,0.0,0.0,0.0,0.0,0.0,0.0,0.0,0.0,0.0,0.0,0.0,0.0,0.0,0.0,0.0,0.0,0.0,0.0,0.0,0.0,0.0,0.0,0.0,0.0,0.0,0.0,0.0,0.0,0.0,0.0,0.0,0.0,0.0,0.0,0.0,0.0,0.0,0.0,0.0,0.0,-2.5182,-2.5242,-2.4215,-2.3624,-2.343,-2.1263,-1.9445,0.0,0.0,0.0,0.0,0.0,0.0,0.0,0.0,0.0,0.0,0.0,0.0,0.0,0.0,0.0,0.0,0.0,0.0,0.0,0.0,0.0,0.0,0.0,0.0,0.0,0.0,0.0,0.0,0.0,0.0,0.0,0.0,0.0,0.0,0.0,0.0,0.0,0.0,0.0,0.0,0.0,0.0,0.0,0.0,0.0,0.0,0.0,0.0,0.0,0.0,0.0,0.0,0.0,0.0,0.0,0.0,0.0,0.0,0.0,0.0,0.0,0.0,0.0,0.0,0.0,0.0,0.0,0.0,0.0,0.0,0.0,0.0,0.0,0.0,0.0,0.0,0.0,0.0,0.0,0.0,0.0,0.0,0.0,0.0,0.0,0.0,0.0,0.0,0.0,0.0,0.0,0.0,0.0,0.0,0.0,0.0,0.0,0.0,0.0,0.0,0.0,0.0,0.0,0.0,0.0,0.0,0.0,0.0,-2.6375,-2.6797,-2.5433,-2.4301,-2.3514,-2.1929,-2.0246,0.0,0.0,0.0,0.0,0.0,0.0,0.0,0.0,0.0,0.0,0.0,0.0,0.0,0.0,0.0,0.0,0.0,0.0,0.0,0.0,0.0,0.0,0.0,0.0,0.0,0.0,0.0,0.0,0.0,0.0,0.0,0.0,0.0,0.0,0.0,0.0,0.0,0.0,0.0,0.0,0.0,0.0,0.0,0.0,0.0,0.0,0.0,0.0,-2.3351,0.0,0.0,0.0,0.0,0.0,0.0,0.0,0.0,0.0,0.0,0.0,0.0,0.0,0.0,0.0,0.0,0.0,0.0,0.0,0.0,0.0,0.0,0.0,0.0,0.0,0.0,0.0,0.0,0.0,0.0,0.0,0.0,0.0,0.0,0.0,0.0,0.0,0.0,0.0,0.0,0.0,0.0,0.0,0.0,0.0,0.0,0.0,0.0,0.0,0.0,0.0,0.0,0.0,0.0,0.0,0.0,0.0,0.0,0.0,-2.6625,-2.6914,-2.6138,-2.4992,-2.3562,-2.2977,-2.1403,0.0,0.0,0.0,0.0,0.0,0.0,0.0,0.0,0.0,0.0,0.0,0.0,0.0,0.0,0.0,0.0,0.0,0.0,0.0,0.0,0.0,0.0,0.0,0.0,0.0,0.0,0.0,0.0,0.0,0.0,0.0,0.0,0.0,0.0,0.0,0.0,0.0,0.0,0.0,0.0,0.0,0.0,0.0,0.0,0.0,0.0,0.0,0.0,0.0,0.0,0.0,0.0,0.0,0.0,0.0,0.0,0.0,0.0,0.0,0.0,0.0,0.0,0.0,0.0,0.0,0.0,0.0,0.0,0.0,0.0,0.0,0.0,0.0,0.0,0.0,0.0,0.0,0.0,0.0,0.0,0.0,0.0,0.0,0.0,0.0,0.0,0.0,0.0,0.0,0.0,0.0,0.0,0.0,0.0,0.0,0.0,0.0,0.0,0.0,0.0,0.0,0.0,0.0,0.0,0.0,0.0,0.0,-2.6537,-2.6487,-2.6487,-2.6487,-2.5534,-2.3599,-2.4052,-2.2607,-1.9082,0.0,0.0,0.0,0.0,0.0,0.0,0.0,0.0,0.0,0.0,0.0,0.0,0.0,0.0,0.0,0.0,0.0,0.0,0.0,0.0,0.0,0.0,0.0,0.0,0.0,0.0,0.0,0.0,0.0,0.0,0.0,0.0,0.0,0.0,0.0,0.0,0.0,0.0,-2.3037,-2.4757,0.0,0.0,0.0,0.0,0.0,0.0,0.0,0.0,-2.6235,0.0,0.0,0.0,0.0,0.0,0.0,0.0,0.0,0.0,0.0,0.0,0.0,0.0,0.0,0.0,0.0,0.0,0.0,0.0,0.0,0.0,0.0,0.0,0.0,0.0,0.0,0.0,0.0,0.0,0.0,0.0,0.0,0.0,0.0,0.0,0.0,0.0,0.0,0.0,0.0,0.0,0.0,0.0,0.0,0.0,0.0,0.0,0.0,0.0,0.0,0.0,0.0,0.0,0.0,0.0,0.0,-2.7165,-2.6738,-2.6487,-2.6487,-2.6487,-2.5534,-2.3635,-2.4381,-2.341,-2.0475,0.0,0.0,0.0,0.0,0.0,0.0,0.0,0.0,0.0,0.0,0.0,0.0,0.0,0.0,0.0,0.0,0.0,0.0,0.0,0.0,0.0,0.0,0.0,0.0,0.0,0.0,0.0,0.0,0.0,0.0,0.0,0.0,0.0,0.0,0.0,0.0,0.0,0.0,0.0,-2.718,-2.7896,0.0,0.0,0.0,0.0,0.0,0.0,0.0,0.0,-2.6587,0.0,0.0,0.0,0.0,0.0,0.0,0.0,0.0,0.0,0.0,0.0,0.0,0.0,0.0,0.0,0.0,0.0,0.0,0.0,0.0,0.0,0.0,0.0,0.0,0.0,0.0,0.0,0.0,0.0,0.0,0.0,0.0,0.0,0.0,0.0,0.0,0.0,0.0,0.0,0.0,0.0,0.0,0.0,0.0,0.0,0.0,0.0,0.0,0.0,0.0,0.0,0.0,0.0,0.0,0.0,-2.6839,-2.6625,-2.6487,-2.6487,-2.6487,-2.5791,-2.4325,-2.4671,-2.3991,0.0,0.0,0.0,0.0,0.0,0.0,0.0,0.0,0.0,0.0,0.0,0.0,0.0,0.0,0.0,0.0,0.0,0.0,0.0,0.0,0.0,0.0,0.0,0.0,0.0,0.0,0.0,0.0,0.0,0.0,0.0,0.0,0.0,0.0,0.0,0.0,0.0,0.0,0.0,0.0,-2.7758,-2.831,-2.8813,0.0,0.0,0.0,0.0,0.0,0.0,-2.7278,-2.7102,0.0,0.0,0.0,0.0,0.0,0.0,0.0,0.0,0.0,0.0,0.0,0.0,0.0,0.0,0.0,0.0,0.0,0.0,0.0,0.0,0.0,0.0,0.0,0.0,0.0,0.0,0.0,0.0,0.0,0.0,0.0,0.0,0.0,0.0,0.0,0.0,0.0,0.0,0.0,0.0,0.0,0.0,0.0,0.0,0.0,0.0,0.0,0.0,0.0,0.0,0.0,0.0,0.0,0.0,0.0,-2.6499,-2.6612,-2.66,-2.6499,-2.6487,-2.6074,-2.5183,-2.5159,-2.4553,0.0,0.0,0.0,0.0,0.0,0.0,0.0,0.0,0.0,0.0,0.0,0.0,0.0,0.0,0.0,0.0,0.0,0.0,0.0,0.0,0.0,0.0,0.0,0.0,0.0,0.0,0.0,0.0,0.0,0.0,0.0,0.0,0.0,0.0,0.0,0.0,0.0,0.0,0.0,0.0,0.0,-2.8925,-2.8888,-2.9176,0.0,0.0,0.0,0.0,-2.8222,-2.7996,0.0,0.0,0.0,0.0,0.0,0.0,0.0,0.0,0.0,0.0,0.0,0.0,0.0,0.0,0.0,0.0,0.0,0.0,0.0,0.0,0.0,0.0,0.0,0.0,0.0,0.0,0.0,0.0,0.0,0.0,0.0,0.0,0.0,0.0,0.0,0.0,0.0,0.0,0.0,0.0,0.0,0.0,0.0,0.0,0.0,0.0,0.0,0.0,0.0,0.0,0.0,0.0,0.0,0.0,0.0,0.0,-2.6537,-2.6989,-2.6989,-2.6512,-2.6487,-2.6247,-2.5744,-2.6107,-2.5267,0.0,0.0,0.0,0.0,0.0,0.0,0.0,0.0,0.0,0.0,0.0,0.0,0.0,0.0,0.0,0.0,0.0,0.0,0.0,0.0,0.0,0.0,0.0,0.0,0.0,0.0,0.0,0.0,0.0,0.0,0.0,0.0,0.0,0.0,0.0,0.0,0.0,0.0,0.0,0.0,0.0,-3.106,-2.9151,-3.0181,-3.0545,0.0,0.0,-2.934,-2.8875,-2.9202,0.0,0.0,0.0,0.0,0.0,0.0,0.0,0.0,0.0,0.0,0.0,0.0,0.0,0.0,0.0,0.0,0.0,0.0,0.0,0.0,0.0,0.0,0.0,0.0,0.0,0.0,0.0,0.0,0.0,0.0,0.0,0.0,0.0,0.0,0.0,0.0,0.0,0.0,0.0,0.0,0.0,0.0,0.0,0.0,0.0,0.0,0.0,0.0,0.0,0.0,0.0,0.0,0.0,0.0,0.0,-2.6738,-2.6512,-2.6725,-2.6738,-2.6524,-2.6801,-2.6691,-2.6205,-2.5844,-2.4903,0.0,0.0,0.0,0.0,0.0,0.0,0.0,0.0,0.0,0.0,0.0,0.0,0.0,0.0,0.0,0.0,0.0,0.0,0.0,0.0,0.0,0.0,0.0,0.0,0.0,0.0,0.0,0.0,0.0,0.0,0.0,0.0,0.0,0.0,0.0,0.0,0.0,0.0,0.0,0.0,0.0,0.0,-2.9541,-3.0306,0.0,0.0,0.0,-2.9704,-2.9465,0.0,0.0,0.0,0.0,0.0,0.0,0.0,0.0,0.0,0.0,0.0,0.0,0.0,0.0,0.0,0.0,0.0,0.0,0.0,0.0,0.0,0.0,0.0,0.0,0.0,0.0,0.0,0.0,0.0,0.0,0.0,0.0,0.0,0.0,0.0,0.0,0.0,0.0,0.0,0.0,0.0,0.0,0.0,0.0,0.0,0.0,0.0,0.0,0.0,0.0,0.0,0.0,0.0,0.0,0.0,0.0,0.0,-2.6666,-2.6323,-2.617,-2.634,-2.6588,-2.6494,-2.5965,-2.5336,0.0,0.0,0.0,0.0,0.0,0.0,0.0,0.0,0.0,0.0,0.0,0.0,0.0,0.0,0.0,0.0,0.0,0.0,0.0,0.0,0.0,0.0,0.0,0.0,0.0,0.0,0.0,-1.6418,0.0,0.0,0.0,0.0,0.0,0.0,0.0,0.0,0.0,0.0,0.0,0.0,0.0,0.0,-3.0256,-2.9854,-3.0495,-3.0809,0.0,0.0,-2.9993,-3.0005,-2.9993,-2.9616,0.0,0.0,0.0,0.0,0.0,0.0,0.0,0.0,0.0,0.0,0.0,0.0,0.0,0.0,0.0,0.0,0.0,0.0,0.0,0.0,0.0,0.0,0.0,0.0,0.0,0.0,0.0,0.0,0.0,0.0,0.0,0.0,0.0,0.0,0.0,0.0,0.0,0.0,0.0,0.0,0.0,0.0,0.0,0.0,0.0,0.0,0.0,0.0,0.0,0.0,0.0,0.0,0.0,0.0,-2.6203,-2.716,-2.5808,-2.537,-2.5803,-2.5385,-2.493,-2.4476,-2.4809,-2.395,0.0,0.0,0.0,0.0,0.0,0.0,0.0,0.0,0.0,0.0,0.0,0.0,0.0,0.0,0.0,0.0,0.0,0.0,0.0,0.0,0.0,0.0,0.0,0.0,0.0,0.0,0.0,0.0,0.0,0.0,0.0,0.0,0.0,0.0,0.0,0.0,0.0,0.0,0.0,0.0,0.0,-3.1499,-3.0005,-3.1122,-3.1913,0.0,-3.0871,-3.0557,-3.0557,-3.0557,-3.0129,-2.9013,0.0,0.0,0.0,0.0,0.0,0.0,0.0,0.0,0.0,0.0,0.0,0.0,0.0,0.0,0.0,0.0,0.0,0.0,0.0,0.0,0.0,0.0,0.0,0.0,0.0,0.0,0.0,0.0,0.0,0.0,0.0,0.0,0.0,0.0,0.0,0.0,0.0,0.0,0.0,0.0,0.0,0.0,0.0,0.0,0.0,0.0,0.0,0.0,0.0,0.0,0.0,0.0,0.0,-2.5457,-2.5862,-2.531,-2.5128,-2.5302,-2.5433,-2.5264,-2.4735,-2.4066,-2.2881,0.0,0.0,0.0,0.0,0.0,0.0,0.0,0.0,0.0,0.0,0.0,0.0,0.0,0.0,0.0,0.0,0.0,0.0,0.0,0.0,0.0,0.0,0.0,0.0,0.0,0.0,0.0,0.0,-1.696,-1.7009,-1.7779,0.0,0.0,0.0,0.0,0.0,0.0,0.0,0.0,0.0,0.0,-3.1009,-3.0394,-3.1399,0.0,0.0,-3.1725,-3.1486,-3.1148,-3.1097,-3.0608,-2.9126,-2.8888,0.0,0.0,0.0,0.0,0.0,0.0,0.0,0.0,0.0,0.0,0.0,0.0,0.0,0.0,0.0,0.0,0.0,0.0,0.0,0.0,0.0,0.0,0.0,0.0,0.0,0.0,0.0,0.0,0.0,0.0,0.0,0.0,0.0,0.0,0.0,0.0,0.0,0.0,0.0,0.0,0.0,0.0,0.0,0.0,0.0,0.0,0.0,0.0,0.0,0.0,0.0,0.0,-2.4754,-2.5242,-2.4338,-2.4008,-2.4386,-2.4547,-2.4342,-2.3706,-2.301,-2.1916,0.0,0.0,0.0,0.0,0.0,0.0,0.0,0.0,0.0,0.0,0.0,0.0,0.0,0.0,0.0,0.0,0.0,0.0,0.0,0.0,0.0,0.0,0.0,0.0,0.0,0.0,0.0,0.0,-1.7637,-1.7672,-1.8685,0.0,0.0,0.0,0.0,0.0,0.0,0.0,0.0,0.0,0.0,-3.0091,-3.0091,-3.1032,-3.18,-3.1938,-3.1687,-3.1411,-3.1198,-3.1148,-3.0708,-2.9402,0.0,0.0,0.0,0.0,0.0,0.0,0.0,0.0,0.0,0.0,0.0,0.0,0.0,0.0,0.0,0.0,0.0,0.0,0.0,0.0,0.0,0.0,0.0,0.0,0.0,0.0,0.0,-2.8122,0.0,0.0,-2.7281,0.0,0.0,0.0,0.0,0.0,0.0,0.0,0.0,0.0,0.0,0.0,0.0,0.0,0.0,0.0,0.0,0.0,0.0,0.0,0.0,0.0,0.0,-2.4132,-2.5669,-2.2833,-2.1878,-2.2893,-2.2393,-2.1718,-2.0867,-2.1576,-2.1192,-1.9416,0.0,0.0,0.0,0.0,0.0,0.0,0.0,0.0,0.0,0.0,0.0,0.0,0.0,0.0,0.0,0.0,0.0,0.0,0.0,0.0,0.0,0.0,0.0,0.0,0.0,0.0,-1.9756,-1.9082,-1.8715,0.0,0.0,0.0,0.0,0.0,0.0,0.0,0.0,0.0,-2.5721,-2.7545,-2.8921,-2.8951,-2.9901,-3.0881,-3.1373,-3.0583,-3.008,-3.062,-3.067,-3.0444,0.0,0.0,0.0,0.0,0.0,0.0,0.0,0.0,0.0,0.0,0.0,0.0,0.0,0.0,0.0,0.0,0.0,0.0,0.0,0.0,0.0,0.0,0.0,0.0,0.0,0.0,0.0,-2.993,-2.9214,0.0,0.0,0.0,0.0,0.0,0.0,0.0,0.0,0.0,0.0,0.0,-2.6348,-2.6785,0.0,0.0,0.0,0.0,0.0,0.0,0.0,0.0,0.0,0.0,0.0,0.0,-2.2692,-2.3181,-2.2268,-2.1935,-2.2307,-2.2122,-2.1849,-2.1555,-2.1221,-2.0526,-1.9353,0.0,0.0,0.0,0.0,0.0,0.0,0.0,0.0,0.0,0.0,0.0,0.0,0.0,0.0,0.0,0.0,0.0,0.0,0.0,0.0,0.0,0.0,0.0,0.0,0.0,-1.9639,0.0,0.0,0.0,0.0,0.0,0.0,0.0,0.0,0.0,0.0,-2.5029,-2.5764,-2.614,-2.716,-2.8083,-2.8786,-2.9875,-3.0922,0.0,0.0,0.0,0.0,0.0,0.0,0.0,0.0,0.0,0.0,0.0,0.0,0.0,0.0,-3.0555,-2.8913,-2.8197,-2.777,-2.7595,0.0,0.0,0.0,0.0,0.0,0.0,0.0,0.0,0.0,0.0,0.0,0.0,0.0,0.0,-3.0269,-2.9622,-2.8858,0.0,0.0,0.0,0.0,0.0,0.0,0.0,0.0,-2.6671,-2.6309,-2.6171,-2.6415,-2.6553,-2.6521,-2.5935,-2.5019,0.0,0.0,0.0,0.0,0.0,0.0,0.0,0.0,-2.2241,-2.223,-2.1907,-2.1724,-2.1714,-2.1599,-2.1517,-2.1527,-2.0746,-2.0106,-1.9521,-1.8909,-1.8471,0.0,0.0,0.0,0.0,0.0,0.0,0.0,0.0,0.0,0.0,0.0,0.0,0.0,0.0,0.0,0.0,0.0,0.0,0.0,0.0,0.0,0.0,0.0,-1.9746,0.0,0.0,0.0,0.0,0.0,0.0,0.0,0.0,0.0,-2.3513,-2.4252,-2.4933,-2.5498,-2.6052,-2.6812,-2.7773,0.0,0.0,0.0,0.0,0.0,0.0,0.0,-3.1612,-3.1424,-3.1273,-3.1223,-3.1361,-3.1851,-3.2152,-3.1964,0.0,0.0,-3.0018,-2.9314,-2.8925,-2.8725,-2.8699,-2.886,-2.9411,-2.9031,-2.8724,0.0,0.0,0.0,0.0,-3.1436,0.0,0.0,0.0,-3.0879,-3.0225,0.0,-2.8421,0.0,0.0,0.0,0.0,-2.7978,-2.6726,0.0,0.0,-2.5241,-2.4844,-2.4489,-2.4509,-2.4453,-2.4443,-2.446,-2.401,-2.3299,-2.3855,0.0,0.0,0.0,0.0,0.0,0.0,-2.2673,-2.2645,-2.17,-2.126,-2.124,-2.0879,-2.0654,-2.0664,-2.0195,-1.9923,-1.9893,-1.9075,-1.8627,-1.8617,-1.8578,0.0,0.0,0.0,0.0,0.0,0.0,0.0,0.0,0.0,0.0,0.0,0.0,0.0,0.0,0.0,0.0,0.0,0.0,0.0,0.0,-1.9894,0.0,0.0,0.0,0.0,0.0,0.0,0.0,0.0,0.0,-2.2539,-2.2591,-2.2924,-2.3257,-2.3746,0.0,0.0,0.0,0.0,-2.7046,-2.8569,-2.8834,-2.9268,-3.0325,-3.1322,-3.1826,-3.1379,0.0,0.0,-3.1512,-3.1863,-3.2039,-3.1486,-3.1009,-3.0771,-3.1235,-3.0809,-3.0331,-2.9842,-2.9716,-2.9767,-2.9741,-2.9328,-2.8938,-3.4389,0.0,0.0,0.0,0.0,-3.2591,-3.283,-3.3113,-3.2003,-3.1229,-3.0604,-2.8967,0.0,0.0,0.0,0.0,0.0,0.0,-2.5683,-2.5857,-2.5355,-2.5047,-2.4893,-2.5215,-2.5195,-2.4883,-2.457,-2.4141,-2.3619,-2.3183,-2.2859,-2.2564,0.0,0.0,0.0,0.0,-2.2129,-2.2129,-2.1863,-2.1699,-2.1699,-2.1572,-2.1357,-2.1045,-2.0878,-2.0518,-1.9904,-1.9394,-1.9102,-1.9092,-1.8516,0.0,0.0,0.0,0.0,0.0,0.0,0.0,0.0,0.0,0.0,0.0,0.0,0.0,0.0,0.0,0.0,0.0,0.0,0.0,-2.0781,-2.0293,-2.0244,0.0,0.0,0.0,0.0,0.0,0.0,0.0,0.0,0.0,-2.2916,-2.3013,-2.314,0.0,0.0,-2.4099,-2.5396,-2.5763,-2.6431,-2.7949,-2.8274,0.0,-2.8777,-2.8749,-2.9068,-3.0073,-3.1326,-3.2152,-3.2001,-3.2102,-3.2039,-3.1474,-3.0972,-3.0631,-3.0758,-3.0407,-3.0005,-2.9829,-2.9779,-2.9779,-2.9767,-2.9641,-2.9541,-3.5351,-3.4019,-3.2869,-3.239,-3.2366,-3.222,-3.2316,-3.2546,-3.1541,-3.0893,-3.039,-2.8732,-2.7798,-2.742,-2.6574,0.0,0.0,0.0,-2.5412,-2.5686,-2.5458,-2.5332,-2.5342,-2.543,-2.5332,-2.5086,-2.4453,-2.4033,-2.3789,-2.3096,-2.2637,-2.2373,0.0,-2.1936,-2.1936,-2.2051,-2.2139,-2.2139,-2.2139,-2.2139,-2.2129,-2.1797,-2.1504,-2.121,-2.1064,-2.0723,-2.0195,-1.9766,-1.9541,-1.9531,-1.8887,-1.8555,0.0,0.0,0.0,0.0,0.0,0.0,0.0,0.0,0.0,0.0,0.0,-1.9844,-1.9678,0.0,0.0,0.0,-1.9756,-2.0234,-2.0635,-2.0391,0.0,0.0,0.0,0.0,0.0,0.0,0.0,-2.3062,-2.3101,-2.3101,-2.3101,-2.3101,-2.3159,-2.3325,-2.3208,-2.357,-2.4814,0.0,-2.5168,-2.6704,-2.7042,-2.7248,-2.7691,-2.7698,-2.7989,-2.897,-2.9884,-3.0737,-3.1183,-3.1065,-3.0931,-3.0988,-3.0658,-3.0281,-3.0294,-3.0005,-2.9779,-2.9779,-2.9779,-2.9779,-2.9779,-2.9779,-2.9779,-3.5557,-3.4103,-3.2079,-3.1324,-3.1362,-3.1027,-3.0875,-3.076,-3.0186,-2.9748,-2.9408,-2.7987,-2.7486,-2.7676,-2.6516,0.0,-2.5962,-2.5388,-2.5125,-2.5184,-2.5508,-2.5635,-2.5615,-2.5215,-2.5047,-2.4988,-2.417,-2.3779,-2.3711,-2.3286,-2.3091,-2.3071,-2.2363,-2.1982,-2.2012,-2.2373,-2.2559,-2.2559,-2.2559,-2.2559,-2.2559,-2.1756,-2.1337,-2.1298,-2.0898,-2.0723,-2.0703,-2.0176,-1.9894,-1.9913,-1.9541,-1.9102,-1.8685,0.0,0.0,0.0,0.0,0.0,0.0,0.0,0.0,0.0,0.0,0.0,0.0,0.0,0.0,0.0,-1.9297,0.0,-2.0029,-2.0468,0.0,0.0,0.0,-2.2378,-2.225,-2.2674,-2.296,-2.295,0.0,0.0,-2.3101,-2.3101,-2.3247,-2.3682,-2.3389,-2.3393,-2.4258,-2.3652,-2.3622,-2.5119,-2.5328,-2.5764,-2.6603,-2.7232,-2.7629,-2.7805,-2.797,-2.85,-2.9341,-2.9219,-2.928,-2.9961,-2.9934,-2.9598,-2.9559,-2.9559,-2.9753,-2.9611,-2.9702,-2.9779,-2.9779,-2.9779,-2.9779,-3.3729,-3.3218,-3.1287,-3.1314,-3.257,-3.2498,-3.223,-3.18,-3.0342,-2.9688,-2.9522,-2.7521,-2.6338,-2.5742,-2.5106,-2.5007,-2.5334,-2.5161,-2.5254,-2.5508,-2.5332,-2.5234,-2.5205,-2.4775,-2.4394,-2.4092,-2.3887,-2.3623,-2.3301,-2.3149,-2.3101,-2.3081,-2.2896,-2.2789,-2.2799,-2.2896,-2.2945,-2.2945,-2.2945,-2.2935,-2.2945,-2.275,-2.2487,-2.2175,-2.1797,-2.1572,-2.1553,-2.0498,-2.0059,-2.041,-1.9697,-1.9248,-1.9131,-1.8783,0.0,0.0,0.0,0.0,0.0,0.0,0.0,0.0,0.0,-2.042,-1.9402,0.0,-2.0177,0.0,-1.9385,-2.0215,-2.1309,-2.1504,0.0,0.0,-2.1445,-2.1211,-2.0319,-2.1114,-2.1747,-2.1712,-2.2536,-2.3101,-2.3101,-2.3101,-2.313,-2.3227,-2.3169,-2.333,-2.3838,-2.3452,-2.3335,-2.3999,-2.3929,-2.3797,-2.4189,-2.4964,-2.5776,-2.6108,-2.6897,-2.7592,-2.7858,-2.7797,-2.7634,-2.7579,-2.8082,-2.8119,-2.7504,-2.8593,-2.9326,-2.8806,-2.9197,-2.9779,-2.9779,-2.9779,-2.9779,-3.2747,-3.2015,-3.0942,-3.0928,-3.1454,-3.1254,-3.0947,-3.0452,-2.9507,-2.9094,-2.8991,-2.7388,-2.6182,-2.5371,-2.5117,-2.5137,-2.5361,-2.5361,-2.5498,-2.5664,-2.5273,-2.5059,-2.5086,-2.4434,-2.4014,-2.3789,-2.3594,-2.3379,-2.311,-2.3101,-2.3101,-2.3101,-2.3101,-2.3101,-2.3101,-2.3101,-2.3101,-2.3101,-2.3101,-2.3101,-2.3091,-2.2906,-2.2754,-2.251,-2.2109,-2.1787,-2.1602,-2.0889,-2.0518,-2.0586,-2.0145,-1.9775,-1.957,-1.9336,-1.9131,0.0,0.0,0.0,0.0,0.0,0.0,0.0,0.0,0.0,0.0,0.0,-1.942,-1.8826,-1.9222,-2.0212,-2.1999,-2.1677,-2.1351,-2.1318,-2.08,-2.0215,-1.9588,-2.0079,-2.0486,-2.0531,-2.1078,-2.1489,-2.1498,-2.1996,-2.2306,-2.2306,-2.2775,-2.3179,-2.3418,-2.3247,-2.3179,-2.3403,-2.3247,-2.3101,-2.3101,-2.3637,-2.412,-2.4485,-2.5013,-2.5562,-2.6074,-2.619,-2.6229,-2.6456,-2.7005,-2.7209,-2.6678,-2.7435,-2.8091,-2.7747,-2.8279,-2.9157,-2.9702,-2.9779,-2.9779,-3.2025,-3.0898,-3.0898,-3.0381,-2.9597,-2.916,-2.874,-2.8291,-2.8232,-2.8154,-2.8008,-2.7256,-2.6494,-2.5693,-2.5684,-2.5684,-2.5684,-2.5684,-2.5684,-2.5654,-2.5273,-2.5086,-2.4941,-2.417,-2.376,-2.3691,-2.3276,-2.3101,-2.3101,-2.3101,-2.3101,-2.3101,-2.3101,-2.3101,-2.3101,-2.3101,-2.3101,-2.3101,-2.3101,-2.3101,-2.3091,-2.274,-2.2588,-2.2578,-2.2139,-2.1738,-2.1375,-2.1249,-2.1084,-2.0801,-2.0772,-2.0576,-2.0069,-2.0029,-1.9805,0.0,-1.9316,0.0,0.0,0.0,0.0,0.0,0.0,0.0,0.0,-1.8193,-1.7914,-1.8767,-1.8883,-1.9738,-2.1797,-2.1089,-2.0615,-2.0801,-1.9898,-1.9231,-1.9031,-1.9177,-1.9268,-1.9268,-1.9405,-1.9497,-1.9633,-2.044,-2.1069,-2.1159,-2.2076,-2.2731,-2.2872,-2.2969,-2.3101,-2.3101,-2.3101,-2.3101,-2.3101,-2.3135,-2.3178,-2.3144,-2.3295,-2.343,-2.4445,-2.4606,-2.4893,-2.5766,-2.6099,-2.6182,-2.6099,-2.6265,-2.6472,-2.6348,-2.7157,-2.8227,-2.9236,-2.9702,-2.9779,-3.117,-3.0889,-3.0898,-3.0381,-2.9626,-2.9538,-2.9004,-2.8271,-2.7939,-2.7444,-2.6748,-2.6582,-2.623,-2.5703,-2.5684,-2.5684,-2.5684,-2.5684,-2.5684,-2.5723,-2.5273,-2.492,-2.4521,-2.4023,-2.3603,-2.3227,-2.313,-2.3101,-2.3101,-2.3101,-2.3101,-2.3101,-2.3101,-2.3101,-2.3101,0.0,0.0,0.0,-2.3101,-2.3101,-2.3101,-2.3023,-2.2984,-2.2964,-2.2275,0.0,-2.2236,-2.157,-2.1327,-2.1621,-2.1672,0.0,0.0,0.0,0.0,0.0,0.0,0.0,0.0,0.0,0.0,0.0,-1.8539,-1.8,-1.8404,-1.7497,-1.7225,-1.7962,-1.8339,-1.8684,-1.9144,-1.954,-1.9369,-1.8488,-1.818,-1.763,-1.6702,-1.7397,-1.8056,-1.8048,-1.8864,-1.9497,-1.9405,-1.9716,-1.9852,-1.9898,-2.089,-2.1578,-2.1658,-2.2448,-2.3091,-2.3101,-2.3101,-2.3101,-2.3101,-2.3101,-2.3101,-2.3101,-2.3101,-2.3178,-2.342,-2.3464,-2.3474,-2.3854,-2.452,-2.4798,-2.4016,-2.5189,-2.6099,-2.5294,-2.6005,-2.7128,-2.8227,-2.9145,-2.9779,-3.0898,-3.0898,-3.0898,-3.0371,0.0,-2.958,-2.9082,-2.8281,-2.8076,-2.75,-2.6689,-2.6484,-2.6152,-2.5684,-2.5684,-2.5684,-2.5684,-2.5684,-2.5615,-2.5381,-2.4951,-2.4521,-2.4092,-2.3662,-2.3315,-2.3101,-2.3101,-2.3101,-2.3101,-2.3101,-2.3101,-2.3101,-2.3101,-2.3101,-2.3101,-2.3101,-2.3101,-2.3101,-2.3101,-2.3101,-2.3101,-2.3101,-2.3101,-2.3081,-2.2725,0.0,0.0,0.0,0.0,0.0,0.0,0.0,0.0,-2.1025,0.0,-1.9835,-2.0043,-1.986,-1.897,-1.9039,-1.8993,-1.8611,-1.7456,-1.6778,-1.6998,-1.6644,-1.6633,-1.7235,-1.7597,-1.8129,-1.8855,-1.8747,-1.8365,-1.7731,-1.7131,-1.648,-1.5967,-1.6339,-1.6756,-1.6803,-1.7304,-1.7662,-1.7662,-1.8265,-1.8596,-1.868,-1.967,-2.0395,-2.0576,-2.1943,-2.3101,-2.3101,-2.3101,-2.3101,-2.3101,-2.3101,-2.3101,-2.3101,-2.3101,-2.3101,-2.3101,-2.3101,-2.3101,-2.3135,-2.3594,-2.3714,-2.3343,-2.4102,-2.4648,-2.4221,-2.4882,-2.5755,-2.6438,-2.7763,-2.8779,-3.0898,-3.0879,-3.0801,-3.0312,-2.9626,-2.9482,-2.9004,-2.8281,-2.8213,0.0,0.0,-2.6602,-2.6191,-2.5859,-2.5723,-2.5684,-2.5684,-2.5684,-2.5547,-2.5223,-2.4814,-2.4385,-2.3887,-2.3491,-2.3237,-2.3101,-2.3101,-2.3101,-2.3101,-2.3101,-2.3101,-2.3101,-2.3101,-2.3101,-2.3101,-2.3101,-2.3101,-2.3101,-2.3101,-2.3101,-2.3101,-2.3101,-2.3101,-2.3101,-2.3023,-2.2828,-2.2529,-2.251,-2.2146,-2.1473,-2.1875,-2.1875,-2.1346,-2.1307,-2.0766,-1.9656,-2.0332,-1.9946,-1.7971,-1.8735,-1.8693,-1.7323,-1.6413,-1.5933,-1.5923,-1.5939,-1.6067,-1.6522,-1.6742,-1.7409,-1.8645,-1.7918,-1.7358,-1.7365,-1.6433,-1.5825,-1.5825,-1.5825,-1.5872,-1.5825,-1.592,-1.5825,-1.592,-1.6756,-1.7365,-1.7498,-1.8403,-1.9314,-1.9724,-2.1355,-2.2677,-2.2677,-2.2862,-2.3101,-2.3101,-2.3101,-2.3101,-2.3101,-2.3101,-2.3101,-2.3101,-2.3101,-2.3101,-2.3101,-2.3101,-2.3135,-2.3091,-2.3222,-2.3101,-2.3101,-2.3844,-2.45,-2.466,-2.6066,-2.7238,-3.0898,-3.0859,-3.0459,-3.001,-2.9597,-2.916,-2.874,-2.8271,-2.791,-2.7738,-2.7571,-2.6728,-2.6357,-2.6279,-2.5859,-2.5684,-2.5684,-2.5684,-2.5654,-2.5596,-2.5528,-2.507,-2.4346,-2.4258,-2.3812,-2.314,-2.3101,-2.3101,-2.3101,-2.3101,-2.3101,-2.3101,-2.3101,-2.3101,-2.3101,-2.3101,-2.3101,-2.3101,-2.3101,-2.3101,-2.3101,-2.3101,-2.3101,-2.3081,-2.275,-2.2578,-2.251,-2.2519,-2.2451,-2.2311,-2.2691,-2.2565,-2.1855,-2.1768,-2.0998,-1.9279,-1.9246,-1.886,-1.7862,-1.7077,-1.6149,-1.513,-1.5096,-1.5627,-1.6661,-1.5796,-1.5286,-1.5565,-1.5679,-1.572,-1.5959,-1.61,-1.615,-1.6109,-1.592,-1.5825,-1.5825,-1.5825,-1.5825,-1.5825,-1.5825,-1.5825,-1.5825,-1.6015,-1.6197,-1.6292,-1.7217,-1.828,-1.9214,-2.0666,-2.148,-2.1712,-2.2448,-2.3003,-2.3101,-2.3101,-2.3101,-2.3101,-2.3101,-2.3101,-2.3101,-2.3101,-2.3101,-2.3101,-2.3101,-2.3101,-2.3101,-2.3101,-2.3101,-2.3101,-2.3343,-2.3474,-2.3507,-2.4542,-2.5535,-3.0898,-3.084,-3.0391,-2.9951,-2.9577,-2.8867,-2.8476,-2.8281,-2.8096,-2.7924,-2.766,-2.7002,-2.6602,-2.6377,-2.6182,-2.5957,-2.5684,-2.5684,-2.5605,-2.5381,-2.5371,-2.5029,-2.4443,-2.418,-2.3877,-2.3496,-2.3208,-2.3101,-2.3101,-2.3101,-2.3101,-2.3101,-2.3101,-2.3101,-2.3101,-2.3101,-2.3101,-2.3101,-2.3101,-2.3101,-2.3101,-2.3101,-2.3101,-2.3101,-2.2906,-2.2808,-2.2808,-2.2852,-2.2646,-2.2187,-2.2353,-2.2178,-2.1531,-2.0764,-1.9769,-1.8551,-1.846,-1.7747,-1.6119,-1.5526,-1.5092,-1.4787,-1.4736,-1.5133,-1.6025,-1.5434,-1.5062,-1.5209,-1.5431,-1.5631,-1.5631,-1.5752,-1.5825,-1.5825,-1.5825,-1.5825,-1.5825,-1.5825,-1.5825,-1.5825,-1.5825,-1.5825,-1.5825,-1.5825,-1.5825,-1.5872,-1.6386,-1.6936,-1.7483,-1.858,-1.9852,-2.1025,-2.1747,-2.2394,-2.2916,-2.3101,-2.3101,-2.3101,-2.3101,-2.3101,-2.3101,-2.3101,-2.3101,-2.3101,-2.3101,-2.3101,-2.3101,-2.3101,-2.3101,-2.3101,-2.3101,-2.3101,-2.3178,-2.3551,-2.4467,-3.0898,-3.085,-3.0391,-2.9902,-2.9365,-2.8623,-2.8301,-2.8301,-2.8291,-2.8115,-2.7826,-2.7353,-2.6875,-2.6406,-2.6387,-2.6143,-2.5723,-2.5684,-2.5547,-2.5244,-2.5225,-2.499,-2.4551,-2.4131,-2.3887,-2.375,-2.335,-2.3101,-2.3101,-2.3101,-2.3101,-2.3101,-2.3101,-2.3101,-2.3101,-2.3101,-2.3101,-2.3101,-2.3101,-2.3101,-2.3101,-2.3101,-2.3101,-2.3101,-2.3091,-2.3101,-2.3091,-2.3003,-2.2652,-2.208,-2.1934,-2.1557,-2.0878,-1.9756,-1.8658,-1.7655,-1.7464,-1.663,-1.477,-1.4583,-1.4689,-1.4881,-1.4656,-1.4683,-1.503,-1.5075,-1.5075,-1.5184,-1.5578,-1.5818,-1.5812,-1.5778,-1.5825,-1.5825,-1.5825,-1.5825,-1.5825,-1.5825,-1.5825,-1.5825,-1.5825,-1.5825,-1.5825,-1.5825,-1.5825,-1.5825,-1.5825,-1.5825,-1.592,-1.6716,-1.8133,-1.9807,-2.0711,-2.1168,-2.2183,-2.2501,-2.2589,-2.2677,-2.295,-2.3047,-2.3101,-2.3101,-2.3101,-2.3101,-2.3101,-2.3101,-2.3101,-2.3101,-2.3101,-2.3101,-2.3101,-2.3101,-2.3101,-2.3135,-2.3604,-3.0898,-3.082,-3.0371,-2.9726,-2.8955,-2.8486,-2.8301,-2.8301,-2.8301,-2.8281,-2.8144,-2.7845,-2.7168,-2.6455,-2.6406,-2.6172,-2.5713,-2.5684,-2.5664,-2.5615,-2.5625,-2.5439,-2.499,-2.4551,-2.416,-2.3789,-2.3359,-2.3101,-2.3101,-2.3101,-2.3101,-2.3101,-2.3101,-2.3101,-2.3101,-2.3101,-2.3101,-2.3101,-2.3101,-2.3101,-2.3101,-2.3101,-2.3101,-2.3101,-2.3101,-2.3101,-2.3062,-2.273,-2.2539,-2.2441,-2.207,-2.125,-1.9966,-1.958,-1.8463,-1.6185,-1.5914,-1.5464,-1.4619,-1.4814,-1.4841,-1.4589,-1.4529,-1.4436,-1.4309,-1.4689,-1.519,-1.5585,-1.5772,-1.5825,-1.5825,-1.5825,-1.5825,-1.5825,-1.5825,-1.5825,-1.5825,-1.5825,-1.5825,-1.5825,-1.5825,-1.5825,-1.5825,-1.5825,-1.5825,-1.5825,-1.5825,-1.5825,-1.5825,-1.5967,-1.6527,-1.7902,-1.891,-1.9633,-2.0087,-2.0809,-2.1436,-2.1569,-2.2403,-2.2862,-2.3003,-2.3101,-2.3101,-2.3101,-2.3101,-2.3101,-2.3101,-2.3101,-2.3101,-2.3101,-2.3101,-2.3101,-2.3101,-2.3101,-2.3396,-3.0898,-3.082,-3.0127,-2.9336,-2.8564,-2.8359,-2.8301,-2.8301,-2.8301,-2.8154,-2.7949,-2.7998,-2.7705,-2.7139,-2.6885,-2.6533,-2.6113,-2.581,-2.5684,-2.5684,-2.5684,-2.5635,-2.541,-2.4736,-2.4316,-2.4102,-2.3422,-2.3101,-2.3101,-2.3101,-2.3101,-2.3101,-2.3101,-2.3101,-2.3101,-2.3101,-2.3101,-2.3101,-2.3101,-2.3101,-2.3101,-2.3101,-2.3101,-2.3101,-2.3101,-2.2964,-2.275,-2.2545,-2.2402,-2.2148,-2.1738,-2.091,-1.9675,-1.8749,-1.7491,-1.5827,-1.5095,-1.4586,-1.4298,-1.4376,-1.4389,-1.4269,-1.4262,-1.4275,-1.4349,-1.4576,-1.4943,-1.5478,-1.5725,-1.5825,-1.5818,-1.5825,-1.5825,-1.5825,-1.5825,-1.5825,-1.5825,-1.5825,-1.5825,-1.5825,-1.5825,-1.5825,-1.5825,-1.5825,-1.5825,-1.5825,-1.5825,-1.5825,-1.5825,-1.5825,-1.6015,-1.648,-1.703,-1.7933,-1.9077,-1.9852,-2.0486,-2.1159,-2.1658,-2.212,-2.2906,-2.3091,-2.3101,-2.3101,-2.3101,-2.3101,-2.3101,-2.3101,-2.3101,-2.3101,-2.3101,-2.3101,-2.3101,-2.3101,-2.3101,-3.0703,-3.0566,-2.9756,-2.9033,-2.8467,-2.833,-2.8301,-2.8301,-2.8301,-2.8115,-2.7891,-2.8164,-2.8135,-2.7793,-2.7266,-2.6787,-2.6377,-2.5879,-2.5684,-2.5684,-2.5684,-2.5684,-2.5606,-2.4971,-2.4531,-2.4316,-2.3637,-2.3218,-2.312,-2.3101,-2.3101,-2.3101,-2.3101,-2.3101,-2.3101,-2.3101,-2.3101,-2.3101,-2.3101,-2.3101,-2.3101,-2.3101,-2.3101,-2.3101,-2.3101,-2.2955,-2.2662,-2.226,-2.183,-2.1451,-2.0702,-1.9752,-1.8588,-1.7474,-1.6404,-1.5379,-1.4573,-1.4088,-1.4088,-1.4088,-1.4088,-1.4088,-1.4088,-1.4175,-1.4362,-1.4476,-1.4659,-1.5084,-1.5424,-1.5598,-1.5712,-1.5785,-1.5798,-1.5732,-1.5718,-1.5778,-1.5825,-1.5825,-1.5825,-1.5825,-1.5825,-1.5825,-1.5825,-1.5825,-1.5825,-1.5825,-1.5825,-1.5825,-1.5825,-1.5825,-1.5825,-1.5825,-1.5825,-1.652,-1.8172,-1.881,-1.9397,-1.9988,-2.044,-2.1212,-2.2315,-2.2545,-2.296,-2.2862,-2.3003,-2.3101,-2.3101,-2.3101,-2.3101,-2.3101,-2.3101,-2.3101,-2.3101,-2.3101,-2.3101,-3.0225,-3.0098,-2.9307,-2.8926,-2.8848,-2.8457,-2.8301,-2.8301,-2.8301,-2.8271,-2.8232,-2.8271,-2.8281,-2.8174,-2.7383,-2.6787,-2.6387,-2.5898,-2.5684,-2.5684,-2.5684,-2.5684,-2.5654,-2.5254,-2.4814,-2.4404,-2.3935,-2.3516,-2.312,-2.3101,-2.3101,-2.3101,-2.3101,-2.3101,-2.3101,-2.3101,-2.3101,-2.3101,-2.3101,-2.3101,-2.3101,-2.3101,-2.3091,-2.3003,-2.3047,-2.2974,-2.28,-2.1578,-2.0612,-2.0265,-1.8918,-1.7439,-1.6102,-1.5835,-1.5296,-1.437,-1.4173,-1.4088,-1.4088,-1.4088,-1.4088,-1.4088,-1.4088,-1.4095,-1.4155,-1.4349,-1.4536,-1.4596,-1.4923,-1.5164,-1.5424,-1.5651,-1.5698,-1.5524,-1.5685,-1.5805,-1.5825,-1.5825,-1.5825,-1.5825,-1.5825,-1.5825,-1.5825,-1.5825,-1.5825,-1.5825,-1.5825,-1.5825,-1.5825,-1.5825,-1.5825,-1.5825,-1.5825,-1.5872,-1.615,-1.707,-1.7723,-1.8411,-1.936,-1.9988,-2.0773,-2.1507,-2.2041,-2.2589,-2.2731,-2.2862,-2.3003,-2.3101,-2.3101,-2.3101,-2.3101,-2.3101,-2.3101,-2.3101,-2.3101,-2.9863,-2.9365,-2.9053,-2.8769,-2.8506,-2.8359,-2.8301,-2.8301,-2.8301,-2.8301,-2.8301,-2.8301,-2.8301,-2.8252,-2.7402,-2.6934,-2.6728,-2.6015,-2.5684,-2.5684,-2.5684,-2.5684,-2.5635,-2.5273,-2.4844,-2.4414,-2.3984,-2.3564,-2.314,-2.3101,-2.3101,-2.3101,-2.3101,-2.3101,-2.3101,-2.3101,-2.3101,-2.3101,-2.3101,-2.3101,-2.3101,-2.3101,-2.2775,-2.1987,-2.1943,-2.1813,-2.1571,-2.0211,-1.9348,-1.9067,-1.8237,-1.7277,-1.6129,-1.5161,-1.4531,-1.4173,-1.4088,-1.4088,-1.4088,-1.4088,-1.4088,-1.4088,-1.4088,-1.4088,-1.4102,-1.4195,-1.4389,-1.4716,-1.4877,-1.5135,-1.5331,-1.5498,-1.5591,-1.5678,-1.5758,-1.5825,-1.5825,-1.5825,-1.5825,-1.5825,-1.5825,-1.5825,-1.5825,-1.5825,-1.5825,-1.5825,-1.5825,-1.5825,-1.5825,-1.5825,-1.5825,-1.5825,-1.5825,-1.5825,-1.5825,-1.6109,-1.6662,-1.7498,-1.8272,-1.8956,-1.9679,-2.0096,-2.0584,-2.1534,-2.1943,-2.2183,-2.2271,-2.2555,-2.2643,-2.2916,-2.296,-2.2862,-2.3101,-2.3101,-2.3101,-2.9492,-2.8779,-2.8721,-2.8555,-2.831,-2.8301,-2.8301,-2.8301,-2.8301,-2.8301,-2.8301,-2.8301,-2.8301,-2.8154,-2.7402,-2.7109,-2.709,-2.6161,-2.5684,-2.5684,-2.5684,-2.5684,-2.5635,-2.542,-2.5049,-2.4619,-2.4189,-2.3828,-2.352,-2.3418,-2.3383,-2.351,-2.3257,-2.3179,-2.3266,-2.3169,-2.3101,-2.3101,-2.3101,-2.3101,-2.3101,-2.3101,-2.2731,-2.1898,-2.1168,-2.0597,-2.0298,-1.9125,-1.8292,-1.7986,-1.7314,-1.6478,-1.5581,-1.4641,-1.4088,-1.4088,-1.4088,-1.4088,-1.4088,-1.4088,-1.4088,-1.4088,-1.4088,-1.4088,-1.4088,-1.4088,-1.4338,-1.4633,-1.4827,-1.4937,-1.5197,-1.5337,-1.5478,-1.5671,-1.5772,-1.5825,-1.5825,-1.5825,-1.5825,-1.5825,-1.5825,-1.5825,-1.5825,-1.5825,-1.5825,-1.5825,-1.5825,-1.5825,-1.5825,-1.5825,-1.5825,-1.5825,-1.5825,-1.5825,-1.5825,-1.5967,-1.6062,-1.6756,-1.7084,-1.7809,-1.8449,-1.8772,-1.9314,-2.0305,-2.0935,-2.1212,-2.1543,-2.1863,-2.2183,-2.2457,-2.2448,-2.2262,-2.2677,-2.3101,-2.3101,-2.9082,-2.8369,-2.8301,-2.832,-2.8301,-2.8301,-2.8301,-2.8301,-2.8301,-2.8301,-2.8301,-2.8301,-2.8301,-2.8125,-2.7461,-2.7256,-2.7285,-2.6328,-2.5801,-2.5752,-2.5703,-2.5684,-2.5674,-2.5635,-2.543,-2.499,-2.46,-2.4394,-2.4297,-2.3975,-2.3965,-2.4114,-2.35,-2.3389,-2.3769,-2.3359,-2.3101,-2.3101,-2.3101,-2.3101,-2.3101,-2.3101,-2.2916,-2.2545,-2.0719,-1.9534,-1.9372,-1.8241,-1.7482,-1.7056,-1.5894,-1.4777,-1.4419,-1.4151,-1.4088,-1.4088,-1.4088,-1.4088,-1.4088,-1.4088,-1.4088,-1.4095,-1.4102,-1.4135,-1.4148,-1.4168,-1.4229,-1.4369,-1.4529,-1.4736,-1.5044,-1.5297,-1.5451,-1.5444,-1.5644,-1.5818,-1.5825,-1.5825,-1.5825,-1.5825,-1.5825,-1.5825,-1.5825,-1.5825,-1.5825,-1.5825,-1.5825,-1.5825,-1.5825,-1.5825,-1.5825,-1.5825,-1.5825,-1.5825,-1.5825,-1.5825,-1.5825,-1.592,-1.6109,-1.6527,-1.7217,-1.7677,-1.8226,-1.9123,-1.9935,-2.026,-2.0359,-2.0683,-2.0809,-2.1033,-2.1257,-2.1712,-2.2217,-2.2677,-2.3047,-2.8789,-2.832,-2.8301,-2.8301,-2.8301,-2.8301,-2.8301,-2.8301,-2.8301,-2.8301,-2.8301,-2.8301,-2.8301,-2.8174,-2.7695,-2.7373,-2.7158,-2.6494,-2.6182,-2.6133,-2.5869,-2.5684,-2.5684,-2.5684,-2.5498,-2.5059,-2.4629,-2.4424,-2.4414,-2.4287,-2.4307,-2.4231,-2.3877,-2.3672,-2.3789,-2.3325,-2.3101,-2.3101,-2.3101,-2.3101,-2.3101,-2.3091,-2.2315,-2.0719,-1.9852,-1.8764,-1.707,-1.6567,-1.6234,-1.5996,-1.5526,-1.4997,-1.4482,-1.4202,-1.4095,-1.4088,-1.4088,-1.4088,-1.4088,-1.4095,-1.4108,-1.4128,-1.4269,-1.4376,-1.4416,-1.4563,-1.4794,-1.4917,-1.5077,-1.5244,-1.5504,-1.5631,-1.5678,-1.5698,-1.5731,-1.5825,-1.5825,-1.5825,-1.5825,-1.5825,-1.5825,-1.5825,-1.5825,-1.5825,-1.5825,-1.5825,-1.5825,-1.5825,-1.5825,-1.5825,-1.5825,-1.5825,-1.5825,-1.5825,-1.5825,-1.5825,-1.5825,-1.5825,-1.5832,-1.5832,-1.6386,-1.6756,-1.7304,-1.7855,-1.8672,-1.9077,-1.9222,-1.9314,-1.9397,-1.9988,-2.0531,-2.1123,-2.1756,-2.2208,-2.2589,-2.8672,-2.831,-2.8301,-2.8301,-2.8301,-2.8301,-2.8301,-2.8301,-2.8301,-2.8301,-2.8301,-2.8301,-2.8301,-2.8203,-2.7851,-2.7581,-2.7207,-2.667,-2.6387,-2.6318,-2.5947,-2.5693,-2.5684,-2.5684,-2.5615,-2.5332,-2.5039,-2.4865,-2.4845,-2.4746,-2.4736,-2.4805,-2.4316,-2.4121,-2.417,-2.3637,-2.3202,-2.2774,-2.2498,-2.2208,-2.1854,-2.1774,-2.1042,-1.967,-1.9085,-1.8033,-1.6574,-1.6062,-1.5745,-1.5551,-1.5364,-1.5003,-1.4549,-1.4255,-1.4128,-1.4229,-1.4255,-1.4255,-1.4255,-1.4376,-1.4355,-1.4329,-1.4516,-1.4676,-1.4716,-1.4883,-1.5102,-1.5197,-1.5317,-1.5471,-1.5625,-1.5778,-1.5818,-1.5825,-1.5825,-1.5825,-1.5825,-1.5825,-1.5825,-1.5825,-1.5825,-1.5825,-1.5825,-1.5825,-1.5825,-1.5825,-1.5825,-1.5825,-1.5825,-1.5825,-1.5825,-1.5825,-1.5825,-1.5825,-1.5825,-1.5825,-1.5825,-1.5825,-1.5825,-1.5825,-1.6062,-1.6103,-1.6426,-1.6709,-1.7343,-1.739,-1.7483,-1.7662,-1.7848,-1.8756,-1.9579,-1.9898,-2.035,-2.1569,-2.2076,-2.8643,-2.831,-2.8301,-2.8301,-2.8301,-2.8301,-2.8301,-2.8301,-2.8301,-2.8301,-2.8301,-2.8301,-2.8301,-2.8203,-2.792,-2.7715,-2.7571,-2.6846,-2.6435,-2.6289,-2.5957,-2.5684,-2.5684,-2.5684,-2.5654,-2.5625,-2.5606,-2.5606,-2.5508,-2.5273,-2.5312,-2.546,-2.4853,-2.4629,-2.4717,-2.4163,-2.3045,-2.219,-2.1545,-2.0719,-1.9807,-1.9679,-1.9488,-1.9268,-1.8365,-1.7645,-1.7131,-1.6292,-1.5825,-1.5704,-1.5324,-1.495,-1.4609,-1.4295,-1.4309,-1.4529,-1.4543,-1.4543,-1.4596,-1.4774,-1.479,-1.4596,-1.481,-1.5035,-1.4997,-1.507,-1.5182,-1.5177,-1.5337,-1.5458,-1.5531,-1.5678,-1.5812,-1.5825,-1.5825,-1.5825,-1.5825,-1.5825,-1.5825,-1.5825,-1.5825,-1.5825,-1.5825,-1.5825,-1.5825,-1.5825,-1.5825,-1.5825,-1.5825,-1.5825,-1.5825,-1.5825,-1.5825,-1.5825,-1.5825,-1.5825,-1.5825,-1.5825,-1.5825,-1.5825,-1.5825,-1.5825,-1.5825,-1.6015,-1.615,-1.6055,-1.6103,-1.652,-1.6796,-1.7444,-1.7994,-1.8319,-1.9177,-2.035,-2.1391,-2.8389,-2.8301,-2.8301,-2.8301,-2.8301,-2.8301,-2.8301,-2.8301,-2.8301,-2.8301,-2.8301,-2.8301,-2.8301,-2.8281,-2.8184,-2.7978,-2.764,-2.7109,-2.665,-2.6348,-2.5888,-2.5693,-2.5684,-2.5684,-2.5684,-2.5684,-2.5684,-2.5684,-2.5674,-2.5596,-2.5615,-2.5654,-2.5205,-2.4941,-2.4884,-2.3456,-2.2428,-2.1833,-2.0611,-1.9861,-1.9488,-1.9405,-1.9039,-1.8187,-1.7824,-1.7178,-1.6433,-1.6015,-1.5825,-1.5805,-1.5491,-1.5257,-1.5117,-1.4856,-1.4774,-1.4816,-1.485,-1.4843,-1.4856,-1.4981,-1.4975,-1.489,-1.5117,-1.5277,-1.5291,-1.5478,-1.5578,-1.5611,-1.5685,-1.5705,-1.5718,-1.5778,-1.5825,-1.5825,-1.5825,-1.5825,-1.5825,-1.5825,-1.5825,-1.5825,-1.5825,-1.5825,-1.5825,-1.5825,-1.5825,-1.5825,-1.5825,-1.5825,-1.5825,-1.5825,-1.5825,-1.5825,-1.5825,-1.5825,-1.5825,-1.5825,-1.5825,-1.5825,-1.5825,-1.5825,-1.5825,-1.5825,-1.5825,-1.5872,-1.5967,-1.592,-1.5872,-1.6055,-1.6292,-1.6527,-1.7084,-1.7723,-1.818,-1.9131,-2.026,-2.8301,-2.8301,-2.8301,-2.8301,-2.8301,-2.8301,-2.8301,-2.8301,-2.8301,-2.8301,-2.8301,-2.8301,-2.8301,-2.8301,-2.8291,-2.8057,-2.7708,-2.7412,-2.6953,-2.6377,-2.5888,-2.5693,-2.5684,-2.5684,-2.5684,-2.5684,-2.5684,-2.5684,-2.5684,-2.5684,-2.5684,-2.5654,-2.5488,-2.5352,-2.5217,-2.3446,-2.2031,-2.1339,-1.9824,-1.8652,-1.8002,-1.794,-1.7623,-1.699,-1.6897,-1.648,-1.5879,-1.5825,-1.5825,-1.5772,-1.5565,-1.5398,-1.5371,-1.5169,-1.5068,-1.5169,-1.5196,-1.5144,-1.517,-1.5244,-1.5264,-1.5231,-1.5411,-1.5551,-1.5598,-1.5745,-1.5825,-1.5812,-1.5825,-1.5825,-1.5825,-1.5825,-1.5825,-1.5825,-1.5825,-1.5825,-1.5825,-1.5825,-1.5825,-1.5825,-1.5825,-1.5825,-1.5825,-1.5825,-1.5825,-1.5825,-1.5825,-1.5825,-1.5825,-1.5825,-1.5825,-1.5825,-1.5825,-1.5825,-1.5825,-1.5825,-1.5825,-1.5825,-1.5825,-1.5825,-1.5825,-1.5825,-1.5825,-1.5825,-1.5825,-1.5825,-1.5825,-1.5825,-1.592,-1.6244,-1.6716,-1.6943,-1.7304,-1.7855,-1.8985,-2.8301,-2.8301,-2.8301,-2.8301,-2.8301,-2.8301,-2.8301,-2.8301,-2.8301,-2.8301,-2.8301,-2.8301,-2.8301,-2.8281,-2.8193,-2.8027,-2.7796,-2.7611,-2.7041,-2.6455,-2.5967,-2.5684,-2.5684,-2.5684,-2.5684,-2.5684,-2.5684,-2.5684,-2.5684,-2.5684,-2.5684,-2.5674,-2.5664,-2.5664,-2.516,-2.3678,-2.2166,-2.0787,-1.8866,-1.7445,-1.6614,-1.6381,-1.6231,-1.6252,-1.6076,-1.6015,-1.5825,-1.5825,-1.5825,-1.5825,-1.5571,-1.5484,-1.5424,-1.5236,-1.5249,-1.5384,-1.5444,-1.5444,-1.5471,-1.5631,-1.5698,-1.5531,-1.5671,-1.5778,-1.5798,-1.5818,-1.5825,-1.5825,-1.5825,-1.5825,-1.5825,-1.5825,-1.5825,-1.5825,-1.5825,-1.5825,-1.5825,-1.5825,-1.5825,-1.5825,-1.5825,-1.5825,-1.5825,-1.5825,-1.5825,-1.5825,-1.5825,-1.5825,-1.5825,-1.5825,-1.5825,-1.5825,-1.5825,-1.5825,-1.5825,-1.5825,-1.5825,-1.5825,-1.5825,-1.5825,-1.5825,-1.5825,-1.5825,-1.5825,-1.5825,-1.5825,-1.5825,-1.5825,-1.5825,-1.5872,-1.6244,-1.6109,-1.6008,-1.6803,-1.7762,-2.8301,-2.8301,-2.8301,-2.8301,-2.8301,-2.8301,-2.8301,-2.8301,-2.8301,-2.8301,-2.8301,-2.8301,-2.8301,-2.8281,-2.8051,-2.791,-2.7969,-2.749,-2.6855,-2.6396,-2.5888,-2.5703,-2.5693,-2.5703,-2.5693,-2.5684,-2.5684,-2.5684,-2.5684,-2.5684,-2.5684,-2.5684,-2.5684,-2.5684,-2.5363,-2.3126,-2.1524,-2.0647,-1.8282,-1.6834,-1.652,-1.6072,-1.5972,-1.6106,-1.5945,-1.5832,-1.5825,-1.5825,-1.5825,-1.5812,-1.5765,-1.5698,-1.5685,-1.5638,-1.5631,-1.5665,-1.5712,-1.5725,-1.5745,-1.5772,-1.5758,-1.5745,-1.5765,-1.5825,-1.5825,-1.5825,-1.5825,-1.5825,-1.5825,-1.5825,-1.5825,-1.5825,-1.5825,-1.5825,-1.5825,-1.5825,-1.5825,-1.5825,-1.5825,-1.5825,-1.5825,-1.5825,-1.5825,-1.5825,-1.5825,-1.5825,-1.5825,-1.5825,-1.5825,-1.5825,-1.5825,-1.5825,-1.5825,-1.5825,-1.5825,-1.5825,-1.5825,-1.5825,-1.5825,-1.5825,-1.5825,-1.5825,-1.5825,-1.5825,-1.5825,-1.5825,-1.5825,-1.5825,-1.5825,-1.5825,-1.5825,-1.5825,-1.592,-1.6292,-1.6527,-2.8301,-2.8301,-2.8301,-2.8301,-2.8301,-2.8301,-2.8301,-2.8301,-2.8301,-2.8301,-2.8301,-2.8301,-2.8301,-2.8262,-2.7933,-2.7812,-2.7812,-2.7334,-2.6787,-2.6426,-2.6123,-2.5937,-2.5762,-2.5859,-2.5967,-2.5732,-2.5684,-2.5684,-2.5684,-2.5693,-2.5684,-2.5684,-2.5684,-2.5684,-2.5323,-2.2906,-2.1528,-2.0678,-1.8331,-1.6714,-1.6627,-1.6433,-1.6186,-1.6213,-1.5999,-1.5825,-1.5825,-1.5825,-1.5825,-1.5825,-1.5825,-1.5825,-1.5825,-1.5825,-1.5825,-1.5825,-1.5825,-1.5825,-1.5825,-1.5825,-1.5825,-1.5825,-1.5825,-1.5825,-1.5825,-1.5825,-1.5825,-1.5825,-1.5825,-1.5825,-1.5825,-1.5825,-1.5825,-1.5825,-1.5825,-1.5825,-1.5825,-1.5825,-1.5825,-1.5825,-1.5825,-1.5825,-1.5825,-1.5825,-1.5825,-1.5825,-1.5825,-1.5825,-1.5825,-1.5825,-1.5825,-1.5825,-1.5825,-1.5825,-1.5825,-1.5825,-1.5825,-1.5825,-1.5825,-1.5825,-1.5825,-1.5825,-1.5825,-1.5825,-1.5825,-1.5825,-1.5825,-1.5825,-1.5825,-1.5825,-1.5825,-1.5825,-1.5872,-1.6062,-1.6197,-2.8301,-2.8301,-2.8301,-2.8301,-2.8301,-2.8301,-2.8301,-2.8301,-2.8301,-2.8301,-2.8301,-2.8301,-2.8252,-2.8096,-2.7715,-2.7559,-2.7363,-2.7119,-2.6641,-2.6406,-2.6211,-2.5986,-2.5752,-2.5672,-2.5521,-2.5478,-2.5781,-2.584,-2.5908,-2.5752,-2.5762,-2.5762,-2.5693,-2.5693,-2.5118,-2.3109,-2.1544,-2.0998,-1.8564,-1.7099,-1.6881,-1.6754,-1.6533,-1.6366,-1.6099,-1.5952,-1.5925,-1.5879,-1.5825,-1.5825,-1.5825,-1.5825,-1.5825,-1.5825,-1.5825,-1.5825,-1.5825,-1.5825,-1.5825,-1.5825,-1.5825,-1.5825,-1.5825,-1.5825,-1.5825,-1.5825,-1.5825,-1.5825,-1.5825,-1.5825,-1.5825,-1.5825,-1.5825,-1.5825,-1.5825,-1.5825,-1.5825,-1.5825,-1.5825,-1.5825,-1.5825,-1.5825,-1.5825,-1.5825,-1.5825,-1.5825,-1.5825,-1.5825,-1.5825,-1.5825,-1.5825,-1.5825,-1.5825,-1.5825,-1.5825,-1.5825,-1.5825,-1.5825,-1.5825,-1.5825,-1.5825,-1.5825,-1.5825,-1.5825,-1.5825,-1.5825,-1.5825,-1.5825,-1.5825,-1.5825,-1.5825,-1.5825,-1.5825,-1.5825,-1.592,-2.8301,-2.8301,-2.8301,-2.8301,-2.8301,-2.8301,-2.8301,-2.8301,-2.8301,-2.8301,-2.8301,-2.8291,-2.8105,-2.7754,-2.7324,-2.6953,-2.6709,-2.6553,-2.6475,-2.6289,-2.6094,-2.5791,-2.54,-2.4845,-2.439,-2.4716,-2.5343,-2.6056,-2.6324,-2.6103,-2.6064,-2.6162,-2.5947,-2.5732,-2.4911,-2.3167,-2.1618,-2.0915,-1.8702,-1.7338,-1.7248,-1.6967,-1.67,-1.658,-1.6326,-1.6179,-1.6099,-1.5952,-1.5825,-1.5825,-1.5825,-1.5825,-1.5825,-1.5825,-1.5825,-1.5825,-1.5825,-1.5825,-1.5825,-1.5825,-1.5825,-1.5825,-1.5825,-1.5825,-1.5825,-1.5825,-1.5825,-1.5825,-1.5825,-1.5825,-1.5825,-1.5825,-1.5825,-1.5825,-1.5825,-1.5825,-1.5825,-1.5825,-1.5825,-1.5825,-1.5825,-1.5825,-1.5825,-1.5825,-1.5825,-1.5825,-1.5825,-1.5825,-1.5825,-1.5825,-1.5825,-1.5825,-1.5825,-1.5825,-1.5825,-1.5825,-1.5825,-1.5825,-1.5825,-1.5825,-1.5825,-1.5825,-1.5825,-1.5825,-1.5825,-1.5825,-1.5825,-1.5825,-1.5825,-1.5825,-1.5825,-1.5825,-1.5825,-1.5825,-1.5825,-2.8301,-2.8301,-2.8301,-2.8301,-2.8301,-2.8301,-2.8301,-2.8301,-2.8301,-2.8301,-2.8301,-2.8271,-2.8057,-2.7637,-2.7207,-2.668,-2.6221,-2.6318,-2.625,-2.6074,-2.6045,-2.5457,-2.4841,-2.4122,-2.3757,-2.3695,-2.418,-2.5036,-2.5839,-2.6268,-2.6344,-2.6543,-2.6289,-2.5709,-2.4653,-2.2821,-2.1422,-2.0389,-1.8617,-1.7481,-1.7549,-1.7134,-1.6907,-1.67,-1.6567,-1.6353,-1.6066,-1.6119,-1.5972,-1.5865,-1.5825,-1.5825,-1.5825,-1.5825,-1.5825,-1.5825,-1.5825,-1.5825,-1.5825,-1.5825,-1.5825,-1.5825,-1.5825,-1.5825,-1.5825,-1.5825,-1.5825,-1.5825,-1.5825,-1.5825,-1.5825,-1.5825,-1.5825,-1.5825,-1.5825,-1.5825,-1.5825,-1.5825,-1.5825,-1.5825,-1.5825,-1.5825,-1.5825,-1.5825,-1.5825,-1.5825,-1.5825,-1.5825,-1.5825,-1.5825,-1.5825,-1.5825,-1.5825,-1.5825,-1.5825,-1.5825,-1.5825,-1.5825,-1.5825,-1.5825,-1.5825,-1.5825,-1.5825,-1.5825,-1.5825,-1.5825,-1.5825,-1.5825,-1.5825,-1.5825,-1.5825,-1.5825,-1.5825,-1.5825,-1.5825,-2.8301,-2.8301,-2.8301,-2.8301,-2.8301,-2.8301,-2.8301,-2.8301,-2.8301,-2.8232,-2.8184,-2.8213,-2.7949,-2.7402,-2.6904,-2.6367,-2.5723,-2.6123,-2.6035,-2.5791,-2.5562,-2.493,-2.4122,-2.3241,-2.2773,-2.2254,-2.2372,-2.309,-2.4536,-2.5213,-2.6078,-2.6307,-2.6193,-2.5544,-2.4155,-2.2749,-2.1162,-1.9635,-1.8297,-1.7635,-1.7522,-1.7407,-1.7186,-1.6887,-1.682,-1.6553,-1.6192,-1.6172,-1.6072,-1.5912,-1.5825,-1.5825,-1.5825,-1.5825,-1.5825,-1.5825,-1.5825,-1.5825,-1.5825,-1.5825,-1.5825,-1.5825,-1.5825,-1.5825,-1.5825,-1.5825,-1.5825,-1.5825,-1.5825,-1.5825,-1.5825,-1.5825,-1.5825,-1.5825,-1.5825,-1.5825,-1.5825,-1.5825,-1.5825,-1.5825,-1.5825,-1.5825,-1.5825,-1.5825,-1.5825,-1.5825,-1.5825,-1.5825,-1.5825,-1.5825,-1.5825,-1.5825,-1.5825,-1.5825,-1.5825,-1.5825,-1.5825,-1.5825,-1.5825,-1.5825,-1.5825,-1.5825,-1.5825,-1.5825,-1.5825,-1.5825,-1.5825,-1.5825,-1.5825,-1.5825,-1.5825,-1.5825,-1.5825,-1.5825,-1.5825,-2.8301,-2.8301,-2.8301,-2.8301,-2.8301,-2.8301,-2.8301,-2.8301,-2.8301,-2.8066,-2.7875,-2.8066,-2.7666,-2.6777,-2.6172,-2.582,-2.5742,-2.5605,-2.5586,-2.5362,-2.4545,-2.3868,-2.3211,-2.1065,-2.0997,-2.0793,-2.0923,-2.2103,-2.3242,-2.3377,-2.4147,-2.519,-2.5165,-2.4666,-2.3815,-2.2515,-2.1362,-1.9643,-1.8258,-1.7589,-1.7575,-1.7528,-1.7468,-1.7414,-1.7253,-1.6958,-1.6533,-1.6393,-1.6172,-1.5858,-1.5838,-1.5825,-1.5825,-1.5825,-1.5825,-1.5825,-1.5825,-1.5825,-1.5825,-1.5825,-1.5825,-1.5825,-1.5825,-1.5825,-1.5825,-1.5825,-1.5825,-1.5825,-1.5825,-1.5825,-1.5825,-1.5825,-1.5825,-1.5825,-1.5825,-1.5825,-1.5825,-1.5825,-1.5825,-1.5825,-1.5825,-1.5825,-1.5825,-1.5825,-1.5825,-1.5825,-1.5825,-1.5825,-1.5825,-1.5825,-1.5825,-1.5825,-1.5825,-1.5825,-1.5825,-1.5825,-1.5825,-1.5825,-1.5825,-1.5825,-1.5825,-1.5825,-1.5825,-1.5825,-1.5825,-1.5825,-1.5825,-1.5825,-1.5825,-1.5825,-1.5825,-1.5825,-1.5825,-1.5825,-1.5825,-2.8301,-2.8301,-2.8301,-2.8301,-2.8301,-2.8301,-2.8301,-2.8301,-2.8291,-2.8057,-2.7803,-2.8105,-2.7705,-2.6748,-2.6015,-2.5693,-2.5528,-2.5,-2.4559,-2.4341,-2.3329,-2.2283,-2.1485,-2.0465,-2.0003,-1.9596,-1.9689,-2.004,-2.1361,-2.2752,-2.3842,-2.4187,-2.4056,-2.3327,-2.2822,-2.1743,-2.0279,-1.8929,-1.7954,-1.7648,-1.7589,-1.7575,-1.7508,-1.742,-1.742,-1.7134,-1.6794,-1.6607,-1.6373,-1.6106,-1.5945,-1.5825,-1.5825,-1.5825,-1.5825,-1.5825,-1.5825,-1.5825,-1.5825,-1.5825,-1.5825,-1.5825,-1.5825,-1.5825,-1.5825,-1.5825,-1.5825,-1.5825,-1.5825,-1.5825,-1.5825,-1.5825,-1.5825,-1.5825,-1.5825,-1.5825,-1.5825,-1.5825,-1.5825,-1.5825,-1.5825,-1.5825,-1.5825,-1.5825,-1.5825,-1.5825,-1.5825,-1.5825,-1.5825,-1.5825,-1.5825,-1.5825,-1.5825,-1.5825,-1.5825,-1.5825,-1.5825,-1.5825,-1.5825,-1.5825,-1.5825,-1.5825,-1.5825,-1.5825,-1.5825,-1.5825,-1.5825,-1.5825,-1.5825,-1.5825,-1.5825,-1.5825,-1.5825,-1.5825,-1.5825,-2.8301,-2.8301,-2.8301,-2.8301,-2.8301,-2.8301,-2.8301,-2.8301,-2.8301,-2.7998,-2.7646,-2.7685,-2.7441,-2.7021,-2.6347,-2.6035,-2.582,-2.4553,-2.4081,-2.3459,-2.2256,-2.1126,-2.0499,-1.9925,-1.9379,-1.8868,-1.9041,-1.935,-2.0101,-2.1286,-2.2534,-2.3207,-2.2942,-2.2301,-2.1412,-2.0886,-2.0012,-1.8279,-1.7876,-1.7689,-1.7655,-1.7589,-1.7468,-1.746,-1.7447,-1.7341,-1.6914,-1.6814,-1.6673,-1.6266,-1.6086,-1.5952,-1.5804,-1.5825,-1.5825,-1.5825,-1.5825,-1.5825,-1.5825,-1.5825,-1.5825,-1.5825,-1.5825,-1.5825,-1.5825,-1.5825,-1.5825,-1.5825,-1.5825,-1.5825,-1.5825,-1.5825,-1.5825,-1.5825,-1.5825,-1.5825,-1.5825,-1.5825,-1.5825,-1.5825,-1.5825,-1.5825,-1.5825,-1.5825,-1.5825,-1.5825,-1.5825,-1.5825,-1.5825,-1.5825,-1.5825,-1.5825,-1.5825,-1.5825,-1.5825,-1.5825,-1.5825,-1.5825,-1.5825,-1.5825,-1.5825,-1.5825,-1.5825,-1.5825,-1.5825,-1.5825,-1.5825,-1.5825,-1.5825,-1.5825,-1.5825,-1.5825,-1.5825,-1.5825,-1.5825,-2.8301,-2.8301,-2.8301,-2.8301,-2.8301,-2.8301,-2.8301,-2.8301,-2.8301,-2.7861,-2.7256,-2.6797,-2.6894,-2.6904,-2.6795,-2.6522,-2.615,-2.5195,-2.4405,-2.3391,-2.2081,-2.0602,-1.9925,-1.9353,-1.8834,-1.8911,-1.8991,-1.9145,-1.9357,-1.9873,-2.0873,-2.1514,-2.1609,-2.1451,-2.1085,-2.0603,-1.983,-1.8455,-1.7962,-1.7776,-1.7682,-1.7609,-1.7555,-1.7549,-1.7535,-1.7428,-1.7192,-1.7132,-1.6938,-1.6449,-1.6293,-1.6106,-1.5959,-1.5912,-1.5905,-1.5784,-1.5825,-1.5825,-1.5825,-1.5825,-1.5825,-1.5825,-1.5825,-1.5825,-1.5825,-1.5825,-1.5825,-1.5825,-1.5825,-1.5825,-1.5825,-1.5825,-1.5825,-1.5825,-1.5825,-1.5825,-1.5825,-1.5825,-1.5825,-1.5825,-1.5825,-1.5825,-1.5825,-1.5825,-1.5825,-1.5825,-1.5825,-1.5825,-1.5825,-1.5825,-1.5825,-1.5825,-1.5825,-1.5825,-1.5825,-1.5825,-1.5825,-1.5825,-1.5825,-1.5825,-1.5825,-1.5825,-1.5825,-1.5825,-1.5825,-1.5825,-1.5825,-1.5825,-1.5825,-1.5825,-1.5825,-1.5825,-1.5825,-1.5825,-1.5825,-2.8301,-2.8301,-2.8301,-2.8301,-2.8301,-2.8301,-2.8301,-2.8301,-2.8291,-2.8144,-2.7734,-2.7119,-2.6865,-2.6992,-2.6861,-2.6088,-2.4811,-2.393,-2.305,-2.1666,-2.017,-1.9485,-1.9153,-1.9178,-1.8911,-1.9125,-1.9192,-1.9219,-1.941,-1.9424,-1.9591,-2.0148,-2.0364,-2.0207,-2.0074,-2.0069,-1.9326,-1.8828,-1.8189,-1.7916,-1.7829,-1.7662,-1.7589,-1.7589,-1.7589,-1.7535,-1.7402,-1.728,-1.7079,-1.6871,-1.6633,-1.638,-1.6132,-1.6086,-1.5985,-1.5804,-1.5825,-1.5825,-1.5825,-1.5825,-1.5825,-1.5825,-1.5825,-1.5825,-1.5825,-1.5825,-1.5825,-1.5825,-1.5825,-1.5825,-1.5825,-1.5825,-1.5825,-1.5825,-1.5852,-1.5885,-1.5865,-1.5892,-1.5838,-1.5838,-1.5832,-1.5825,-1.5825,-1.5825,-1.5825,-1.5825,-1.5825,-1.5825,-1.5825,-1.5825,-1.5825,-1.5825,-1.5825,-1.5825,-1.5825,-1.5825,-1.5825,-1.5825,-1.5825,-1.5825,-1.5825,-1.5825,-1.5825,-1.5825,-1.5825,-1.5825,-1.5825,-1.5825,-1.5825,-1.5825,-1.5825,-1.5825,-1.5825,-1.5825,-1.5825,-2.8301,-2.8301,-2.8301,-2.8301,-2.8301,-2.8301,-2.8301,-2.8301,-2.8301,-2.8301,-2.8242,-2.7539,-2.7217,-2.7207,-2.7136,-2.6186,-2.4627,-2.3387,-2.2041,-2.0811,-1.9717,-1.8984,-1.8998,-1.9085,-1.9152,-1.9403,-1.9424,-1.9424,-1.9424,-1.9424,-1.9482,-1.9482,-1.9424,-1.9468,-1.9421,-1.9185,-1.9018,-1.8818,-1.8528,-1.8109,-1.8015,-1.7856,-1.7642,-1.7622,-1.7589,-1.7582,-1.7522,-1.7395,-1.73,-1.7139,-1.6958,-1.664,-1.642,-1.6239,-1.6112,-1.5945,-1.5832,-1.5832,-1.5832,-1.5825,-1.5825,-1.5825,-1.5825,-1.5825,-1.5825,-1.5832,-1.5825,-1.5825,-1.5825,-1.5832,-1.5852,-1.5912,-1.5992,-1.6039,-1.6199,-1.6226,-1.6079,-1.6032,-1.5925,-1.5852,-1.5845,-1.5784,-1.5845,-1.5845,-1.5865,-1.5852,-1.5825,-1.5825,-1.5825,-1.5825,-1.5825,-1.5825,-1.5825,-1.5825,-1.5825,-1.5825,-1.5825,-1.5825,-1.5825,-1.5825,-1.5825,-1.5825,-1.5825,-1.5825,-1.5825,-1.5825,-1.5825,-1.5825,-1.5825,-1.5825,-1.5825,-1.5825,-1.5825,-1.5825,-1.5825,-2.8301,-2.8301,-2.8301,-2.8301,-2.8301,-2.8301,-2.8301,-2.8301,-2.8301,-2.8301,-2.8252,-2.7803,-2.7617,-2.7669,-2.7598,-2.6465,-2.4783,-2.3586,-2.234,-2.0943,-1.9777,-1.9394,-1.9363,-1.937,-1.9299,-1.9403,-1.9424,-1.9424,-1.9424,-1.9424,-1.9424,-1.9424,-1.9424,-1.9424,-1.9424,-1.9417,-1.9205,-1.8965,-1.8891,-1.8495,-1.8195,-1.809,-1.7909,-1.7716,-1.7669,-1.7675,-1.7562,-1.7542,-1.7454,-1.7293,-1.7246,-1.6951,-1.6543,-1.6422,-1.6206,-1.5972,-1.5899,-1.5865,-1.5798,-1.5845,-1.5899,-1.5885,-1.5892,-1.5804,-1.5798,-1.5791,-1.5825,-1.5825,-1.5872,-1.5872,-1.5945,-1.6086,-1.6206,-1.6306,-1.646,-1.6486,-1.6333,-1.6159,-1.6052,-1.5992,-1.5905,-1.5798,-1.5811,-1.5824,-1.5899,-1.5885,-1.5845,-1.5825,-1.5825,-1.5825,-1.5825,-1.5825,-1.5825,-1.5825,-1.5825,-1.5825,-1.5825,-1.5825,-1.5825,-1.5825,-1.5825,-1.5825,-1.5825,-1.5825,-1.5825,-1.5825,-1.5825,-1.5825,-1.5825,-1.5825,-1.5825,-1.5825,-1.5825,-1.5825,-1.5825,-2.8301,-2.8301,-2.8301,-2.8301,-2.8301,-2.8301,-2.8301,-2.8301,-2.8301,-2.8301,-2.8281,-2.8115,-2.7953,-2.7865,-2.765,-2.6511,-2.4001,-2.3918,-2.2663,-1.9976,-1.9496,-1.9461,-1.9424,-1.9424,-1.9424,-1.9424,-1.9424,-1.9424,-1.9424,-1.9424,-1.9424,-1.9424,-1.9424,-1.9424,-1.9424,-1.9424,-1.9285,-1.9192,-1.9032,-1.8748,-1.8617,-1.843,-1.8196,-1.7909,-1.7883,-1.7782,-1.7622,-1.7615,-1.7568,-1.7467,-1.7447,-1.7246,-1.6878,-1.6744,-1.6506,-1.6346,-1.6279,-1.6132,-1.6186,-1.6253,-1.6306,-1.6166,-1.5992,-1.5985,-1.6066,-1.5912,-1.5858,-1.5885,-1.6005,-1.6052,-1.6172,-1.6406,-1.6533,-1.6553,-1.664,-1.664,-1.6533,-1.6339,-1.6206,-1.6186,-1.6126,-1.6206,-1.6246,-1.6186,-1.6172,-1.6025,-1.5972,-1.5865,-1.5832,-1.5825,-1.5825,-1.5825,-1.5825,-1.5825,-1.5825,-1.5825,-1.5825,-1.5825,-1.5825,-1.5825,-1.5825,-1.5825,-1.5825,-1.5825,-1.5825,-1.5825,-1.5825,-1.5825,-1.5825,-1.5825,-1.5825,-1.5825,-1.5825,-1.5825,-1.5825,-2.8301,-2.8301,-2.8301,-2.8301,-2.8301,-2.8301,-2.8301,-2.8301,-2.8301,-2.8301,-2.8291,-2.8291,-2.8164,-2.7998,-2.7718,-2.6422,-2.3316,-2.3299,-2.2125,-1.9414,-1.9259,-1.9403,-1.9424,-1.9424,-1.9424,-1.9424,-1.9424,-1.9424,-1.9424,-1.9424,-1.9424,-1.9424,-1.9424,-1.9424,-1.9424,-1.9424,-1.9417,-1.9292,-1.9165,-1.9032,-1.8871,-1.8704,-1.8497,-1.825,-1.809,-1.7943,-1.7776,-1.7662,-1.7589,-1.7589,-1.7549,-1.7501,-1.7226,-1.7045,-1.6807,-1.6673,-1.6567,-1.6433,-1.648,-1.6533,-1.658,-1.6656,-1.6293,-1.6132,-1.6166,-1.6025,-1.5925,-1.5959,-1.6139,-1.6226,-1.6326,-1.658,-1.6834,-1.6854,-1.6941,-1.6954,-1.6807,-1.6627,-1.644,-1.642,-1.6239,-1.6386,-1.6567,-1.656,-1.65,-1.6299,-1.6106,-1.5992,-1.5818,-1.5784,-1.5832,-1.5825,-1.5832,-1.5838,-1.5832,-1.5825,-1.5825,-1.5825,-1.5825,-1.5832,-1.5825,-1.5825,-1.5825,-1.5832,-1.5838,-1.5845,-1.5832,-1.5825,-1.5825,-1.5825,-1.5825,-1.5825,-1.5825,-1.5825,-1.5825,-2.8301,-2.8301,-2.8301,-2.8301,-2.8301,-2.8301,-2.8301,-2.8301,-2.8301,-2.8301,-2.8301,-2.8301,-2.8252,-2.8193,-2.7963,-2.6258,-2.4082,-2.35,-2.1665,-2.0057,-1.9403,-1.9424,-1.9424,-1.9424,-1.9424,-1.9424,-1.9424,-1.9424,-1.9424,-1.9424,-1.9424,-1.9424,-1.9424,-1.9424,-1.9424,-1.9424,-1.9424,-1.9339,-1.9312,-1.9178,-1.9038,-1.8958,-1.8771,-1.8544,-1.833,-1.8095,-1.7916,-1.7802,-1.7662,-1.7609,-1.7575,-1.746,-1.7313,-1.7213,-1.7012,-1.6814,-1.674,-1.6774,-1.674,-1.6787,-1.6814,-1.6874,-1.684,-1.644,-1.6152,-1.6106,-1.5965,-1.5999,-1.6146,-1.6246,-1.6366,-1.6817,-1.7199,-1.73,-1.7375,-1.7295,-1.7141,-1.6954,-1.6754,-1.6553,-1.6239,-1.6279,-1.656,-1.664,-1.6794,-1.6547,-1.6402,-1.6219,-1.6072,-1.5798,-1.5791,-1.5825,-1.5838,-1.5852,-1.5858,-1.5879,-1.6019,-1.6086,-1.5831,-1.5791,-1.5784,-1.5892,-1.5952,-1.5965,-1.5844,-1.5838,-1.5959,-1.5912,-1.5825,-1.5825,-1.5825,-1.5825,-1.5825,-1.5825,-1.5825,-2.8301,-2.8301,-2.8301,-2.8301,-2.8301,-2.8301,-2.8301,-2.8301,-2.8301,-2.8301,-2.8301,-2.8301,-2.8301,-2.8271,-2.8164,-2.6299,-2.4688,-2.3302,-2.1703,-2.0415,-1.9424,-1.9424,-1.9424,-1.9424,-1.9424,-1.9424,-1.9424,-1.9424,-1.9424,-1.9424,-1.9424,-1.9424,-1.9424,-1.9424,-1.9424,-1.9424,-1.9424,-1.9424,-1.9424,-1.9299,-1.9239,-1.9199,-1.9025,-1.8824,-1.8671,-1.8395,-1.8062,-1.7916,-1.7809,-1.7615,-1.7595,-1.7554,-1.7482,-1.7326,-1.7119,-1.7132,-1.7161,-1.7268,-1.7159,-1.7208,-1.7221,-1.7068,-1.7088,-1.7001,-1.6587,-1.6192,-1.6005,-1.6025,-1.6219,-1.6373,-1.6587,-1.6941,-1.732,-1.7442,-1.7528,-1.7468,-1.7301,-1.7088,-1.6881,-1.6613,-1.6299,-1.65,-1.6754,-1.6981,-1.7081,-1.682,-1.665,-1.6489,-1.6266,-1.6025,-1.5798,-1.5838,-1.5838,-1.5858,-1.5945,-1.5992,-1.6192,-1.6313,-1.6064,-1.5985,-1.6059,-1.6119,-1.6139,-1.6126,-1.6092,-1.6112,-1.6159,-1.6046,-1.5838,-1.5825,-1.5825,-1.5825,-1.5825,-1.5825,-1.5825,-2.8301,-2.8301,-2.8301,-2.8301,-2.8301,-2.8301,-2.8301,-2.8301,-2.8301,-2.8301,-2.8301,-2.8301,-2.8301,-2.8301,-2.8111,-2.6707,-2.398,-2.3638,-2.2202,-1.9975,-1.9424,-1.9424,-1.9424,-1.9424,-1.9424,-1.9424,-1.9424,-1.9424,-1.9424,-1.9424,-1.9424,-1.9424,-1.9424,-1.9424,-1.9424,-1.9424,-1.9424,-1.9424,-1.9424,-1.9424,-1.9424,-1.9424,-1.9239,-1.9118,-1.9011,-1.8651,-1.8283,-1.8109,-1.7889,-1.7635,-1.7589,-1.7582,-1.7569,-1.7454,-1.738,-1.7393,-1.7474,-1.7448,-1.742,-1.7448,-1.7328,-1.7174,-1.7161,-1.6954,-1.678,-1.6433,-1.6139,-1.5937,-1.6299,-1.658,-1.6834,-1.7088,-1.7328,-1.7562,-1.7575,-1.7582,-1.7382,-1.7213,-1.6921,-1.6667,-1.6687,-1.6887,-1.7108,-1.7321,-1.7248,-1.6767,-1.6603,-1.6583,-1.6373,-1.6172,-1.5965,-1.5852,-1.5852,-1.5865,-1.5979,-1.6099,-1.6206,-1.6353,-1.6373,-1.6293,-1.6375,-1.638,-1.644,-1.64,-1.6326,-1.6319,-1.6279,-1.6019,-1.5825,-1.5825,-1.5825,-1.5825,-1.5825,-1.5825,-1.5825,-2.8232,-2.8232,-2.8242,-2.8242,-2.8301,-2.8301,-2.8301,-2.8291,-2.8232,-2.8262,-2.8281,-2.8242,-2.8232,-2.8271,-2.8237,-2.6554,-2.4544,-2.371,-2.2217,-1.9482,-1.9424,-1.9424,-1.9424,-1.9424,-1.9424,-1.9424,-1.9424,-1.9424,-1.9424,-1.9424,-1.9424,-1.9424,-1.9424,-1.9424,-1.9424,-1.9424,-1.9424,-1.9424,-1.9424,-1.9424,-1.9424,-1.9424,-1.9417,-1.9363,-1.9105,-1.8824,-1.8531,-1.8243,-1.7936,-1.7736,-1.7595,-1.7595,-1.7575,-1.7562,-1.7549,-1.7549,-1.7562,-1.7555,-1.7574,-1.7562,-1.7574,-1.7308,-1.7068,-1.6834,-1.664,-1.64,-1.6066,-1.5951,-1.6259,-1.654,-1.6794,-1.7141,-1.7428,-1.7549,-1.7582,-1.7589,-1.7495,-1.7268,-1.7021,-1.6827,-1.6847,-1.7021,-1.7014,-1.7181,-1.7148,-1.6653,-1.6636,-1.671,-1.661,-1.6393,-1.6172,-1.5979,-1.5965,-1.6012,-1.6119,-1.6213,-1.6199,-1.6293,-1.6446,-1.6493,-1.6453,-1.658,-1.6754,-1.6727,-1.6693,-1.6453,-1.6319,-1.6059,-1.5865,-1.5825,-1.5825,-1.5825,-1.5825,-1.5825,-1.5825,-2.7875,-2.7875,-2.7865,-2.7988,-2.8271,-2.8301,-2.8301,-2.8262,-2.7949,-2.8018,-2.8193,-2.8008,-2.8018,-2.8271,-2.8291,-2.6662,-2.4378,-2.3654,-2.1934,-2.0206,-1.9424,-1.9424,-1.9424,-1.9424,-1.9424,-1.9424,-1.9424,-1.9424,-1.9424,-1.9424,-1.9424,-1.9424,-1.9424,-1.9424,-1.9424,-1.9424,-1.9424,-1.9424,-1.9424,-1.9424,-1.9424,-1.9424,-1.9417,-1.941,-1.9212,-1.9065,-1.8798,-1.8531,-1.8237,-1.7989,-1.7702,-1.7609,-1.7582,-1.7589,-1.7589,-1.7589,-1.7589,-1.7589,-1.7589,-1.7569,-1.7568,-1.7393,-1.7112,-1.6817,-1.6493,-1.6206,-1.6066,-1.6079,-1.6192,-1.6473,-1.6794,-1.7174,-1.7475,-1.7535,-1.7582,-1.7582,-1.7582,-1.7355,-1.7114,-1.7061,-1.7034,-1.7014,-1.7001,-1.7005,-1.6945,-1.6958,-1.7025,-1.7052,-1.6965,-1.6811,-1.6486,-1.6293,-1.6179,-1.6206,-1.6259,-1.6326,-1.6306,-1.6413,-1.658,-1.66,-1.6607,-1.6827,-1.7054,-1.7108,-1.7061,-1.6787,-1.646,-1.6099,-1.5945,-1.5912,-1.5825,-1.5825,-1.5825,-1.5825,-1.5825,-2.7728,-2.7728,-2.7728,-2.7845,-2.8018,-2.8213,-2.8301,-2.8223,-2.7851,-2.79,-2.8193,-2.791,-2.7891,-2.8252,-2.8291,-2.6554,-2.4156,-2.3822,-2.1934,-2.0155,-1.9424,-1.9424,-1.9424,-1.9424,-1.9424,-1.9424,-1.9424,-1.9424,-1.9424,-1.9424,-1.9424,-1.9424,-1.9424,-1.9424,-1.9424,-1.9424,-1.9424,-1.9424,-1.9424,-1.9424,-1.9424,-1.9424,-1.9424,-1.9424,-1.9383,-1.9192,-1.8991,-1.8738,-1.8544,-1.8323,-1.8096,-1.7796,-1.7742,-1.7736,-1.7702,-1.7629,-1.7589,-1.7589,-1.7589,-1.7562,-1.7548,-1.7387,-1.7065,-1.6693,-1.66,-1.6353,-1.6179,-1.6179,-1.6206,-1.6446,-1.6847,-1.7286,-1.7422,-1.7522,-1.7535,-1.7535,-1.7502,-1.7382,-1.7215,-1.7179,-1.7121,-1.7121,-1.7088,-1.7072,-1.6971,-1.671,-1.6871,-1.7199,-1.7152,-1.7105,-1.68,-1.656,-1.6406,-1.6186,-1.6066,-1.6233,-1.642,-1.6553,-1.67,-1.6947,-1.7088,-1.728,-1.7414,-1.7393,-1.73,-1.7085,-1.6693,-1.6333,-1.6132,-1.6099,-1.5959,-1.5825,-1.5845,-1.5885,-1.5885,-2.7529,-2.7571,-2.7611,-2.7669,-2.7787,-2.8105,-2.8301,-2.8223,-2.7861,-2.7953,-2.8193,-2.7904,-2.7939,-2.7951,-2.7897,-2.5836,-2.422,-2.3319,-2.1487,-2.0097,-1.9424,-1.9424,-1.9424,-1.9424,-1.9424,-1.9424,-1.9424,-1.9424,-1.9424,-1.9424,-1.9424,-1.9424,-1.9424,-1.9424,-1.9424,-1.9424,-1.9424,-1.9424,-1.9424,-1.9424,-1.9424,-1.9424,-1.9424,-1.9424,-1.9403,-1.9225,-1.9058,-1.8898,-1.8771,-1.8577,-1.8377,-1.8063,-1.7842,-1.7796,-1.7709,-1.7635,-1.7589,-1.7589,-1.7589,-1.7582,-1.7588,-1.7434,-1.6974,-1.6754,-1.6673,-1.654,-1.6366,-1.6442,-1.6469,-1.6616,-1.7025,-1.73,-1.7467,-1.7508,-1.7515,-1.7522,-1.7468,-1.7481,-1.7387,-1.7286,-1.7266,-1.7221,-1.7148,-1.7132,-1.6945,-1.6663,-1.673,-1.7032,-1.7239,-1.7206,-1.7079,-1.6754,-1.6526,-1.6286,-1.6039,-1.6239,-1.6553,-1.662,-1.6794,-1.7221,-1.7515,-1.7468,-1.7501,-1.7534,-1.7414,-1.7192,-1.6985,-1.6627,-1.6466,-1.6326,-1.6259,-1.6159,-1.6106,-1.6119,-1.6025,-2.6934,-2.666,-2.6992,-2.7344,-2.7748,-2.8115,-2.8301,-2.8232,-2.7871,-2.7953,-2.8115,-2.7857,-2.7396,-2.6554,-2.6545,-2.4986,-2.2758,-2.2258,-2.1152,-1.9649,-1.9424,-1.9424,-1.9424,-1.9424,-1.9424,-1.9424,-1.9424,-1.9424,-1.9424,-1.9424,-1.9424,-1.9424,-1.9424,-1.9424,-1.9424,-1.9424,-1.9424,-1.9424,-1.9424,-1.9424,-1.9424,-1.9424,-1.9424,-1.9424,-1.9424,-1.939,-1.9239,-1.9045,-1.8931,-1.8731,-1.845,-1.8129,-1.7996,-1.7849,-1.7729,-1.7689,-1.7635,-1.7589,-1.7589,-1.7589,-1.7601,-1.7414,-1.7085,-1.6921,-1.6834,-1.672,-1.6693,-1.6924,-1.6965,-1.6998,-1.7286,-1.7454,-1.7608,-1.7555,-1.7562,-1.7562,-1.7542,-1.7528,-1.7495,-1.744,-1.736,-1.7306,-1.7206,-1.7132,-1.7058,-1.6911,-1.7012,-1.7293,-1.744,-1.7373,-1.7286,-1.6967,-1.6687,-1.6466,-1.6273,-1.648,-1.6714,-1.6754,-1.6854,-1.7201,-1.7435,-1.7502,-1.7515,-1.7535,-1.746,-1.7253,-1.7045,-1.6951,-1.6747,-1.662,-1.662,-1.656,-1.6466,-1.6346,-1.6246]},{"header":{"parameterUnit":"m.s-1","parameterCategory":1,"la1":31.0,"la2":29.5877,"lo1":-88.7671,"lo2":-86.6584,"dy":0.0162,"dx":0.0185,"nx":115,"ny":88,"refTime":"2024-05-10T18:00:00:Z","depth":0,"parameterNumber":3,"parameterNumberName":"V-component_of_WINDS"},"data":[0.0,0.0,0.0,0.0,0.0,0.0,0.0,0.0,0.0,0.0,0.0,0.0,0.0,0.0,0.0,0.0,0.0,0.0,0.0,0.0,0.0,0.0,0.0,0.0,0.0,0.0,0.0,0.0,0.0,0.0,0.0,0.0,0.0,0.0,0.0,0.0,0.0,0.0,0.0,0.0,0.0,0.0,0.0,0.0,0.0,0.0,0.0,0.0,0.0,0.0,0.0,0.0,0.0,0.0,0.0,0.0,0.0,0.0,0.0,0.0,0.0,0.0,0.0,0.0,0.0,0.0,0.0,0.0,0.0,0.0,0.0,0.0,0.0,0.0,0.0,0.0,0.0,0.0,0.0,0.0,0.0,0.0,0.0,0.0,0.0,0.0,0.0,0.0,0.0,0.0,0.0,0.0,0.0,0.0,0.0,0.0,0.0,0.0,0.0,0.0,0.0,0.0,0.0,0.0,0.0,0.0,0.0,0.0,0.0,0.0,0.0,0.0,0.0,0.0,0.0,0.0,0.0,0.0,0.0,0.0,0.0,0.0,0.0,0.0,0.0,0.0,0.0,0.0,0.0,0.0,0.0,0.0,0.0,0.0,0.0,0.0,0.0,0.0,0.0,0.0,0.0,0.0,0.0,0.0,0.0,0.0,0.0,0.0,0.0,0.0,0.0,0.0,0.0,0.0,0.0,0.0,0.0,0.0,0.0,0.0,0.0,0.0,0.0,0.0,0.0,0.0,0.0,0.0,0.0,0.0,0.0,0.0,0.0,0.0,0.0,0.0,0.0,0.0,0.0,0.0,0.0,0.0,0.0,0.0,0.0,0.0,0.0,0.0,0.0,0.0,0.0,0.0,0.0,0.0,0.0,0.0,0.0,0.0,0.0,0.0,0.0,0.0,0.0,0.0,0.0,0.0,0.0,0.0,0.0,0.0,0.0,0.0,0.0,0.0,0.0,0.0,0.0,0.0,0.0,0.0,0.0,0.0,0.0,0.0,0.0,0.0,0.0,0.0,0.0,0.0,0.0,0.0,0.0,0.0,0.0,0.0,0.0,0.0,0.0,0.0,0.0,0.0,0.0,0.0,0.0,0.0,0.0,0.0,0.0,0.0,0.0,0.0,0.0,0.0,0.0,0.0,0.0,0.0,0.0,0.0,0.0,0.0,0.0,0.0,0.0,0.0,0.0,0.0,0.0,0.0,0.0,0.0,0.0,0.0,0.0,0.0,0.0,0.0,0.0,0.0,0.0,0.0,0.0,0.0,0.0,0.0,0.0,0.0,0.0,0.0,0.0,0.0,0.0,0.0,0.0,0.0,0.0,0.0,0.0,0.0,0.0,0.0,0.0,0.0,0.0,0.0,0.0,0.0,0.0,0.0,0.0,0.0,0.0,0.0,0.0,0.0,0.0,0.0,0.0,0.0,0.0,0.0,0.0,0.0,0.0,0.0,0.0,0.0,0.0,0.0,0.0,0.0,0.0,0.0,0.0,0.0,0.0,0.0,0.0,0.0,0.0,0.0,0.0,0.0,0.0,0.0,0.0,0.0,0.0,0.0,0.0,0.0,0.0,0.0,0.0,0.0,0.0,0.0,0.0,0.0,0.0,0.0,0.0,0.0,0.0,0.0,0.0,0.0,0.0,0.0,0.0,0.0,0.0,0.0,0.0,0.0,0.0,0.0,0.0,0.0,0.0,0.0,0.0,0.0,0.0,0.0,0.0,0.0,0.0,0.0,0.0,0.0,0.0,0.0,0.0,0.0,0.0,0.0,0.0,0.0,0.0,0.0,0.0,0.0,0.0,0.0,0.0,0.0,0.0,0.0,0.0,0.0,0.0,0.0,0.0,0.0,0.0,0.0,0.0,0.0,0.0,0.0,0.0,0.0,0.0,0.0,0.0,0.0,0.0,0.0,0.0,0.0,0.0,0.0,0.0,0.0,0.0,0.0,0.0,0.0,0.0,0.0,0.0,0.0,0.0,0.0,0.0,0.0,0.0,0.0,0.0,0.0,0.0,0.0,0.0,0.0,0.0,0.0,0.0,0.0,0.0,0.0,0.0,0.0,0.0,0.0,0.0,0.0,0.0,0.0,0.0,0.0,0.0,0.0,0.0,0.0,0.0,0.0,0.0,0.0,0.0,0.0,0.0,0.0,0.0,0.0,0.0,0.0,0.0,0.0,0.0,0.0,0.0,0.0,0.0,0.0,0.0,0.0,0.0,0.0,0.0,0.0,0.0,0.0,0.0,0.0,0.0,0.0,0.0,0.0,0.0,0.0,0.0,0.0,0.0,0.0,0.0,0.0,0.0,0.0,0.0,0.0,0.0,0.0,0.0,0.0,0.0,0.0,0.0,0.0,0.0,0.0,0.0,0.0,0.0,0.0,0.0,0.0,0.0,0.0,0.0,0.0,0.0,0.0,0.0,0.0,0.0,0.0,0.0,0.0,0.0,0.0,0.0,0.0,0.0,0.0,0.0,0.0,0.0,0.0,0.0,0.0,0.0,0.0,0.0,0.0,0.0,0.0,0.0,0.0,0.0,0.0,0.0,0.0,0.0,0.0,0.0,0.0,0.0,0.0,0.0,0.0,0.0,0.0,0.0,0.0,0.0,0.0,0.0,0.0,0.0,0.0,0.0,0.0,0.0,0.0,0.0,0.0,0.0,0.0,0.0,0.0,0.0,0.0,0.0,0.0,0.0,0.0,0.0,0.0,0.0,0.0,0.0,0.0,0.0,0.0,0.0,0.0,0.0,0.0,0.0,0.0,0.0,0.0,0.0,0.0,0.0,0.0,0.0,0.0,0.0,0.0,0.0,0.0,0.0,0.0,0.0,0.0,0.0,0.0,0.0,0.0,0.0,0.0,0.0,0.0,0.0,0.0,0.0,0.0,0.0,0.0,0.0,0.0,0.0,0.0,0.0,0.0,0.0,0.0,0.0,0.0,0.0,0.0,0.0,0.0,0.0,0.0,0.0,0.0,0.0,0.0,0.0,0.0,0.0,0.0,0.0,0.0,0.0,0.0,0.0,0.0,0.0,0.0,0.0,0.0,0.0,0.0,0.0,0.0,0.0,0.0,0.0,0.0,0.0,0.0,0.0,0.0,0.0,0.0,0.0,0.0,0.0,0.0,0.0,0.0,0.0,0.0,0.0,0.0,0.0,0.0,0.0,0.0,0.0,0.0,0.0,0.0,0.0,0.0,0.0,0.0,0.0,0.0,0.0,0.0,0.0,0.0,0.0,0.0,0.0,0.0,0.0,0.0,0.0,0.0,0.0,0.0,0.0,0.0,0.0,0.0,0.0,0.0,0.0,0.0,0.0,0.0,0.0,0.0,0.0,0.0,0.0,0.0,0.0,0.0,0.0,0.0,0.0,0.0,0.0,0.0,0.0,0.0,0.0,0.0,0.0,0.0,0.0,0.0,0.0,0.0,0.0,0.0,0.0,0.0,0.0,0.0,0.0,0.0,0.0,0.0,0.0,0.0,0.0,0.0,0.0,0.0,0.0,0.0,0.0,0.0,0.0,0.0,0.0,0.0,0.0,0.0,0.0,0.0,0.0,0.0,0.0,0.0,0.0,0.0,0.0,0.0,0.0,0.0,0.0,0.0,0.0,0.0,0.0,0.0,0.0,0.0,0.0,0.0,0.0,0.0,0.0,0.0,0.0,0.0,0.0,0.0,0.0,0.0,0.0,0.0,0.0,0.0,0.0,0.0,0.0,0.0,0.0,0.0,0.0,0.0,0.0,0.0,0.0,0.0,0.0,0.0,0.0,0.0,0.0,0.0,0.0,0.0,0.0,0.0,0.0,0.0,0.0,0.0,0.0,0.0,0.0,0.0,0.0,0.0,0.0,0.0,0.0,0.0,0.0,0.0,0.0,0.0,0.0,0.0,0.0,0.0,0.0,0.0,0.0,0.0,0.0,0.0,0.0,0.0,0.0,0.0,0.0,0.0,0.0,0.0,0.0,0.0,0.0,0.0,0.0,0.0,0.0,0.0,0.0,0.0,0.0,0.0,0.0,0.0,0.0,0.0,0.0,0.0,0.0,0.0,0.0,0.0,0.0,0.0,0.0,0.0,0.0,0.0,0.0,0.0,0.0,0.0,0.0,0.0,0.0,0.0,0.0,0.0,0.0,0.0,0.0,0.0,0.0,0.0,0.0,0.0,0.0,0.0,0.0,0.0,0.0,0.0,0.0,0.0,0.0,0.0,0.0,0.0,0.0,0.0,0.0,0.0,0.0,0.0,0.0,0.0,0.0,0.0,0.0,0.0,0.0,0.0,0.0,0.0,2.3195,0.0,0.0,0.0,0.0,0.0,0.0,0.0,0.0,0.0,0.0,0.0,0.0,0.0,0.0,0.0,0.0,0.0,0.0,0.0,0.0,0.0,0.0,0.0,0.0,0.0,0.0,0.0,0.0,0.0,0.0,0.0,0.0,0.0,0.0,0.0,0.0,0.0,0.0,0.0,0.0,0.0,0.0,0.0,0.0,0.0,0.0,0.0,0.0,0.0,0.0,0.0,0.0,0.0,0.0,0.0,0.0,0.0,0.0,0.0,0.0,0.0,0.0,0.0,0.0,0.0,0.0,0.0,0.0,0.0,0.0,0.0,0.0,0.0,0.0,0.0,0.0,0.0,0.0,0.0,0.0,0.0,0.0,0.0,0.0,0.0,0.0,0.0,0.0,0.0,0.0,0.0,0.0,0.0,0.0,0.0,0.0,0.0,0.0,0.0,0.0,0.0,0.0,0.0,0.0,0.0,0.0,0.0,0.0,0.0,0.0,2.6523,2.4584,2.6261,2.579,2.2776,0.0,0.0,0.0,0.0,0.0,0.0,0.0,0.0,0.0,0.0,0.0,0.0,0.0,0.0,0.0,0.0,0.0,0.0,0.0,0.0,0.0,0.0,0.0,0.0,0.0,0.0,0.0,0.0,0.0,0.0,0.0,0.0,0.0,0.0,0.0,0.0,0.0,0.0,0.0,0.0,0.0,0.0,0.0,0.0,0.0,0.0,0.0,0.0,0.0,0.0,0.0,0.0,0.0,0.0,0.0,0.0,0.0,0.0,0.0,0.0,0.0,0.0,0.0,0.0,0.0,0.0,0.0,0.0,0.0,0.0,0.0,0.0,0.0,0.0,0.0,0.0,0.0,0.0,0.0,0.0,0.0,0.0,0.0,0.0,0.0,0.0,0.0,0.0,0.0,0.0,0.0,0.0,0.0,0.0,0.0,0.0,0.0,0.0,0.0,0.0,0.0,0.0,0.0,0.0,0.0,0.0,0.0,0.0,0.0,0.0,0.0,0.0,2.7275,2.6551,2.3579,0.0,0.0,0.0,0.0,0.0,0.0,0.0,0.0,0.0,0.0,0.0,0.0,0.0,0.0,0.0,0.0,0.0,0.0,0.0,0.0,0.0,0.0,0.0,0.0,0.0,0.0,0.0,0.0,0.0,0.0,0.0,0.0,0.0,0.0,0.0,0.0,0.0,0.0,0.0,0.0,0.0,0.0,0.0,0.0,0.0,0.0,0.0,0.0,0.0,0.0,0.0,0.0,0.0,0.0,0.0,0.0,0.0,0.0,0.0,0.0,0.0,0.0,0.0,0.0,0.0,0.0,0.0,0.0,0.0,0.0,0.0,0.0,0.0,0.0,0.0,0.0,0.0,0.0,0.0,0.0,0.0,0.0,0.0,0.0,0.0,0.0,0.0,0.0,0.0,0.0,0.0,0.0,0.0,0.0,0.0,0.0,0.0,0.0,0.0,0.0,0.0,0.0,0.0,0.0,0.0,0.0,0.0,0.0,0.0,0.0,2.635,2.8168,2.8788,0.0,2.6805,0.0,0.0,0.0,0.0,0.0,0.0,0.0,0.0,0.0,0.0,0.0,0.0,0.0,0.0,0.0,0.0,0.0,0.0,0.0,0.0,0.0,0.0,0.0,0.0,0.0,0.0,0.0,0.0,0.0,0.0,0.0,0.0,0.0,0.0,0.0,0.0,0.0,0.0,0.0,0.0,0.0,0.0,0.0,0.0,0.0,0.0,0.0,0.0,0.0,0.0,0.0,0.0,0.0,0.0,0.0,0.0,0.0,0.0,0.0,0.0,0.0,0.0,0.0,0.0,0.0,0.0,0.0,0.0,0.0,0.0,0.0,0.0,0.0,0.0,0.0,0.0,0.0,0.0,0.0,0.0,0.0,0.0,0.0,0.0,0.0,0.0,0.0,0.0,0.0,0.0,0.0,0.0,0.0,0.0,0.0,0.0,0.0,0.0,0.0,0.0,0.0,0.0,0.0,0.0,0.0,0.0,0.0,0.0,0.0,0.0,2.7816,2.9594,2.8556,2.73,0.0,0.0,0.0,0.0,0.0,0.0,0.0,0.0,0.0,0.0,0.0,0.0,0.0,0.0,0.0,0.0,0.0,0.0,0.0,0.0,0.0,0.0,0.0,0.0,0.0,0.0,0.0,0.0,0.0,0.0,0.0,0.0,0.0,0.0,0.0,0.0,0.0,0.0,0.0,0.0,0.0,0.0,0.0,0.0,0.0,0.0,0.0,0.0,0.0,0.0,0.0,0.0,0.0,0.0,0.0,0.0,0.0,0.0,0.0,0.0,0.0,0.0,0.0,0.0,0.0,0.0,0.0,0.0,0.0,0.0,0.0,0.0,0.0,0.0,0.0,0.0,0.0,0.0,0.0,0.0,0.0,0.0,0.0,0.0,0.0,0.0,0.0,0.0,0.0,0.0,0.0,0.0,0.0,0.0,0.0,0.0,0.0,0.0,0.0,0.0,0.0,0.0,0.0,0.0,0.0,0.0,0.0,0.0,0.0,0.0,2.9602,2.9505,3.0815,2.9009,2.7205,2.5675,0.0,0.0,0.0,0.0,0.0,0.0,0.0,0.0,0.0,0.0,0.0,0.0,0.0,0.0,0.0,0.0,0.0,0.0,0.0,0.0,0.0,0.0,0.0,0.0,0.0,0.0,0.0,0.0,0.0,0.0,0.0,0.0,0.0,0.0,0.0,0.0,0.0,0.0,0.0,0.0,0.0,0.0,0.0,0.0,0.0,0.0,0.0,0.0,0.0,0.0,0.0,0.0,0.0,0.0,0.0,0.0,0.0,0.0,0.0,0.0,0.0,0.0,0.0,0.0,0.0,0.0,0.0,0.0,0.0,0.0,0.0,0.0,0.0,0.0,0.0,0.0,0.0,0.0,0.0,0.0,0.0,0.0,0.0,0.0,0.0,0.0,0.0,0.0,0.0,0.0,0.0,0.0,0.0,0.0,0.0,0.0,0.0,0.0,0.0,0.0,0.0,0.0,0.0,0.0,0.0,0.0,0.0,0.0,3.3364,3.1407,3.1019,3.2365,3.0845,2.9242,0.0,0.0,0.0,0.0,0.0,0.0,0.0,0.0,0.0,0.0,0.0,0.0,0.0,0.0,0.0,0.0,0.0,0.0,0.0,0.0,0.0,0.0,0.0,0.0,0.0,0.0,0.0,0.0,0.0,0.0,0.0,0.0,0.0,0.0,0.0,0.0,0.0,0.0,0.0,0.0,0.0,0.0,0.0,0.0,0.0,0.0,0.0,0.0,0.0,0.0,0.0,0.0,0.0,0.0,0.0,0.0,0.0,0.0,0.0,0.0,0.0,0.0,0.0,0.0,0.0,0.0,0.0,0.0,0.0,0.0,0.0,0.0,0.0,0.0,0.0,0.0,0.0,0.0,0.0,0.0,0.0,0.0,0.0,0.0,0.0,0.0,0.0,0.0,0.0,0.0,0.0,0.0,0.0,0.0,0.0,0.0,0.0,0.0,0.0,0.0,0.0,0.0,0.0,0.0,0.0,0.0,0.0,0.0,0.0,3.0939,3.1487,3.1955,3.2328,3.0437,2.889,0.0,0.0,0.0,0.0,0.0,0.0,0.0,0.0,0.0,0.0,0.0,0.0,0.0,0.0,0.0,0.0,0.0,0.0,0.0,0.0,0.0,0.0,0.0,0.0,0.0,0.0,0.0,0.0,0.0,0.0,0.0,0.0,0.0,0.0,0.0,0.0,0.0,0.0,0.0,0.0,0.0,0.0,0.0,0.0,0.0,0.0,0.0,0.0,0.0,0.0,0.0,0.0,0.0,0.0,0.0,0.0,0.0,0.0,0.0,0.0,0.0,0.0,0.0,0.0,0.0,0.0,0.0,0.0,0.0,0.0,0.0,0.0,0.0,0.0,0.0,0.0,0.0,0.0,0.0,0.0,0.0,0.0,0.0,0.0,0.0,0.0,0.0,0.0,0.0,0.0,0.0,0.0,0.0,0.0,0.0,0.0,0.0,0.0,0.0,0.0,0.0,0.0,0.0,0.0,0.0,0.0,0.0,0.0,0.0,3.1067,0.0,3.3126,3.2273,3.0635,2.8807,0.0,0.0,0.0,0.0,0.0,0.0,0.0,0.0,0.0,0.0,0.0,0.0,0.0,0.0,0.0,0.0,0.0,0.0,0.0,0.0,0.0,0.0,0.0,0.0,0.0,0.0,0.0,0.0,0.0,0.0,0.0,0.0,0.0,0.0,0.0,0.0,0.0,0.0,0.0,0.0,0.0,0.0,0.0,0.0,0.0,0.0,0.0,0.0,0.0,0.0,0.0,0.0,0.0,0.0,0.0,0.0,0.0,0.0,0.0,0.0,0.0,0.0,0.0,0.0,0.0,0.0,0.0,0.0,0.0,0.0,0.0,0.0,0.0,0.0,0.0,0.0,0.0,0.0,0.0,0.0,0.0,0.0,0.0,0.0,0.0,0.0,0.0,0.0,0.0,0.0,0.0,0.0,0.0,0.0,0.0,0.0,0.0,0.0,0.0,0.0,0.0,0.0,0.0,0.0,0.0,0.0,0.0,0.0,3.1012,3.4216,3.5053,3.4373,3.2412,3.1495,2.9094,0.0,0.0,0.0,0.0,0.0,0.0,0.0,0.0,0.0,0.0,0.0,0.0,0.0,0.0,0.0,0.0,0.0,0.0,0.0,0.0,0.0,0.0,0.0,0.0,0.0,0.0,0.0,0.0,0.0,0.0,0.0,0.0,0.0,0.0,0.0,0.0,0.0,0.0,0.0,0.0,0.0,0.0,0.0,0.0,0.0,0.0,0.0,0.0,0.0,0.0,0.0,0.0,0.0,0.0,0.0,0.0,0.0,0.0,0.0,0.0,0.0,0.0,0.0,0.0,0.0,0.0,0.0,0.0,0.0,0.0,0.0,0.0,0.0,0.0,0.0,0.0,0.0,0.0,0.0,0.0,0.0,0.0,0.0,0.0,0.0,0.0,0.0,0.0,0.0,0.0,0.0,0.0,0.0,0.0,0.0,0.0,0.0,0.0,0.0,0.0,0.0,0.0,0.0,0.0,0.0,0.0,0.0,0.0,0.0,3.1606,3.2829,3.3595,3.3728,3.1125,2.9517,0.0,0.0,0.0,0.0,0.0,0.0,0.0,0.0,0.0,0.0,0.0,0.0,0.0,0.0,0.0,0.0,0.0,0.0,0.0,0.0,0.0,0.0,0.0,0.0,0.0,0.0,0.0,0.0,0.0,0.0,0.0,0.0,0.0,0.0,0.0,0.0,0.0,0.0,0.0,0.0,0.0,0.0,0.0,0.0,0.0,0.0,0.0,0.0,0.0,0.0,0.0,0.0,0.0,0.0,0.0,0.0,0.0,0.0,0.0,0.0,0.0,0.0,0.0,0.0,0.0,0.0,0.0,0.0,0.0,0.0,0.0,0.0,0.0,0.0,0.0,0.0,0.0,0.0,0.0,0.0,0.0,0.0,0.0,0.0,0.0,0.0,0.0,0.0,0.0,0.0,0.0,0.0,0.0,0.0,0.0,0.0,0.0,0.0,0.0,0.0,0.0,0.0,0.0,0.0,0.0,0.0,0.0,0.0,0.0,3.1172,3.2779,3.3673,3.3739,3.1173,2.9837,2.9854,0.0,0.0,0.0,0.0,0.0,0.0,0.0,0.0,0.0,0.0,0.0,0.0,0.0,0.0,0.0,0.0,0.0,0.0,0.0,0.0,0.0,0.0,0.0,0.0,0.0,0.0,0.0,0.0,0.0,0.0,0.0,0.0,0.0,0.0,0.0,0.0,0.0,0.0,0.0,0.0,0.0,0.0,0.0,0.0,0.0,0.0,0.0,0.0,0.0,0.0,0.0,0.0,0.0,0.0,0.0,0.0,0.0,0.0,0.0,0.0,0.0,0.0,0.0,0.0,0.0,0.0,0.0,0.0,0.0,0.0,0.0,0.0,0.0,0.0,0.0,0.0,0.0,0.0,0.0,0.0,0.0,0.0,0.0,0.0,0.0,0.0,0.0,0.0,0.0,0.0,0.0,0.0,0.0,0.0,0.0,0.0,0.0,0.0,0.0,0.0,0.0,0.0,0.0,0.0,0.0,0.0,0.0,0.0,3.2371,3.4436,3.4577,3.2642,3.1712,3.0243,0.0,0.0,0.0,0.0,0.0,0.0,0.0,0.0,0.0,0.0,0.0,0.0,0.0,0.0,0.0,0.0,0.0,0.0,0.0,0.0,0.0,0.0,0.0,0.0,0.0,0.0,0.0,0.0,0.0,0.0,0.0,0.0,0.0,0.0,0.0,0.0,0.0,0.0,0.0,0.0,0.0,0.0,0.0,0.0,0.0,0.0,0.0,0.0,0.0,0.0,0.0,0.0,0.0,0.0,0.0,0.0,0.0,0.0,0.0,0.0,0.0,0.0,0.0,0.0,0.0,0.0,0.0,0.0,0.0,0.0,0.0,0.0,0.0,0.0,0.0,0.0,0.0,0.0,0.0,0.0,0.0,0.0,0.0,0.0,0.0,0.0,0.0,0.0,0.0,0.0,0.0,0.0,0.0,0.0,0.0,0.0,0.0,0.0,0.0,0.0,0.0,0.0,0.0,0.0,0.0,0.0,0.0,0.0,0.0,3.1801,3.3793,3.4577,3.4023,3.2739,3.1735,0.0,0.0,0.0,0.0,0.0,0.0,0.0,0.0,0.0,0.0,0.0,0.0,0.0,0.0,0.0,0.0,0.0,0.0,0.0,0.0,0.0,0.0,0.0,0.0,0.0,0.0,0.0,0.0,0.0,0.0,0.0,0.0,0.0,0.0,0.0,0.0,0.0,0.0,0.0,0.0,0.0,0.0,0.0,0.0,0.0,0.0,0.0,0.0,0.0,0.0,0.0,0.0,0.0,0.0,0.0,0.0,0.0,0.0,0.0,0.0,0.0,0.0,0.0,0.0,0.0,0.0,0.0,0.0,0.0,0.0,0.0,0.0,0.0,0.0,0.0,0.0,0.0,0.0,0.0,0.0,0.0,0.0,0.0,0.0,0.0,0.0,0.0,0.0,0.0,0.0,0.0,0.0,0.0,0.0,0.0,0.0,0.0,0.0,0.0,0.0,0.0,0.0,0.0,0.0,0.0,0.0,0.0,0.0,3.2009,3.1964,3.3401,3.417,3.4186,3.3562,3.2784,0.0,0.0,0.0,0.0,0.0,0.0,0.0,0.0,0.0,0.0,0.0,0.0,0.0,0.0,0.0,0.0,0.0,0.0,0.0,0.0,0.0,0.0,0.0,0.0,0.0,0.0,0.0,0.0,0.0,0.0,0.0,0.0,0.0,0.0,0.0,0.0,0.0,0.0,0.0,0.0,0.0,0.0,0.0,0.0,0.0,0.0,0.0,0.0,0.0,0.0,0.0,0.0,0.0,0.0,0.0,0.0,0.0,0.0,0.0,0.0,0.0,0.0,0.0,0.0,0.0,0.0,0.0,0.0,0.0,0.0,0.0,0.0,0.0,0.0,0.0,0.0,0.0,0.0,0.0,0.0,0.0,0.0,0.0,0.0,0.0,0.0,0.0,0.0,0.0,0.0,0.0,0.0,0.0,0.0,0.0,0.0,0.0,0.0,0.0,0.0,0.0,0.0,0.0,0.0,0.0,0.0,0.0,0.0,3.2523,3.26,3.3177,3.3505,3.3617,3.4111,3.3427,0.0,0.0,0.0,0.0,0.0,0.0,0.0,0.0,0.0,0.0,0.0,0.0,0.0,0.0,0.0,0.0,0.0,0.0,0.0,0.0,0.0,0.0,0.0,0.0,0.0,0.0,0.0,0.0,0.0,0.0,0.0,0.0,0.0,0.0,0.0,0.0,0.0,0.0,0.0,0.0,0.0,0.0,0.0,0.0,0.0,0.0,0.0,0.0,0.0,0.0,0.0,0.0,0.0,0.0,0.0,0.0,0.0,0.0,0.0,0.0,0.0,0.0,0.0,0.0,0.0,0.0,0.0,0.0,0.0,0.0,0.0,0.0,0.0,0.0,0.0,0.0,0.0,0.0,0.0,0.0,0.0,0.0,0.0,0.0,0.0,0.0,0.0,0.0,0.0,0.0,0.0,0.0,0.0,0.0,0.0,0.0,0.0,0.0,0.0,0.0,0.0,0.0,0.0,0.0,0.0,0.0,0.0,0.0,3.1995,3.2508,3.2699,3.3066,3.3582,3.3687,3.3201,0.0,0.0,0.0,0.0,0.0,0.0,0.0,0.0,0.0,0.0,0.0,0.0,0.0,0.0,0.0,0.0,0.0,0.0,0.0,0.0,0.0,0.0,0.0,0.0,0.0,0.0,0.0,0.0,0.0,0.0,0.0,0.0,0.0,0.0,0.0,0.0,0.0,0.0,0.0,0.0,0.0,0.0,0.0,0.0,0.0,0.0,0.0,0.0,2.7829,0.0,0.0,0.0,0.0,0.0,0.0,0.0,0.0,0.0,0.0,0.0,0.0,0.0,0.0,0.0,0.0,0.0,0.0,0.0,0.0,0.0,0.0,0.0,0.0,0.0,0.0,0.0,0.0,0.0,0.0,0.0,0.0,0.0,0.0,0.0,0.0,0.0,0.0,0.0,0.0,0.0,0.0,0.0,0.0,0.0,0.0,0.0,0.0,0.0,0.0,0.0,0.0,0.0,0.0,0.0,0.0,0.0,0.0,0.0,3.166,3.2004,3.2063,3.2571,3.3572,3.3905,3.3515,0.0,0.0,0.0,0.0,0.0,0.0,0.0,0.0,0.0,0.0,0.0,0.0,0.0,0.0,0.0,0.0,0.0,0.0,0.0,0.0,0.0,0.0,0.0,0.0,0.0,0.0,0.0,0.0,0.0,0.0,0.0,0.0,0.0,0.0,0.0,0.0,0.0,0.0,0.0,0.0,0.0,0.0,0.0,0.0,0.0,0.0,0.0,0.0,0.0,0.0,0.0,0.0,0.0,0.0,0.0,0.0,0.0,0.0,0.0,0.0,0.0,0.0,0.0,0.0,0.0,0.0,0.0,0.0,0.0,0.0,0.0,0.0,0.0,0.0,0.0,0.0,0.0,0.0,0.0,0.0,0.0,0.0,0.0,0.0,0.0,0.0,0.0,0.0,0.0,0.0,0.0,0.0,0.0,0.0,0.0,0.0,0.0,0.0,0.0,0.0,0.0,0.0,0.0,0.0,0.0,0.0,0.0,3.1555,3.1496,3.1496,3.1496,3.2173,3.3547,3.4111,3.3754,3.2395,0.0,0.0,0.0,0.0,0.0,0.0,0.0,0.0,0.0,0.0,0.0,0.0,0.0,0.0,0.0,0.0,0.0,0.0,0.0,0.0,0.0,0.0,0.0,0.0,0.0,0.0,0.0,0.0,0.0,0.0,0.0,0.0,0.0,0.0,0.0,0.0,0.0,0.0,2.7455,2.9505,0.0,0.0,0.0,0.0,0.0,0.0,0.0,0.0,3.1197,0.0,0.0,0.0,0.0,0.0,0.0,0.0,0.0,0.0,0.0,0.0,0.0,0.0,0.0,0.0,0.0,0.0,0.0,0.0,0.0,0.0,0.0,0.0,0.0,0.0,0.0,0.0,0.0,0.0,0.0,0.0,0.0,0.0,0.0,0.0,0.0,0.0,0.0,0.0,0.0,0.0,0.0,0.0,0.0,0.0,0.0,0.0,0.0,0.0,0.0,0.0,0.0,0.0,0.0,0.0,0.0,3.2303,3.1795,3.1496,3.1496,3.1496,3.2173,3.3521,3.3176,3.2819,3.253,0.0,0.0,0.0,0.0,0.0,0.0,0.0,0.0,0.0,0.0,0.0,0.0,0.0,0.0,0.0,0.0,0.0,0.0,0.0,0.0,0.0,0.0,0.0,0.0,0.0,0.0,0.0,0.0,0.0,0.0,0.0,0.0,0.0,0.0,0.0,0.0,0.0,0.0,0.0,3.2392,3.3245,0.0,0.0,0.0,0.0,0.0,0.0,0.0,0.0,3.1615,0.0,0.0,0.0,0.0,0.0,0.0,0.0,0.0,0.0,0.0,0.0,0.0,0.0,0.0,0.0,0.0,0.0,0.0,0.0,0.0,0.0,0.0,0.0,0.0,0.0,0.0,0.0,0.0,0.0,0.0,0.0,0.0,0.0,0.0,0.0,0.0,0.0,0.0,0.0,0.0,0.0,0.0,0.0,0.0,0.0,0.0,0.0,0.0,0.0,0.0,0.0,0.0,0.0,0.0,0.0,3.1914,3.166,3.1496,3.1496,3.1496,3.1992,3.3024,3.2815,3.2275,0.0,0.0,0.0,0.0,0.0,0.0,0.0,0.0,0.0,0.0,0.0,0.0,0.0,0.0,0.0,0.0,0.0,0.0,0.0,0.0,0.0,0.0,0.0,0.0,0.0,0.0,0.0,0.0,0.0,0.0,0.0,0.0,0.0,0.0,0.0,0.0,0.0,0.0,0.0,0.0,3.308,3.3739,3.4414,0.0,0.0,0.0,0.0,0.0,0.0,3.2437,3.2228,0.0,0.0,0.0,0.0,0.0,0.0,0.0,0.0,0.0,0.0,0.0,0.0,0.0,0.0,0.0,0.0,0.0,0.0,0.0,0.0,0.0,0.0,0.0,0.0,0.0,0.0,0.0,0.0,0.0,0.0,0.0,0.0,0.0,0.0,0.0,0.0,0.0,0.0,0.0,0.0,0.0,0.0,0.0,0.0,0.0,0.0,0.0,0.0,0.0,0.0,0.0,0.0,0.0,0.0,0.0,3.1511,3.1645,3.163,3.1511,3.1496,3.1913,3.2745,3.2566,3.1997,0.0,0.0,0.0,0.0,0.0,0.0,0.0,0.0,0.0,0.0,0.0,0.0,0.0,0.0,0.0,0.0,0.0,0.0,0.0,0.0,0.0,0.0,0.0,0.0,0.0,0.0,0.0,0.0,0.0,0.0,0.0,0.0,0.0,0.0,0.0,0.0,0.0,0.0,0.0,0.0,0.0,3.4472,3.4503,3.4848,0.0,0.0,0.0,0.0,3.3634,3.3365,0.0,0.0,0.0,0.0,0.0,0.0,0.0,0.0,0.0,0.0,0.0,0.0,0.0,0.0,0.0,0.0,0.0,0.0,0.0,0.0,0.0,0.0,0.0,0.0,0.0,0.0,0.0,0.0,0.0,0.0,0.0,0.0,0.0,0.0,0.0,0.0,0.0,0.0,0.0,0.0,0.0,0.0,0.0,0.0,0.0,0.0,0.0,0.0,0.0,0.0,0.0,0.0,0.0,0.0,0.0,0.0,3.1555,3.2093,3.2093,3.1525,3.1496,3.2125,3.3323,3.2239,3.1836,0.0,0.0,0.0,0.0,0.0,0.0,0.0,0.0,0.0,0.0,0.0,0.0,0.0,0.0,0.0,0.0,0.0,0.0,0.0,0.0,0.0,0.0,0.0,0.0,0.0,0.0,0.0,0.0,0.0,0.0,0.0,0.0,0.0,0.0,0.0,0.0,0.0,0.0,0.0,0.0,0.0,3.7015,3.4818,3.5968,3.6402,0.0,0.0,3.4966,3.4488,3.4801,0.0,0.0,0.0,0.0,0.0,0.0,0.0,0.0,0.0,0.0,0.0,0.0,0.0,0.0,0.0,0.0,0.0,0.0,0.0,0.0,0.0,0.0,0.0,0.0,0.0,0.0,0.0,0.0,0.0,0.0,0.0,0.0,0.0,0.0,0.0,0.0,0.0,0.0,0.0,0.0,0.0,0.0,0.0,0.0,0.0,0.0,0.0,0.0,0.0,0.0,0.0,0.0,0.0,0.0,0.0,3.1795,3.1525,3.178,3.1795,3.154,3.1869,3.2164,3.2361,3.2201,3.1874,0.0,0.0,0.0,0.0,0.0,0.0,0.0,0.0,0.0,0.0,0.0,0.0,0.0,0.0,0.0,0.0,0.0,0.0,0.0,0.0,0.0,0.0,0.0,0.0,0.0,0.0,0.0,0.0,0.0,0.0,0.0,0.0,0.0,0.0,0.0,0.0,0.0,0.0,0.0,0.0,0.0,0.0,3.5205,3.6118,0.0,0.0,0.0,3.54,3.5115,0.0,0.0,0.0,0.0,0.0,0.0,0.0,0.0,0.0,0.0,0.0,0.0,0.0,0.0,0.0,0.0,0.0,0.0,0.0,0.0,0.0,0.0,0.0,0.0,0.0,0.0,0.0,0.0,0.0,0.0,0.0,0.0,0.0,0.0,0.0,0.0,0.0,0.0,0.0,0.0,0.0,0.0,0.0,0.0,0.0,0.0,0.0,0.0,0.0,0.0,0.0,0.0,0.0,0.0,0.0,0.0,0.0,3.1779,3.229,3.2389,3.2024,3.2326,3.2428,3.2279,3.2502,0.0,0.0,0.0,0.0,0.0,0.0,0.0,0.0,0.0,0.0,0.0,0.0,0.0,0.0,0.0,0.0,0.0,0.0,0.0,0.0,0.0,0.0,0.0,0.0,0.0,0.0,0.0,2.8365,0.0,0.0,0.0,0.0,0.0,0.0,0.0,0.0,0.0,0.0,0.0,0.0,0.0,0.0,3.6058,3.5579,3.6342,3.6716,0.0,0.0,3.5744,3.5759,3.5744,3.5295,0.0,0.0,0.0,0.0,0.0,0.0,0.0,0.0,0.0,0.0,0.0,0.0,0.0,0.0,0.0,0.0,0.0,0.0,0.0,0.0,0.0,0.0,0.0,0.0,0.0,0.0,0.0,0.0,0.0,0.0,0.0,0.0,0.0,0.0,0.0,0.0,0.0,0.0,0.0,0.0,0.0,0.0,0.0,0.0,0.0,0.0,0.0,0.0,0.0,0.0,0.0,0.0,0.0,0.0,3.3163,3.2511,3.4404,3.468,3.3401,3.286,3.3158,3.4314,3.3224,3.2814,0.0,0.0,0.0,0.0,0.0,0.0,0.0,0.0,0.0,0.0,0.0,0.0,0.0,0.0,0.0,0.0,0.0,0.0,0.0,0.0,0.0,0.0,0.0,0.0,0.0,0.0,0.0,0.0,0.0,0.0,0.0,0.0,0.0,0.0,0.0,0.0,0.0,0.0,0.0,0.0,0.0,3.7539,3.5759,3.709,3.8033,0.0,3.6791,3.6417,3.6417,3.6417,3.5986,3.4653,0.0,0.0,0.0,0.0,0.0,0.0,0.0,0.0,0.0,0.0,0.0,0.0,0.0,0.0,0.0,0.0,0.0,0.0,0.0,0.0,0.0,0.0,0.0,0.0,0.0,0.0,0.0,0.0,0.0,0.0,0.0,0.0,0.0,0.0,0.0,0.0,0.0,0.0,0.0,0.0,0.0,0.0,0.0,0.0,0.0,0.0,0.0,0.0,0.0,0.0,0.0,0.0,0.0,3.2878,3.2586,3.336,3.3498,3.2974,3.307,3.3224,3.3352,3.4053,3.3922,0.0,0.0,0.0,0.0,0.0,0.0,0.0,0.0,0.0,0.0,0.0,0.0,0.0,0.0,0.0,0.0,0.0,0.0,0.0,0.0,0.0,0.0,0.0,0.0,0.0,0.0,0.0,0.0,2.945,2.9534,3.0871,0.0,0.0,0.0,0.0,0.0,0.0,0.0,0.0,0.0,0.0,3.6956,3.6222,3.7419,0.0,0.0,3.7808,3.7524,3.712,3.706,3.6477,3.4788,3.4503,0.0,0.0,0.0,0.0,0.0,0.0,0.0,0.0,0.0,0.0,0.0,0.0,0.0,0.0,0.0,0.0,0.0,0.0,0.0,0.0,0.0,0.0,0.0,0.0,0.0,0.0,0.0,0.0,0.0,0.0,0.0,0.0,0.0,0.0,0.0,0.0,0.0,0.0,0.0,0.0,0.0,0.0,0.0,0.0,0.0,0.0,0.0,0.0,0.0,0.0,0.0,0.0,3.2924,3.2896,3.3498,3.3736,3.3488,3.3709,3.3736,3.3543,3.4682,3.4484,0.0,0.0,0.0,0.0,0.0,0.0,0.0,0.0,0.0,0.0,0.0,0.0,0.0,0.0,0.0,0.0,0.0,0.0,0.0,0.0,0.0,0.0,0.0,0.0,0.0,0.0,0.0,0.0,3.0548,3.0685,3.2446,0.0,0.0,0.0,0.0,0.0,0.0,0.0,0.0,0.0,0.0,3.6829,3.6829,3.7395,3.7898,3.8063,3.7764,3.7434,3.718,3.712,3.6596,3.504,0.0,0.0,0.0,0.0,0.0,0.0,0.0,0.0,0.0,0.0,0.0,0.0,0.0,0.0,0.0,0.0,0.0,0.0,0.0,0.0,0.0,0.0,0.0,0.0,0.0,0.0,0.0,3.3514,0.0,0.0,3.2512,0.0,0.0,0.0,0.0,0.0,0.0,0.0,0.0,0.0,0.0,0.0,0.0,0.0,0.0,0.0,0.0,0.0,0.0,0.0,0.0,0.0,0.0,3.3599,3.3529,3.5498,3.6231,3.5506,3.4898,3.484,3.5424,3.4951,3.4247,3.3377,0.0,0.0,0.0,0.0,0.0,0.0,0.0,0.0,0.0,0.0,0.0,0.0,0.0,0.0,0.0,0.0,0.0,0.0,0.0,0.0,0.0,0.0,0.0,0.0,0.0,0.0,3.4218,3.3051,3.2496,0.0,0.0,0.0,0.0,0.0,0.0,0.0,0.0,0.0,3.6734,3.7225,3.7606,3.7559,3.7008,3.6885,3.7389,3.6447,3.5848,3.6492,3.6552,3.6282,0.0,0.0,0.0,0.0,0.0,0.0,0.0,0.0,0.0,0.0,0.0,0.0,0.0,0.0,0.0,0.0,0.0,0.0,0.0,0.0,0.0,0.0,0.0,0.0,0.0,0.0,0.0,3.5669,3.4816,0.0,0.0,0.0,0.0,0.0,0.0,0.0,0.0,0.0,0.0,0.0,3.7892,3.8611,0.0,0.0,0.0,0.0,0.0,0.0,0.0,0.0,0.0,0.0,0.0,0.0,3.4284,3.4286,3.4955,3.5188,3.493,3.4724,3.4712,3.4918,3.5144,3.4673,3.3436,0.0,0.0,0.0,0.0,0.0,0.0,0.0,0.0,0.0,0.0,0.0,0.0,0.0,0.0,0.0,0.0,0.0,0.0,0.0,0.0,0.0,0.0,0.0,0.0,0.0,3.4015,0.0,0.0,0.0,0.0,0.0,0.0,0.0,0.0,0.0,0.0,3.6761,3.6966,3.7418,3.7989,3.8212,3.7685,3.8152,3.8443,0.0,0.0,0.0,0.0,0.0,0.0,0.0,0.0,0.0,0.0,0.0,0.0,0.0,0.0,3.6495,3.4533,3.3604,3.3095,3.2886,0.0,0.0,0.0,0.0,0.0,0.0,0.0,0.0,0.0,0.0,0.0,0.0,0.0,0.0,3.6556,3.658,3.5716,0.0,0.0,0.0,0.0,0.0,0.0,0.0,0.0,3.9635,4.032,4.0107,4.0578,4.0791,4.0742,3.9841,3.8434,0.0,0.0,0.0,0.0,0.0,0.0,0.0,0.0,3.4995,3.4979,3.5229,3.5364,3.5347,3.5074,3.4941,3.4958,3.5132,3.4737,3.3812,3.2835,3.2073,0.0,0.0,0.0,0.0,0.0,0.0,0.0,0.0,0.0,0.0,0.0,0.0,0.0,0.0,0.0,0.0,0.0,0.0,0.0,0.0,0.0,0.0,0.0,3.4201,0.0,0.0,0.0,0.0,0.0,0.0,0.0,0.0,0.0,3.8276,3.8068,3.821,3.889,3.8898,3.883,3.8847,0.0,0.0,0.0,0.0,0.0,0.0,0.0,3.7674,3.7449,3.727,3.721,3.7375,3.7958,3.8317,3.8093,0.0,0.0,3.5774,3.5013,3.4472,3.4233,3.4203,3.4016,3.3463,3.2886,3.2324,0.0,0.0,0.0,0.0,3.7464,0.0,0.0,0.0,3.6963,3.7575,0.0,3.7546,0.0,0.0,0.0,0.0,3.6877,3.9716,0.0,0.0,4.2322,4.3031,4.231,4.2344,4.2354,4.2337,4.226,4.1482,3.9952,3.6558,0.0,0.0,0.0,0.0,0.0,0.0,3.5762,3.5803,3.6474,3.6823,3.6789,3.6073,3.5684,3.5611,3.4979,3.4595,3.4455,3.3123,3.2344,3.2327,3.2259,0.0,0.0,0.0,0.0,0.0,0.0,0.0,0.0,0.0,0.0,0.0,0.0,0.0,0.0,0.0,0.0,0.0,0.0,0.0,0.0,3.4544,0.0,0.0,0.0,0.0,0.0,0.0,0.0,0.0,0.0,3.9039,3.9031,3.9606,4.0383,4.1026,0.0,0.0,0.0,0.0,3.783,3.7826,3.7747,3.7461,3.6788,3.7661,3.8182,3.7563,0.0,0.0,3.7554,3.7973,3.8182,3.7524,3.6956,3.6671,3.7225,3.6716,3.6148,3.5564,3.5415,3.5474,3.5444,3.4797,3.441,4.2848,0.0,0.0,0.0,0.0,3.8841,3.9125,3.955,4.0054,4.0242,4.0155,3.9961,0.0,0.0,0.0,0.0,0.0,0.0,4.0606,4.0981,4.2618,4.3274,4.3115,4.3673,4.3639,4.3098,4.2557,4.1813,4.0806,3.8774,3.7486,3.7003,0.0,0.0,0.0,0.0,3.7287,3.7287,3.7489,3.7584,3.7584,3.7364,3.6992,3.6451,3.6254,3.5627,3.4561,3.3592,3.3085,3.3068,3.207,0.0,0.0,0.0,0.0,0.0,0.0,0.0,0.0,0.0,0.0,0.0,0.0,0.0,0.0,0.0,0.0,0.0,0.0,0.0,3.6084,3.5148,3.5064,0.0,0.0,0.0,0.0,0.0,0.0,0.0,0.0,0.0,3.9791,3.996,4.018,0.0,0.0,3.991,4.0348,3.9767,3.9279,3.9273,3.9185,0.0,3.889,3.8764,3.8575,3.8319,3.8341,3.8317,3.8138,3.8257,3.8182,3.7509,3.6911,3.6585,3.6656,3.6237,3.5759,3.5549,3.5489,3.5489,3.5474,3.5325,3.5205,4.5967,4.3837,4.2356,4.1738,4.1707,4.1425,4.1549,4.1939,4.2238,4.2618,4.3001,4.2297,4.1701,4.1037,3.9771,0.0,0.0,0.0,4.1672,4.2122,4.3328,4.3876,4.3893,4.4045,4.3876,4.3341,4.2354,4.1627,4.1204,4.0003,3.9208,3.8751,0.0,3.7898,3.7898,3.8193,3.8345,3.8345,3.8345,3.8345,3.8328,3.7753,3.7246,3.6829,3.6485,3.5893,3.4979,3.4235,3.3846,3.3829,3.2713,3.2138,0.0,0.0,0.0,0.0,0.0,0.0,0.0,0.0,0.0,0.0,0.0,3.437,3.4083,0.0,0.0,0.0,3.4218,3.5047,3.5831,3.5318,0.0,0.0,0.0,0.0,0.0,0.0,0.0,4.0045,4.0113,4.0113,4.0113,4.0113,4.0214,4.0502,4.0299,4.0315,4.0892,0.0,3.9985,3.9966,3.9903,3.9739,3.9455,3.9283,3.9149,3.9062,3.9034,3.8815,3.8508,3.8277,3.7857,3.7177,3.6537,3.6088,3.6103,3.5759,3.5489,3.5489,3.5489,3.5489,3.5489,3.5489,3.5489,4.8716,4.9389,4.6894,4.5683,4.5419,4.4725,4.4403,4.434,4.3716,4.4626,4.6385,4.4464,4.388,4.4291,4.2229,0.0,4.1446,4.278,4.3409,4.3511,4.4181,4.4513,4.4479,4.3673,4.3274,4.3172,4.1863,4.1187,4.1068,4.0434,4.0096,4.0062,3.8734,3.8075,3.8125,3.8751,3.9073,3.9073,3.9073,3.9073,3.9073,3.7777,3.7049,3.6981,3.6197,3.5802,3.5769,3.4945,3.4544,3.4578,3.3846,3.3085,3.2446,0.0,0.0,0.0,0.0,0.0,0.0,0.0,0.0,0.0,0.0,0.0,0.0,0.0,0.0,0.0,3.3423,0.0,3.4692,3.5363,0.0,0.0,0.0,3.9154,3.9227,3.9772,4.0171,4.0154,0.0,0.0,4.0113,4.0113,4.0367,4.1018,4.051,4.062,4.2016,4.0967,4.0103,4.0199,4.0045,3.9673,3.9163,3.9347,3.9642,3.971,3.9761,3.9407,3.876,3.8165,3.7477,3.6834,3.6072,3.5666,3.5699,3.5699,3.5537,3.5604,3.5554,3.5489,3.5489,3.5489,3.5489,5.108,5.1274,5.0807,4.9154,4.684,4.6628,4.6244,4.5734,4.5733,4.6044,4.6452,4.5577,4.4601,4.3592,4.2515,4.2347,4.2902,4.3253,4.3741,4.4293,4.3876,4.3707,4.3656,4.2912,4.2252,4.1728,4.1373,4.0916,4.0358,4.0197,4.0113,4.0079,3.9757,3.9571,3.9588,3.9757,3.9842,3.9842,3.9842,3.9825,3.9842,3.9503,3.9046,3.8505,3.7753,3.7364,3.733,3.5504,3.4742,3.5261,3.4117,3.3339,3.3136,3.2615,0.0,0.0,0.0,0.0,0.0,0.0,0.0,0.0,0.0,3.5458,3.352,0.0,3.5035,0.0,3.3575,3.5013,3.6907,3.7246,0.0,0.0,4.0227,4.0637,4.109,4.0886,4.0685,4.0726,4.0343,4.0113,4.0113,4.0113,4.0163,4.0333,4.0231,4.0409,4.1288,4.0722,4.0316,4.0742,4.0421,3.9999,3.9764,3.9374,3.9315,3.9822,3.9411,3.8952,3.8786,3.8613,3.8298,3.7613,3.6847,3.6646,3.7086,3.6352,3.5814,3.6134,3.5894,3.5489,3.5489,3.5489,3.5489,5.2153,5.2629,5.2792,5.1346,4.9018,4.8706,4.8113,4.7457,4.7568,4.7593,4.7541,4.6612,4.5348,4.3944,4.3504,4.3538,4.3927,4.3927,4.4164,4.4564,4.3775,4.3403,4.3341,4.232,4.1593,4.1204,4.0865,4.0493,4.013,4.0113,4.0113,4.0113,4.0113,4.0113,4.0113,4.0113,4.0113,4.0113,4.0113,4.0113,4.0096,3.9774,3.9411,3.8988,3.8294,3.7736,3.7415,3.618,3.5537,3.5566,3.4805,3.4252,3.3897,3.3491,3.3136,0.0,0.0,0.0,0.0,0.0,0.0,0.0,0.0,0.0,0.0,0.0,3.5215,3.4227,3.4856,3.6183,3.82,3.8608,3.9324,4.0735,4.1155,4.1446,4.1768,4.1512,4.1313,4.1291,4.1036,4.0844,4.0861,4.0618,4.0449,4.0449,4.0254,4.0248,4.0561,4.0367,4.0248,4.0637,4.0367,4.0113,4.0113,3.9731,3.9554,3.9857,3.9643,3.9268,3.893,3.8829,3.8613,3.796,3.7427,3.7279,3.7661,3.7161,3.6692,3.6905,3.6523,3.5926,3.5554,3.5489,3.5489,5.2646,5.3518,5.3518,5.2621,5.1134,5.0507,4.9779,4.9001,4.89,4.8765,4.8511,4.7208,4.5889,4.4615,4.4598,4.4598,4.4598,4.4598,4.4598,4.4547,4.3775,4.3341,4.32,4.1863,4.1153,4.1035,4.0417,4.0113,4.0113,4.0113,4.0113,4.0113,4.0113,4.0113,4.0113,4.0113,4.0113,4.0113,4.0113,4.0113,4.0096,3.9486,3.9123,3.9106,3.8345,3.7652,3.7117,3.6897,3.6518,3.5938,3.5887,3.5549,3.4849,3.4692,3.4303,0.0,3.3457,0.0,0.0,0.0,0.0,0.0,0.0,0.0,0.0,3.4125,3.5064,3.6536,3.6762,3.7418,3.8921,3.9664,4.0351,4.1046,4.1599,4.1955,4.2003,4.1958,4.1916,4.1916,4.1853,4.181,4.1746,4.1335,4.1018,4.0972,4.0552,4.0279,4.0221,4.0188,4.0113,4.0113,4.0113,4.0113,4.0113,4.007,4.0045,4.0087,4.0045,3.9876,3.9216,3.9092,3.8887,3.829,3.8064,3.8007,3.8064,3.795,3.7806,3.7892,3.7293,3.6538,3.5863,3.5554,3.5489,5.3314,5.3501,5.3518,5.2621,5.1185,5.1033,5.0236,4.8968,4.8392,4.7415,4.6329,4.6041,4.5432,4.4632,4.4598,4.4598,4.4598,4.4598,4.4598,4.4553,4.3775,4.3054,4.2472,4.161,4.0882,4.0333,4.0163,4.0113,4.0113,4.0113,4.0113,4.0113,4.0113,4.0113,4.0113,0.0,0.0,0.0,4.0113,4.0113,4.0113,3.9977,3.991,3.9876,3.8582,0.0,3.8514,3.7455,3.7032,3.7449,3.7442,0.0,0.0,0.0,0.0,0.0,0.0,0.0,0.0,0.0,0.0,0.0,3.698,3.6201,3.5074,3.5383,3.6317,3.787,3.8556,3.9062,3.9361,4.0623,4.1655,4.2266,4.2442,4.2694,4.3087,4.279,4.2537,4.2519,4.2121,4.181,4.1853,4.1686,4.1621,4.1599,4.111,4.0797,4.0733,4.0392,4.0096,4.0113,4.0113,4.0113,4.0113,4.0113,4.0113,4.0113,4.0113,4.0045,3.9859,3.9833,3.985,3.9601,3.9146,3.8924,3.948,3.8695,3.8064,3.858,3.8104,3.7338,3.6538,3.5911,3.5489,5.3518,5.3518,5.3518,5.2604,0.0,5.1234,5.0371,4.8984,4.8629,4.7631,4.6227,4.5872,4.5297,4.4598,4.4598,4.4598,4.4598,4.4598,4.4367,4.3961,4.3217,4.2472,4.1728,4.0984,4.0485,4.0113,4.0113,4.0113,4.0113,4.0113,4.0113,4.0113,4.0113,4.0113,4.0113,4.0113,4.0113,4.0113,4.0113,4.0113,4.0113,4.0113,4.0113,4.0079,3.936,0.0,0.0,0.0,0.0,0.0,0.0,0.0,0.0,3.6417,0.0,3.5968,3.5426,3.5462,3.6343,3.6769,3.7276,3.7947,3.8084,3.7684,3.6661,3.7166,3.8025,3.9169,3.9991,4.0481,4.0666,4.1617,4.2362,4.2674,4.2939,4.3214,4.3427,4.3268,4.3087,4.3069,4.2828,4.2639,4.2639,4.2384,4.2262,4.2203,4.1707,4.1358,4.1268,4.0625,4.0113,4.0113,4.0113,4.0113,4.0113,4.0113,4.0113,4.0113,4.0113,4.0113,4.0113,4.0113,4.0113,4.007,3.9756,3.9662,3.9927,3.9428,3.9065,3.9332,3.887,3.8274,3.7758,3.6843,3.618,5.3518,5.3484,5.3348,5.2503,5.1185,5.1065,5.0236,4.8984,4.8866,0.0,0.0,4.6075,4.5365,4.479,4.4666,4.4598,4.4598,4.4598,4.4248,4.3578,4.298,4.2236,4.1373,4.079,4.035,4.0113,4.0113,4.0113,4.0113,4.0113,4.0113,4.0113,4.0113,4.0113,4.0113,4.0113,4.0113,4.0113,4.0113,4.0113,4.0113,4.0113,4.0113,4.0113,3.9977,3.9639,3.9022,3.8988,3.8454,3.7286,3.7889,3.7889,3.7066,3.6998,3.7081,3.7262,3.6965,3.7219,3.832,3.8626,3.8755,3.8681,3.9139,3.9189,3.856,3.9082,3.9767,4.051,4.118,4.1644,4.1877,4.2469,4.2827,4.2845,4.3232,4.3479,4.3479,4.3479,4.3462,4.3479,4.3444,4.3479,4.3444,4.3087,4.2845,4.277,4.2324,4.1895,4.1703,4.0914,4.0286,4.0286,4.0204,4.0113,4.0113,4.0113,4.0113,4.0113,4.0113,4.0113,4.0113,4.0113,4.0113,4.0113,4.0113,4.007,4.0096,4.002,4.0113,4.0113,3.9584,3.9113,3.8989,3.8015,3.7233,5.3518,5.345,5.2756,5.1978,5.1134,5.0507,4.9779,4.8968,4.8342,4.7922,4.7635,4.6295,4.5652,4.5517,4.4902,4.4598,4.4598,4.4598,4.4547,4.4445,4.4327,4.3532,4.2168,4.2016,4.1348,4.018,4.0113,4.0113,4.0113,4.0113,4.0113,4.0113,4.0113,4.0113,4.0113,4.0113,4.0113,4.0113,4.0113,4.0113,4.0113,4.0113,4.0113,4.0079,3.9503,3.9106,3.8988,3.9005,3.8886,3.8742,3.9402,3.9182,3.7855,3.7702,3.7399,3.6644,3.6485,3.7015,3.8306,3.8811,3.9228,3.9674,4.0376,4.0843,4.0981,4.0883,4.1159,4.191,4.2076,4.2186,4.2263,4.2919,4.3339,4.3375,4.3444,4.3479,4.3479,4.3479,4.3479,4.3479,4.3479,4.3479,4.3479,4.341,4.3321,4.3286,4.2884,4.242,4.1919,4.1223,4.0827,4.0726,4.0392,4.0146,4.0113,4.0113,4.0113,4.0113,4.0113,4.0113,4.0113,4.0113,4.0113,4.0113,4.0113,4.0113,4.0113,4.0113,4.0113,4.0113,3.9927,3.985,3.9808,3.9086,3.8398,5.3518,5.3416,5.2638,5.1877,5.11,4.9999,4.9323,4.8984,4.8663,4.8244,4.7787,4.6769,4.6075,4.5686,4.5348,4.4959,4.4598,4.4598,4.435,4.3961,4.3944,4.3352,4.2337,4.188,4.1356,4.0696,4.0299,4.0113,4.0113,4.0113,4.0113,4.0113,4.0113,4.0113,4.0113,4.0113,4.0113,4.0113,4.0113,4.0113,4.0113,4.0113,4.0113,4.0113,3.9774,3.9605,3.9605,3.958,3.9225,3.843,3.8717,3.8413,3.7388,3.7172,3.718,3.7411,3.7434,3.795,3.9156,3.9415,3.9834,4.049,4.0487,4.0883,4.1883,4.1417,4.1242,4.1645,4.2396,4.2947,4.2947,4.3277,4.3479,4.3479,4.3479,4.3479,4.3479,4.3479,4.3479,4.3479,4.3479,4.3479,4.3479,4.3479,4.3479,4.3462,4.325,4.2995,4.2734,4.2226,4.1621,4.1041,4.0685,4.04,4.0196,4.0113,4.0113,4.0113,4.0113,4.0113,4.0113,4.0113,4.0113,4.0113,4.0113,4.0113,4.0113,4.0113,4.0113,4.0113,4.0113,4.0113,4.0045,3.9782,3.9156,5.3518,5.3433,5.2638,5.1792,5.0862,4.9576,4.9018,4.9018,4.9001,4.8697,4.8075,4.7378,4.6549,4.5737,4.5703,4.528,4.4666,4.4598,4.4248,4.3724,4.369,4.3284,4.2523,4.1796,4.1373,4.1136,4.0443,4.0113,4.0113,4.0113,4.0113,4.0113,4.0113,4.0113,4.0113,4.0113,4.0113,4.0113,4.0113,4.0113,4.0113,4.0113,4.0113,4.0113,4.0096,4.0113,4.0096,3.9943,3.9334,3.8244,3.799,3.7621,3.6996,3.6767,3.7117,3.8079,3.821,3.8708,3.9768,4.0065,4.0359,4.0747,4.0267,4.0341,4.1295,4.1279,4.1279,4.1717,4.28,4.3461,4.3442,4.3496,4.3479,4.3479,4.3479,4.3479,4.3479,4.3479,4.3479,4.3479,4.3479,4.3479,4.3479,4.3479,4.3479,4.3479,4.3479,4.3479,4.3444,4.3124,4.2462,4.1643,4.1201,4.099,4.0538,4.0385,4.0336,4.0286,4.0154,4.0121,4.0113,4.0113,4.0113,4.0113,4.0113,4.0113,4.0113,4.0113,4.0113,4.0113,4.0113,4.0113,4.0113,4.007,3.9773,5.3518,5.3382,5.2604,5.1488,5.0152,4.934,4.9018,4.9018,4.9018,4.8984,4.8748,4.8108,4.7056,4.5821,4.5737,4.5331,4.4649,4.4598,4.4564,4.4479,4.4496,4.4062,4.3284,4.2523,4.1847,4.1204,4.046,4.0113,4.0113,4.0113,4.0113,4.0113,4.0113,4.0113,4.0113,4.0113,4.0113,4.0113,4.0113,4.0113,4.0113,4.0113,4.0113,4.0113,4.0113,4.0113,4.0045,3.9469,3.9039,3.887,3.8227,3.775,3.7452,3.7413,3.7542,3.79,3.7951,3.8515,3.9761,4.0563,4.0636,4.0084,3.9918,3.9662,3.9313,4.0359,4.1735,4.2818,4.3332,4.3479,4.3479,4.3479,4.3479,4.3479,4.3479,4.3479,4.3479,4.3479,4.3479,4.3479,4.3479,4.3479,4.3479,4.3479,4.3479,4.3479,4.3479,4.3479,4.3479,4.3427,4.3196,4.256,4.2101,4.1746,4.153,4.1173,4.085,4.078,4.0417,4.0204,4.0146,4.0113,4.0113,4.0113,4.0113,4.0113,4.0113,4.0113,4.0113,4.0113,4.0113,4.0113,4.0113,4.0113,3.9918,5.3518,5.3382,5.2181,5.0811,4.9475,4.912,4.9018,4.9018,4.9018,4.8765,4.8409,4.8494,4.7986,4.7005,4.6566,4.5957,4.5229,4.4818,4.4598,4.4598,4.4598,4.4401,4.4012,4.2844,4.2117,4.1745,4.0671,4.0113,4.0113,4.0113,4.0113,4.0113,4.0113,4.0113,4.0113,4.0113,4.0113,4.0113,4.0113,4.0113,4.0113,4.0113,4.0113,4.0113,4.0113,3.9876,3.9503,3.9148,3.8802,3.8362,3.7652,3.7337,3.7495,3.74,3.7509,3.786,3.82,3.8627,3.915,3.9496,3.9533,3.9203,3.9184,3.9221,3.9423,4.0047,4.1056,4.2525,4.3204,4.3479,4.3461,4.3479,4.3479,4.3479,4.3479,4.3479,4.3479,4.3479,4.3479,4.3479,4.3479,4.3479,4.3479,4.3479,4.3479,4.3479,4.3479,4.3479,4.3479,4.3479,4.341,4.3214,4.2958,4.2505,4.1982,4.1621,4.1313,4.0972,4.0733,4.0528,4.0179,4.0096,4.0113,4.0113,4.0113,4.0113,4.0113,4.0113,4.0113,4.0113,4.0113,4.0113,4.0113,4.0113,4.0113,5.3179,5.2942,5.1539,5.0287,4.9306,4.9069,4.9018,4.9018,4.9018,4.8697,4.8308,4.8781,4.8731,4.8139,4.7225,4.6397,4.5686,4.4936,4.4598,4.4598,4.4598,4.4598,4.4462,4.325,4.2489,4.2117,4.1044,4.0316,4.0146,4.0113,4.0113,4.0113,4.0113,4.0113,4.0113,4.0113,4.0113,4.0113,4.0113,4.0113,4.0113,4.0113,4.0113,4.0113,4.0113,3.9859,3.9351,3.9244,3.8881,3.8108,3.7541,3.7344,3.7589,3.7474,3.7614,3.8065,3.8465,3.8707,3.8707,3.8707,3.8707,3.8707,3.8707,3.8946,3.946,3.9772,4.0412,4.1442,4.2378,4.2855,4.3167,4.3369,4.3406,4.3222,4.3331,4.3496,4.3479,4.3479,4.3479,4.3479,4.3479,4.3479,4.3479,4.3479,4.3479,4.3479,4.3479,4.3479,4.3479,4.3479,4.3479,4.3479,4.3479,4.3178,4.2424,4.2124,4.1835,4.1556,4.1335,4.0967,4.0466,4.036,4.0171,4.0204,4.0146,4.0113,4.0113,4.0113,4.0113,4.0113,4.0113,4.0113,4.0113,4.0113,4.0113,5.235,5.2131,5.076,5.0101,4.9965,4.9289,4.9018,4.9018,4.9018,4.8968,4.89,4.8968,4.8984,4.8798,4.7428,4.6397,4.5703,4.497,4.4598,4.4598,4.4598,4.4598,4.4547,4.3741,4.298,4.2269,4.1457,4.073,4.0146,4.0113,4.0113,4.0113,4.0113,4.0113,4.0113,4.0113,4.0113,4.0113,4.0113,4.0113,4.0113,4.0113,4.0096,4.0146,4.0121,4.0095,3.9992,3.9845,3.9385,3.8619,3.8362,3.8157,3.7935,3.7878,3.8099,3.8562,3.8676,3.8707,3.8707,3.8707,3.8707,3.8707,3.8707,3.8726,3.8891,3.9423,3.9937,4.0102,4.1001,4.1662,4.2378,4.3002,4.313,4.2653,4.3094,4.3424,4.3479,4.3479,4.3479,4.3479,4.3479,4.3479,4.3479,4.3479,4.3479,4.3479,4.3479,4.3479,4.3479,4.3479,4.3479,4.3479,4.3479,4.3462,4.3339,4.2922,4.2656,4.2342,4.1874,4.1556,4.1213,4.0879,4.0594,4.0336,4.0279,4.0204,4.0146,4.0113,4.0113,4.0113,4.0113,4.0113,4.0113,4.0113,4.0113,5.1725,5.0862,5.0321,4.983,4.9373,4.912,4.9018,4.9018,4.9018,4.9018,4.9018,4.9018,4.9018,4.8934,4.7462,4.665,4.6295,4.5173,4.4598,4.4598,4.4598,4.4598,4.4513,4.3775,4.3031,4.2286,4.1542,4.0815,4.018,4.0113,4.0113,4.0113,4.0113,4.0113,4.0113,4.0113,4.0113,4.0113,4.0113,4.0113,4.0113,4.0113,4.0254,4.0601,4.0625,4.0384,3.9937,4.0206,4.0,3.9203,3.8669,3.8466,3.8581,3.8489,3.8481,3.8676,3.8707,3.8707,3.8707,3.8707,3.8707,3.8707,3.8707,3.8707,3.8744,3.9001,3.9533,4.0432,4.0873,4.1444,4.2121,4.258,4.2837,4.3075,4.3296,4.3479,4.3479,4.3479,4.3479,4.3479,4.3479,4.3479,4.3479,4.3479,4.3479,4.3479,4.3479,4.3479,4.3479,4.3479,4.3479,4.3479,4.3479,4.3479,4.3479,4.3375,4.3124,4.277,4.2402,4.208,4.1725,4.1547,4.1286,4.0821,4.0625,4.0538,4.049,4.0377,4.0328,4.0196,4.0171,4.0204,4.0113,4.0113,4.0113,5.1082,4.9847,4.9746,4.9458,4.9035,4.9018,4.9018,4.9018,4.9018,4.9018,4.9018,4.9018,4.9018,4.8765,4.7462,4.6955,4.6921,4.5427,4.4598,4.4598,4.4598,4.4598,4.4513,4.4028,4.3386,4.2642,4.1897,4.1271,4.084,4.0561,4.0603,4.0823,4.0383,4.0248,4.04,4.0231,4.0113,4.0113,4.0113,4.0113,4.0113,4.0113,4.0279,4.0648,4.099,4.0974,4.049,4.1014,4.0965,4.016,3.9582,3.9175,3.8931,3.8773,3.8707,3.8707,3.8707,3.8707,3.8707,3.8707,3.8707,3.8707,3.8707,3.8707,3.8707,3.8707,3.9261,4.0068,4.06,4.1038,4.1754,4.2139,4.2525,4.3057,4.3332,4.3479,4.3479,4.3479,4.3479,4.3479,4.3479,4.3479,4.3479,4.3479,4.3479,4.3479,4.3479,4.3479,4.3479,4.3479,4.3479,4.3479,4.3479,4.3479,4.3479,4.3427,4.3392,4.3087,4.2958,4.2599,4.2304,4.2162,4.1895,4.1402,4.1087,4.0967,4.0838,4.0689,4.0538,4.041,4.0392,4.0473,4.0286,4.0113,4.0113,5.0371,4.9137,4.9018,4.9052,4.9018,4.9018,4.9018,4.9018,4.9018,4.9018,4.9018,4.9018,4.9018,4.8714,4.7564,4.7208,4.7259,4.5602,4.4688,4.4716,4.4632,4.4598,4.4581,4.4513,4.4045,4.3284,4.2608,4.2252,4.2083,4.1525,4.1508,4.1873,4.0807,4.051,4.117,4.046,4.0113,4.0113,4.0113,4.0113,4.0113,4.0113,4.0196,4.036,4.1218,4.1771,4.1782,4.2331,4.2206,4.1431,4.1138,4.0327,3.9085,3.8747,3.8707,3.8707,3.8707,3.8707,3.8707,3.8707,3.8707,3.8726,3.8744,3.8836,3.8872,3.8927,3.9093,3.9478,3.9918,4.0487,4.1332,4.2029,4.2451,4.2433,4.3129,4.3461,4.3479,4.3479,4.3479,4.3479,4.3479,4.3479,4.3479,4.3479,4.3479,4.3479,4.3479,4.3479,4.3479,4.3479,4.3479,4.3479,4.3479,4.3479,4.3479,4.3479,4.3479,4.3444,4.3375,4.3196,4.2884,4.2675,4.2422,4.1961,4.156,4.1424,4.1397,4.1258,4.1173,4.1059,4.0943,4.0726,4.0497,4.0286,4.0121,4.9864,4.9052,4.9018,4.9018,4.9018,4.9018,4.9018,4.9018,4.9018,4.9018,4.9018,4.9018,4.9018,4.8798,4.797,4.7411,4.7039,4.5889,4.5348,4.5263,4.4807,4.4598,4.4598,4.4598,4.4164,4.3403,4.2658,4.2303,4.2286,4.2066,4.21,4.2076,4.1356,4.1001,4.1204,4.0502,4.0113,4.0113,4.0113,4.0113,4.0113,4.0096,4.0466,4.1218,4.1621,4.2144,4.2922,4.316,4.2848,4.2082,4.1945,4.1203,3.979,3.9019,3.8726,3.8707,3.8707,3.8707,3.8707,3.8726,3.8762,3.8817,3.9203,3.9496,3.9606,4.001,4.0508,4.0983,4.1423,4.1882,4.2598,4.2947,4.3075,4.313,4.3368,4.3479,4.3479,4.3479,4.3479,4.3479,4.3479,4.3479,4.3479,4.3479,4.3479,4.3479,4.3479,4.3479,4.3479,4.3479,4.3479,4.3479,4.3479,4.3479,4.3479,4.3479,4.3479,4.3479,4.3497,4.3497,4.325,4.3087,4.2828,4.258,4.2185,4.1982,4.1937,4.1895,4.1835,4.1556,4.1291,4.1013,4.0703,4.048,4.0336,4.9661,4.9035,4.9018,4.9018,4.9018,4.9018,4.9018,4.9018,4.9018,4.9018,4.9018,4.9018,4.9018,4.8849,4.824,4.7652,4.7124,4.6194,4.5703,4.5585,4.4942,4.4615,4.4598,4.4598,4.4367,4.3876,4.3369,4.3176,4.3142,4.2861,4.2844,4.2963,4.2117,4.1779,4.1863,4.1044,4.0595,4.077,4.0588,4.048,4.0672,4.0737,4.1076,4.1707,4.2,4.2483,4.3178,4.3392,4.3259,4.2727,4.2213,4.1222,3.9974,3.9166,3.8817,3.9093,3.9166,3.9166,3.9166,3.9496,3.9441,3.9368,3.9882,4.0322,4.0432,4.0891,4.1352,4.1754,4.2084,4.2506,4.2928,4.3351,4.3461,4.3479,4.3479,4.3479,4.3479,4.3479,4.3479,4.3479,4.3479,4.3479,4.3479,4.3479,4.3479,4.3479,4.3479,4.3479,4.3479,4.3479,4.3479,4.3479,4.3479,4.3479,4.3479,4.3479,4.3479,4.3479,4.3479,4.3479,4.3392,4.3356,4.3214,4.3105,4.2791,4.2772,4.2734,4.2639,4.2562,4.2126,4.175,4.1599,4.138,4.078,4.0552,4.961,4.9035,4.9018,4.9018,4.9018,4.9018,4.9018,4.9018,4.9018,4.9018,4.9018,4.9018,4.9018,4.8849,4.8359,4.8003,4.7635,4.6498,4.5788,4.5534,4.4959,4.4598,4.4598,4.4598,4.4547,4.4496,4.4462,4.4462,4.4293,4.3775,4.3842,4.4209,4.3047,4.2658,4.2811,4.1957,4.1468,4.1733,4.1278,4.1218,4.1643,4.1725,4.1793,4.1916,4.2362,4.2731,4.2939,4.3286,4.3479,4.3294,4.2103,4.1075,4.0139,3.9276,3.9313,3.9918,3.9955,3.9955,4.0102,4.0453,4.0634,4.0102,4.0689,4.1168,4.1203,4.1405,4.1572,4.1699,4.2139,4.247,4.2671,4.3075,4.3442,4.3479,4.3479,4.3479,4.3479,4.3479,4.3479,4.3479,4.3479,4.3479,4.3479,4.3479,4.3479,4.3479,4.3479,4.3479,4.3479,4.3479,4.3479,4.3479,4.3479,4.3479,4.3479,4.3479,4.3479,4.3479,4.3479,4.3479,4.3479,4.3479,4.3479,4.341,4.3339,4.3374,4.3356,4.3178,4.3051,4.2771,4.2521,4.2382,4.1958,4.138,4.0874,4.9171,4.9018,4.9018,4.9018,4.9018,4.9018,4.9018,4.9018,4.9018,4.9018,4.9018,4.9018,4.9018,4.8984,4.8815,4.846,4.7753,4.6955,4.616,4.5635,4.4953,4.4615,4.4598,4.4598,4.4598,4.4598,4.4598,4.4598,4.4581,4.4333,4.4367,4.4547,4.3656,4.32,4.321,4.2424,4.196,4.2053,4.1796,4.1639,4.1793,4.1853,4.2021,4.246,4.2635,4.292,4.3232,4.341,4.3479,4.3424,4.2561,4.1919,4.1534,4.0818,4.0453,4.0708,4.0799,4.0781,4.0818,4.1022,4.1003,4.091,4.1534,4.1974,4.2011,4.2525,4.28,4.2892,4.3094,4.3149,4.3185,4.3351,4.3479,4.3479,4.3479,4.3479,4.3479,4.3479,4.3479,4.3479,4.3479,4.3479,4.3479,4.3479,4.3479,4.3479,4.3479,4.3479,4.3479,4.3479,4.3479,4.3479,4.3479,4.3479,4.3479,4.3479,4.3479,4.3479,4.3479,4.3479,4.3479,4.3479,4.3479,4.3462,4.3427,4.3444,4.3462,4.3374,4.3286,4.3196,4.2958,4.2656,4.2442,4.1979,4.1424,4.9018,4.9018,4.9018,4.9018,4.9018,4.9018,4.9018,4.9018,4.9018,4.9018,4.9018,4.9018,4.9018,4.9018,4.9001,4.8595,4.7872,4.7479,4.6684,4.5686,4.4953,4.4615,4.4598,4.4598,4.4598,4.4598,4.4598,4.4598,4.4598,4.4598,4.4598,4.4547,4.4147,4.391,4.3898,4.3408,4.3006,4.2917,4.2757,4.2642,4.2539,4.2523,4.2676,4.2995,4.3032,4.3214,4.348,4.3479,4.3479,4.3332,4.2763,4.2304,4.2231,4.1535,4.126,4.1535,4.1609,4.1607,4.168,4.1882,4.1937,4.1846,4.2341,4.2727,4.2855,4.3259,4.3479,4.3442,4.3479,4.3479,4.3479,4.3479,4.3479,4.3479,4.3479,4.3479,4.3479,4.3479,4.3479,4.3479,4.3479,4.3479,4.3479,4.3479,4.3479,4.3479,4.3479,4.3479,4.3479,4.3479,4.3479,4.3479,4.3479,4.3479,4.3479,4.3479,4.3479,4.3479,4.3479,4.3479,4.3479,4.3479,4.3479,4.3479,4.3479,4.3479,4.3479,4.3479,4.3444,4.3303,4.3124,4.3014,4.2828,4.258,4.2024,4.9018,4.9018,4.9018,4.9018,4.9018,4.9018,4.9018,4.9018,4.9018,4.9018,4.9018,4.9018,4.9018,4.8984,4.8832,4.8545,4.8024,4.7703,4.6836,4.5821,4.4976,4.4598,4.4598,4.4598,4.4598,4.4598,4.4598,4.4598,4.4598,4.4598,4.4598,4.4581,4.4564,4.4564,4.447,4.4415,4.4338,4.4074,4.3912,4.3865,4.3707,4.3523,4.3412,4.3613,4.3429,4.341,4.3479,4.3479,4.3479,4.3479,4.2782,4.2543,4.2378,4.1719,4.1756,4.2268,4.2433,4.2433,4.2506,4.2947,4.313,4.2671,4.3057,4.3496,4.3406,4.3461,4.3479,4.3479,4.3479,4.3479,4.3479,4.3479,4.3479,4.3479,4.3479,4.3479,4.3479,4.3479,4.3479,4.3479,4.3479,4.3479,4.3479,4.3479,4.3479,4.3479,4.3479,4.3479,4.3479,4.3479,4.3479,4.3479,4.3479,4.3479,4.3479,4.3479,4.3479,4.3479,4.3479,4.3479,4.3479,4.3479,4.3479,4.3479,4.3479,4.3479,4.3479,4.3479,4.3479,4.3462,4.3303,4.3375,4.3391,4.3069,4.2619,4.9018,4.9018,4.9018,4.9018,4.9018,4.9018,4.9018,4.9018,4.9018,4.9018,4.9018,4.9018,4.9018,4.8984,4.8463,4.8342,4.8443,4.7614,4.6515,4.572,4.4953,4.4632,4.4615,4.4632,4.4615,4.4598,4.4598,4.4598,4.4598,4.4598,4.4598,4.4598,4.4598,4.4598,4.4601,4.4902,4.5,4.4915,4.4686,4.4876,4.493,4.4158,4.3883,4.425,4.3809,4.3497,4.3479,4.3479,4.3479,4.3442,4.3314,4.313,4.3094,4.2965,4.2947,4.3039,4.3167,4.3204,4.3259,4.3332,4.3441,4.3259,4.3314,4.3479,4.3479,4.3479,4.3479,4.3479,4.3479,4.3479,4.3479,4.3479,4.3479,4.3479,4.3479,4.3479,4.3479,4.3479,4.3479,4.3479,4.3479,4.3479,4.3479,4.3479,4.3479,4.3479,4.3479,4.3479,4.3479,4.3479,4.3479,4.3479,4.3479,4.3479,4.3479,4.3479,4.3479,4.3479,4.3479,4.3479,4.3479,4.3479,4.3479,4.3479,4.3479,4.3479,4.3479,4.3479,4.3479,4.3479,4.3479,4.3479,4.3444,4.3286,4.3196,4.9018,4.9018,4.9018,4.9018,4.9018,4.9018,4.9018,4.9018,4.9018,4.9018,4.9018,4.9018,4.9018,4.8951,4.8261,4.8173,4.8173,4.7344,4.6397,4.5771,4.5246,4.4925,4.4733,4.4902,4.4976,4.4682,4.4598,4.4598,4.4598,4.4615,4.4598,4.4598,4.4598,4.4598,4.4759,4.5322,4.5517,4.5374,4.5657,4.592,4.5681,4.5149,4.447,4.4544,4.3956,4.3479,4.3479,4.3479,4.3479,4.3479,4.3479,4.3479,4.3479,4.3479,4.3479,4.3479,4.3479,4.3479,4.3479,4.3479,4.3479,4.3479,4.3479,4.3479,4.3479,4.3479,4.3479,4.3479,4.3479,4.3479,4.3479,4.3479,4.3479,4.3479,4.3479,4.3479,4.3479,4.3479,4.3479,4.3479,4.3479,4.3479,4.3479,4.3479,4.3479,4.3479,4.3479,4.3479,4.3479,4.3479,4.3479,4.3479,4.3479,4.3479,4.3479,4.3479,4.3479,4.3479,4.3479,4.3479,4.3479,4.3479,4.3479,4.3479,4.3479,4.3479,4.3479,4.3479,4.3479,4.3479,4.3479,4.3479,4.3462,4.3392,4.3321,4.9018,4.9018,4.9018,4.9018,4.9018,4.9018,4.9018,4.9018,4.9018,4.9018,4.9018,4.9018,4.8934,4.8663,4.8003,4.7733,4.7394,4.6972,4.6143,4.5737,4.5399,4.501,4.4829,4.5145,4.5454,4.4918,4.488,4.4869,4.4987,4.4716,4.4733,4.4733,4.4615,4.4615,4.4852,4.5722,4.6071,4.5678,4.6384,4.6819,4.6379,4.603,4.5424,4.4966,4.4232,4.3828,4.3754,4.3626,4.3479,4.3479,4.3479,4.3479,4.3479,4.3479,4.3479,4.3479,4.3479,4.3479,4.3479,4.3479,4.3479,4.3479,4.3479,4.3479,4.3479,4.3479,4.3479,4.3479,4.3479,4.3479,4.3479,4.3479,4.3479,4.3479,4.3479,4.3479,4.3479,4.3479,4.3479,4.3479,4.3479,4.3479,4.3479,4.3479,4.3479,4.3479,4.3479,4.3479,4.3479,4.3479,4.3479,4.3479,4.3479,4.3479,4.3479,4.3479,4.3479,4.3479,4.3479,4.3479,4.3479,4.3479,4.3479,4.3479,4.3479,4.3479,4.3479,4.3479,4.3479,4.3479,4.3479,4.3479,4.3479,4.3479,4.3444,4.9018,4.9018,4.9018,4.9018,4.9018,4.9018,4.9018,4.9018,4.9018,4.9018,4.9018,4.9001,4.868,4.8071,4.7327,4.6684,4.6261,4.5991,4.5855,4.5534,4.5196,4.4784,4.4895,4.5404,4.5872,4.6119,4.5956,4.5937,4.5942,4.5326,4.5145,4.5314,4.4942,4.4682,4.5056,4.5715,4.636,4.6295,4.6876,4.7314,4.7388,4.6617,4.5883,4.5553,4.4856,4.4452,4.4232,4.3828,4.3479,4.3479,4.3479,4.3479,4.3479,4.3479,4.3479,4.3479,4.3479,4.3479,4.3479,4.3479,4.3479,4.3479,4.3479,4.3479,4.3479,4.3479,4.3479,4.3479,4.3479,4.3479,4.3479,4.3479,4.3479,4.3479,4.3479,4.3479,4.3479,4.3479,4.3479,4.3479,4.3479,4.3479,4.3479,4.3479,4.3479,4.3479,4.3479,4.3479,4.3479,4.3479,4.3479,4.3479,4.3479,4.3479,4.3479,4.3479,4.3479,4.3479,4.3479,4.3479,4.3479,4.3479,4.3479,4.3479,4.3479,4.3479,4.3479,4.3479,4.3479,4.3479,4.3479,4.3479,4.3479,4.3479,4.3479,4.9018,4.9018,4.9018,4.9018,4.9018,4.9018,4.9018,4.9018,4.9018,4.9018,4.9018,4.8968,4.8595,4.7868,4.7124,4.621,4.5415,4.5585,4.5466,4.5162,4.5111,4.5109,4.5162,4.5727,4.6751,4.7395,4.7456,4.721,4.7221,4.6311,4.5976,4.5974,4.5534,4.5326,4.5642,4.615,4.6601,4.6892,4.7413,4.7865,4.8214,4.7076,4.6452,4.5883,4.5516,4.4929,4.414,4.4287,4.3883,4.3589,4.3479,4.3479,4.3479,4.3479,4.3479,4.3479,4.3479,4.3479,4.3479,4.3479,4.3479,4.3479,4.3479,4.3479,4.3479,4.3479,4.3479,4.3479,4.3479,4.3479,4.3479,4.3479,4.3479,4.3479,4.3479,4.3479,4.3479,4.3479,4.3479,4.3479,4.3479,4.3479,4.3479,4.3479,4.3479,4.3479,4.3479,4.3479,4.3479,4.3479,4.3479,4.3479,4.3479,4.3479,4.3479,4.3479,4.3479,4.3479,4.3479,4.3479,4.3479,4.3479,4.3479,4.3479,4.3479,4.3479,4.3479,4.3479,4.3479,4.3479,4.3479,4.3479,4.3479,4.3479,4.3479,4.9018,4.9018,4.9018,4.9018,4.9018,4.9018,4.9018,4.9018,4.9018,4.89,4.8815,4.8866,4.8409,4.7462,4.6599,4.5669,4.4666,4.5246,4.5094,4.4897,4.5297,4.5559,4.5727,4.6487,4.7477,4.8691,4.8808,4.8819,4.8546,4.7669,4.729,4.7096,4.6533,4.6202,4.6525,4.6642,4.6977,4.7403,4.7977,4.8287,4.8141,4.7663,4.7058,4.6397,4.6214,4.548,4.4488,4.4433,4.4158,4.3718,4.3479,4.3479,4.3479,4.3479,4.3479,4.3479,4.3479,4.3479,4.3479,4.3479,4.3479,4.3479,4.3479,4.3479,4.3479,4.3479,4.3479,4.3479,4.3479,4.3479,4.3479,4.3479,4.3479,4.3479,4.3479,4.3479,4.3479,4.3479,4.3479,4.3479,4.3479,4.3479,4.3479,4.3479,4.3479,4.3479,4.3479,4.3479,4.3479,4.3479,4.3479,4.3479,4.3479,4.3479,4.3479,4.3479,4.3479,4.3479,4.3479,4.3479,4.3479,4.3479,4.3479,4.3479,4.3479,4.3479,4.3479,4.3479,4.3479,4.3479,4.3479,4.3479,4.3479,4.3479,4.3479,4.9018,4.9018,4.9018,4.9018,4.9018,4.9018,4.9018,4.9018,4.9018,4.8612,4.8159,4.8612,4.7919,4.638,4.5331,4.4835,4.4699,4.48,4.4879,4.4827,4.5324,4.5728,4.5802,4.6763,4.8289,4.9586,4.9744,5.0086,5.0128,4.9288,4.8697,4.8518,4.7958,4.7382,4.7248,4.747,4.7422,4.7569,4.8034,4.8324,4.8288,4.8159,4.7994,4.7681,4.7241,4.6434,4.5424,4.5039,4.4433,4.3717,4.3516,4.3479,4.3479,4.3479,4.3479,4.3479,4.3479,4.3479,4.3479,4.3479,4.3479,4.3479,4.3479,4.3479,4.3479,4.3479,4.3479,4.3479,4.3479,4.3479,4.3479,4.3479,4.3479,4.3479,4.3479,4.3479,4.3479,4.3479,4.3479,4.3479,4.3479,4.3479,4.3479,4.3479,4.3479,4.3479,4.3479,4.3479,4.3479,4.3479,4.3479,4.3479,4.3479,4.3479,4.3479,4.3479,4.3479,4.3479,4.3479,4.3479,4.3479,4.3479,4.3479,4.3479,4.3479,4.3479,4.3479,4.3479,4.3479,4.3479,4.3479,4.3479,4.3479,4.3479,4.3479,4.9018,4.9018,4.9018,4.9018,4.9018,4.9018,4.9018,4.9018,4.9001,4.8595,4.8156,4.868,4.7986,4.6329,4.5173,4.4615,4.4665,4.4985,4.5115,4.53,4.5786,4.6456,4.7281,4.7922,4.9046,5.0554,5.1125,5.1533,5.1571,5.0952,5.0126,5.0005,4.946,4.9182,4.8664,4.8835,4.8806,4.8675,4.8502,4.8323,4.8324,4.8288,4.8104,4.77,4.77,4.7076,4.614,4.5626,4.4984,4.425,4.3809,4.3479,4.3479,4.3479,4.3479,4.3479,4.3479,4.3479,4.3479,4.3479,4.3479,4.3479,4.3479,4.3479,4.3479,4.3479,4.3479,4.3479,4.3479,4.3479,4.3479,4.3479,4.3479,4.3479,4.3479,4.3479,4.3479,4.3479,4.3479,4.3479,4.3479,4.3479,4.3479,4.3479,4.3479,4.3479,4.3479,4.3479,4.3479,4.3479,4.3479,4.3479,4.3479,4.3479,4.3479,4.3479,4.3479,4.3479,4.3479,4.3479,4.3479,4.3479,4.3479,4.3479,4.3479,4.3479,4.3479,4.3479,4.3479,4.3479,4.3479,4.3479,4.3479,4.3479,4.3479,4.9018,4.9018,4.9018,4.9018,4.9018,4.9018,4.9018,4.9018,4.9018,4.8494,4.7885,4.7953,4.753,4.6802,4.5749,4.5207,4.4948,4.5696,4.6013,4.629,4.6923,4.787,4.8587,4.9162,5.0156,5.2016,5.1786,5.2276,5.2536,5.2193,5.1518,5.1368,5.0781,5.0532,5.0597,5.0267,4.9844,4.9382,4.8947,4.86,4.8342,4.8324,4.7994,4.781,4.7773,4.7645,4.6471,4.6195,4.581,4.469,4.4195,4.3828,4.357,4.3479,4.3479,4.3479,4.3479,4.3479,4.3479,4.3479,4.3479,4.3479,4.3479,4.3479,4.3479,4.3479,4.3479,4.3479,4.3479,4.3479,4.3479,4.3479,4.3479,4.3479,4.3479,4.3479,4.3479,4.3479,4.3479,4.3479,4.3479,4.3479,4.3479,4.3479,4.3479,4.3479,4.3479,4.3479,4.3479,4.3479,4.3479,4.3479,4.3479,4.3479,4.3479,4.3479,4.3479,4.3479,4.3479,4.3479,4.3479,4.3479,4.3479,4.3479,4.3479,4.3479,4.3479,4.3479,4.3479,4.3479,4.3479,4.3479,4.3479,4.3479,4.3479,4.9018,4.9018,4.9018,4.9018,4.9018,4.9018,4.9018,4.9018,4.9018,4.8257,4.7208,4.6413,4.6583,4.6599,4.6527,4.6053,4.5637,4.7014,4.7385,4.7959,4.8876,4.9433,4.9942,5.0417,5.1051,5.1958,5.2179,5.2601,5.3002,5.2977,5.2486,5.21,5.1849,5.147,5.122,5.0995,5.0504,5.0025,4.9519,4.9004,4.8581,4.8379,4.8233,4.8214,4.8177,4.7884,4.7076,4.6911,4.6379,4.504,4.4764,4.425,4.3846,4.3718,4.3699,4.3515,4.3479,4.3479,4.3479,4.3479,4.3479,4.3479,4.3479,4.3479,4.3479,4.3479,4.3479,4.3479,4.3479,4.3479,4.3479,4.3479,4.3479,4.3479,4.3479,4.3479,4.3479,4.3479,4.3479,4.3479,4.3479,4.3479,4.3479,4.3479,4.3479,4.3479,4.3479,4.3479,4.3479,4.3479,4.3479,4.3479,4.3479,4.3479,4.3479,4.3479,4.3479,4.3479,4.3479,4.3479,4.3479,4.3479,4.3479,4.3479,4.3479,4.3479,4.3479,4.3479,4.3479,4.3479,4.3479,4.3479,4.3479,4.3479,4.3479,4.9018,4.9018,4.9018,4.9018,4.9018,4.9018,4.9018,4.9018,4.9001,4.8748,4.8037,4.6972,4.6532,4.6752,4.676,4.6346,4.5935,4.7605,4.8189,4.8805,4.9611,5.0596,5.1057,5.1465,5.1958,5.2546,5.2729,5.2803,5.3148,5.3185,5.3103,5.2831,5.2707,5.2641,5.2295,5.1774,5.1347,5.0865,5.0143,4.939,4.9151,4.8526,4.8324,4.8324,4.8324,4.8177,4.781,4.7314,4.6764,4.6195,4.57,4.5002,4.4323,4.4195,4.392,4.357,4.3479,4.3479,4.3479,4.3479,4.3479,4.3479,4.3479,4.3479,4.3479,4.3479,4.3479,4.3479,4.3479,4.3479,4.3479,4.3479,4.3479,4.3479,4.3552,4.3644,4.3589,4.3663,4.3516,4.3516,4.3497,4.3479,4.3479,4.3479,4.3479,4.3479,4.3479,4.3479,4.3479,4.3479,4.3479,4.3479,4.3479,4.3479,4.3479,4.3479,4.3479,4.3479,4.3479,4.3479,4.3479,4.3479,4.3479,4.3479,4.3479,4.3479,4.3479,4.3479,4.3479,4.3479,4.3479,4.3479,4.3479,4.3479,4.3479,4.9018,4.9018,4.9018,4.9018,4.9018,4.9018,4.9018,4.9018,4.9018,4.9018,4.8917,4.7699,4.7141,4.7124,4.712,4.7119,4.7182,4.8352,4.9216,5.0087,5.103,5.1807,5.2197,5.2435,5.2619,5.313,5.3185,5.3185,5.3185,5.3185,5.3164,5.3164,5.3185,5.3127,5.2999,5.2711,5.2252,5.1701,5.1079,4.9922,4.9665,4.9058,4.8471,4.8416,4.8324,4.8306,4.8141,4.7792,4.7369,4.6929,4.6434,4.5718,4.5112,4.4617,4.4268,4.3809,4.3497,4.3497,4.3497,4.3479,4.3479,4.3479,4.3479,4.3479,4.3479,4.3497,4.3479,4.3479,4.3479,4.3497,4.3552,4.3718,4.3938,4.4066,4.4507,4.458,4.4176,4.4048,4.3754,4.3552,4.3534,4.3515,4.3534,4.3534,4.3589,4.3552,4.3479,4.3479,4.3479,4.3479,4.3479,4.3479,4.3479,4.3479,4.3479,4.3479,4.3479,4.3479,4.3479,4.3479,4.3479,4.3479,4.3479,4.3479,4.3479,4.3479,4.3479,4.3479,4.3479,4.3479,4.3479,4.3479,4.3479,4.3479,4.3479,4.9018,4.9018,4.9018,4.9018,4.9018,4.9018,4.9018,4.9018,4.9018,4.9018,4.8934,4.8156,4.7834,4.7804,4.78,4.7991,4.8508,4.9448,5.0472,5.1511,5.2199,5.2926,5.302,5.3038,5.3023,5.313,5.3185,5.3185,5.3185,5.3185,5.3185,5.3185,5.3185,5.3185,5.3185,5.3167,5.2766,5.2105,5.1903,5.0987,5.0161,4.9701,4.9205,4.8673,4.8545,4.8563,4.8251,4.8196,4.7791,4.7351,4.7223,4.6415,4.5296,4.4966,4.4525,4.3883,4.3681,4.3589,4.3551,4.3534,4.3681,4.3644,4.3663,4.357,4.3551,4.3533,4.3479,4.3479,4.3608,4.3608,4.3809,4.4195,4.4525,4.48,4.5223,4.5296,4.4874,4.4397,4.4103,4.3938,4.3699,4.3551,4.3588,4.3625,4.3681,4.3644,4.3534,4.3479,4.3479,4.3479,4.3479,4.3479,4.3479,4.3479,4.3479,4.3479,4.3479,4.3479,4.3479,4.3479,4.3479,4.3479,4.3479,4.3479,4.3479,4.3479,4.3479,4.3479,4.3479,4.3479,4.3479,4.3479,4.3479,4.3479,4.3479,4.9018,4.9018,4.9018,4.9018,4.9018,4.9018,4.9018,4.9018,4.9018,4.9018,4.8984,4.8697,4.8294,4.8142,4.8378,4.8701,4.9074,5.0285,5.1354,5.204,5.2846,5.3109,5.3185,5.3185,5.3185,5.3185,5.3185,5.3185,5.3185,5.3185,5.3185,5.3185,5.3185,5.3185,5.3185,5.3185,5.2986,5.2729,5.2289,5.1685,5.1151,5.0637,4.9994,4.9205,4.9132,4.8857,4.8416,4.8398,4.8103,4.7828,4.7773,4.7223,4.6214,4.5847,4.5351,4.4911,4.4727,4.4323,4.447,4.4654,4.48,4.4415,4.3938,4.392,4.414,4.3718,4.3571,4.3644,4.3975,4.4103,4.4433,4.5076,4.5424,4.548,4.5718,4.5718,4.5424,4.4892,4.4525,4.447,4.4305,4.4525,4.4635,4.447,4.4433,4.403,4.3883,4.3589,4.3497,4.3479,4.3479,4.3479,4.3479,4.3479,4.3479,4.3479,4.3479,4.3479,4.3479,4.3479,4.3479,4.3479,4.3479,4.3479,4.3479,4.3479,4.3479,4.3479,4.3479,4.3479,4.3479,4.3479,4.3479,4.3479,4.3479,4.9018,4.9018,4.9018,4.9018,4.9018,4.9018,4.9018,4.9018,4.9018,4.9018,4.9001,4.9001,4.8781,4.8494,4.8497,4.9304,4.9576,5.0252,5.1652,5.2273,5.2913,5.313,5.3185,5.3185,5.3185,5.3185,5.3185,5.3185,5.3185,5.3185,5.3185,5.3185,5.3185,5.3185,5.3185,5.3185,5.3167,5.3004,5.2656,5.2289,5.1848,5.1389,5.082,5.0141,4.9701,4.9297,4.8838,4.8526,4.8324,4.8324,4.8214,4.792,4.7168,4.6672,4.6177,4.581,4.5516,4.5149,4.5278,4.5424,4.5553,4.5608,4.4764,4.4323,4.4415,4.403,4.3754,4.3846,4.4342,4.458,4.4856,4.5553,4.625,4.6305,4.6544,4.6581,4.6177,4.5681,4.5168,4.5112,4.4617,4.5021,4.5516,4.5498,4.5333,4.4782,4.425,4.3938,4.3606,4.3515,4.3497,4.3479,4.3497,4.3516,4.3497,4.3479,4.3479,4.3479,4.3479,4.3497,4.3479,4.3479,4.3479,4.3497,4.3516,4.3534,4.3497,4.3479,4.3479,4.3479,4.3479,4.3479,4.3479,4.3479,4.3479,4.9018,4.9018,4.9018,4.9018,4.9018,4.9018,4.9018,4.9018,4.9018,4.9018,4.9018,4.9018,4.8934,4.8832,4.8311,4.9126,5.0488,5.0396,5.1508,5.2594,5.313,5.3185,5.3185,5.3185,5.3185,5.3185,5.3185,5.3185,5.3185,5.3185,5.3185,5.3185,5.3185,5.3185,5.3185,5.3185,5.3185,5.3133,5.3059,5.2692,5.2307,5.2087,5.1573,5.0949,5.0362,4.9886,4.939,4.8912,4.8526,4.8379,4.8288,4.781,4.7406,4.7131,4.6581,4.6195,4.5993,4.6085,4.5993,4.6122,4.6195,4.6361,4.6269,4.5168,4.4378,4.425,4.3864,4.3956,4.436,4.4635,4.4966,4.6049,4.7094,4.7369,4.7737,4.7517,4.7095,4.6581,4.603,4.548,4.4617,4.4727,4.5498,4.5718,4.614,4.5461,4.4911,4.4562,4.4158,4.3551,4.3533,4.3479,4.3516,4.3552,4.3571,4.3626,4.4011,4.4195,4.3643,4.3533,4.3515,4.3663,4.3828,4.3864,4.368,4.3662,4.3846,4.3718,4.3479,4.3479,4.3479,4.3479,4.3479,4.3479,4.3479,4.9018,4.9018,4.9018,4.9018,4.9018,4.9018,4.9018,4.9018,4.9018,4.9018,4.9018,4.9018,4.9018,4.8968,4.8781,4.9723,5.0477,5.1132,5.1915,5.2666,5.3185,5.3185,5.3185,5.3185,5.3185,5.3185,5.3185,5.3185,5.3185,5.3185,5.3185,5.3185,5.3185,5.3185,5.3185,5.3185,5.3185,5.3185,5.3185,5.3023,5.2858,5.2747,5.227,5.172,5.1298,5.0712,4.9794,4.939,4.893,4.8398,4.8343,4.8067,4.8031,4.7443,4.6874,4.6911,4.715,4.7443,4.6984,4.7278,4.7315,4.6893,4.6948,4.6709,4.5571,4.4488,4.3975,4.403,4.4562,4.4984,4.5571,4.6544,4.7424,4.7921,4.8159,4.7994,4.7535,4.6948,4.6379,4.5645,4.4782,4.5333,4.603,4.6654,4.6929,4.6214,4.559,4.515,4.469,4.403,4.3551,4.3516,4.3516,4.3571,4.3809,4.3938,4.4488,4.4819,4.4286,4.392,4.4121,4.4287,4.4342,4.4305,4.4213,4.4268,4.4397,4.4085,4.3516,4.3479,4.3479,4.3479,4.3479,4.3479,4.3479,4.9018,4.9018,4.9018,4.9018,4.9018,4.9018,4.9018,4.9018,4.9018,4.9018,4.9018,4.9018,4.9018,4.9018,4.906,4.9705,5.099,5.1128,5.1832,5.2897,5.3185,5.3185,5.3185,5.3185,5.3185,5.3185,5.3185,5.3185,5.3185,5.3185,5.3185,5.3185,5.3185,5.3185,5.3185,5.3185,5.3185,5.3185,5.3185,5.3185,5.3185,5.3185,5.2858,5.2527,5.2234,5.1242,5.0233,4.9922,4.915,4.8453,4.8324,4.8306,4.8269,4.7791,4.759,4.7626,4.7846,4.7939,4.77,4.7939,4.7609,4.7186,4.715,4.6581,4.6104,4.5149,4.4342,4.3937,4.4782,4.5553,4.625,4.6948,4.7609,4.8251,4.8288,4.8306,4.7755,4.7131,4.6489,4.5792,4.5847,4.6397,4.7003,4.759,4.7388,4.6067,4.5461,4.5406,4.4984,4.4433,4.3864,4.3552,4.3552,4.3589,4.3901,4.4232,4.4525,4.4929,4.4984,4.4764,4.4838,4.5002,4.5168,4.5057,4.4856,4.4837,4.4727,4.4011,4.3479,4.3479,4.3479,4.3479,4.3479,4.3479,4.3479,4.89,4.89,4.8917,4.8917,4.9018,4.9018,4.9018,4.9001,4.89,4.8951,4.8984,4.8917,4.89,4.8968,4.9032,4.9809,5.0743,5.1138,5.1868,5.3164,5.3185,5.3185,5.3185,5.3185,5.3185,5.3185,5.3185,5.3185,5.3185,5.3185,5.3185,5.3185,5.3185,5.3185,5.3185,5.3185,5.3185,5.3185,5.3185,5.3185,5.3185,5.3185,5.3167,5.302,5.2491,5.172,5.0912,5.0123,4.9279,4.8728,4.8343,4.8343,4.8288,4.8251,4.8214,4.8214,4.8251,4.8233,4.8122,4.8251,4.8122,4.7553,4.6893,4.625,4.5718,4.5057,4.414,4.3974,4.4672,4.5443,4.614,4.7095,4.7884,4.8214,4.8306,4.8324,4.8067,4.7443,4.6764,4.6232,4.6287,4.6764,4.6746,4.7205,4.7113,4.5755,4.5553,4.5755,4.548,4.5039,4.4433,4.3901,4.3864,4.3993,4.4287,4.4544,4.4507,4.4764,4.5186,4.5314,4.5204,4.5553,4.603,4.5957,4.5865,4.5204,4.4837,4.4121,4.3589,4.3479,4.3479,4.3479,4.3479,4.3479,4.3479,4.8159,4.8159,4.8142,4.8477,4.8968,4.9018,4.9018,4.8951,4.8409,4.8528,4.8832,4.8511,4.8528,4.8968,4.9001,4.9751,5.0823,5.1164,5.1988,5.2809,5.3185,5.3185,5.3185,5.3185,5.3185,5.3185,5.3185,5.3185,5.3185,5.3185,5.3185,5.3185,5.3185,5.3185,5.3185,5.3185,5.3185,5.3185,5.3185,5.3185,5.3185,5.3185,5.3167,5.3148,5.2784,5.238,5.1646,5.0912,5.0105,4.9426,4.8636,4.8379,4.8306,4.8324,4.8324,4.8324,4.8324,4.8324,4.8324,4.8269,4.8103,4.7626,4.6856,4.6049,4.5314,4.4525,4.414,4.4176,4.4488,4.5259,4.614,4.7186,4.8012,4.8177,4.8306,4.8306,4.8306,4.7682,4.7021,4.6874,4.6801,4.6746,4.6709,4.6562,4.6397,4.6434,4.6617,4.6691,4.6452,4.603,4.5296,4.4764,4.4452,4.4525,4.4672,4.4856,4.48,4.5094,4.5553,4.5608,4.5626,4.6232,4.6856,4.7003,4.6874,4.6122,4.5223,4.4232,4.3809,4.3718,4.3479,4.3479,4.3479,4.3479,4.3479,4.7906,4.7906,4.7906,4.8108,4.8528,4.8866,4.9018,4.8883,4.824,4.8325,4.8832,4.8342,4.8308,4.8934,4.9001,4.9809,5.0929,5.1086,5.1988,5.285,5.3185,5.3185,5.3185,5.3185,5.3185,5.3185,5.3185,5.3185,5.3185,5.3185,5.3185,5.3185,5.3185,5.3185,5.3185,5.3185,5.3185,5.3185,5.3185,5.3185,5.3185,5.3185,5.3185,5.3185,5.3075,5.2729,5.2179,5.1481,5.0949,5.0343,4.9719,4.8893,4.8746,4.8728,4.8636,4.8434,4.8324,4.8324,4.8324,4.8251,4.8048,4.7608,4.6727,4.5865,4.5608,4.4929,4.4452,4.4452,4.4525,4.5186,4.6287,4.7333,4.7865,4.8141,4.8177,4.8177,4.8086,4.7755,4.7297,4.7039,4.704,4.704,4.6948,4.6746,4.647,4.5755,4.6195,4.7094,4.6966,4.6837,4.6159,4.5498,4.5076,4.447,4.414,4.4599,4.5112,4.548,4.5883,4.6562,4.6948,4.7314,4.7681,4.7626,4.7369,4.6782,4.5865,4.4874,4.4323,4.4232,4.3846,4.3479,4.3534,4.3644,4.3644,4.7682,4.7635,4.7703,4.7804,4.8007,4.868,4.9018,4.8883,4.8257,4.8294,4.8832,4.821,4.8392,4.8904,4.9182,5.0163,5.092,5.1317,5.2196,5.2872,5.3185,5.3185,5.3185,5.3185,5.3185,5.3185,5.3185,5.3185,5.3185,5.3185,5.3185,5.3185,5.3185,5.3185,5.3185,5.3185,5.3185,5.3185,5.3185,5.3185,5.3185,5.3185,5.3185,5.3185,5.313,5.2821,5.2362,5.1922,5.1573,5.1041,5.049,4.9627,4.9022,4.8893,4.8655,4.8453,4.8324,4.8324,4.8324,4.8306,4.8158,4.7736,4.6636,4.603,4.581,4.5443,4.4966,4.5021,4.5095,4.5498,4.6617,4.7369,4.7828,4.8104,4.8122,4.8141,4.7994,4.7865,4.7608,4.7333,4.7278,4.7315,4.7113,4.6911,4.6397,4.5627,4.581,4.6636,4.7204,4.7113,4.6764,4.603,4.5406,4.4745,4.4066,4.4617,4.548,4.5663,4.614,4.7315,4.8122,4.7994,4.792,4.8012,4.7681,4.7076,4.6507,4.5681,4.5241,4.4856,4.4672,4.4397,4.425,4.4287,4.403,4.665,4.6177,4.6752,4.7361,4.7939,4.8697,4.9018,4.89,4.8274,4.8294,4.8697,4.8372,4.8545,4.9809,4.9792,5.0527,5.1569,5.1808,5.2353,5.3082,5.3185,5.3185,5.3185,5.3185,5.3185,5.3185,5.3185,5.3185,5.3185,5.3185,5.3185,5.3185,5.3185,5.3185,5.3185,5.3185,5.3185,5.3185,5.3185,5.3185,5.3185,5.3185,5.3185,5.3185,5.3185,5.3093,5.2858,5.2325,5.2013,5.1463,5.0692,4.9978,4.9444,4.904,4.871,4.86,4.8453,4.8324,4.8324,4.8324,4.8195,4.7681,4.6782,4.6489,4.625,4.5938,4.5865,4.6342,4.6452,4.6544,4.7333,4.7791,4.8213,4.8233,4.8251,4.8251,4.8196,4.8159,4.8067,4.7755,4.7535,4.7388,4.7113,4.6911,4.6709,4.6305,4.6581,4.7351,4.7755,4.7571,4.7333,4.6617,4.5847,4.5241,4.4709,4.5278,4.592,4.603,4.6305,4.726,4.7902,4.8086,4.8122,4.8177,4.781,4.7241,4.6672,4.6415,4.6012,4.5663,4.5663,4.5498,4.5241,4.4911,4.4635]}]]